<?xml version="1.0" encoding="UTF-8" standalone="no" ?>
<gpx xmlns="http://www.topografix.com/GPX/1/1" xmlns:xsi="http://www.w3.org/2001/XMLSchema-instance" xsi:schemaLocation="http://www.topografix.com/GPX/1/1 http://www.topografix.com/GPX/1/1/gpx.xsd" version="1.1" creator="VisuGPX - https://www.visugpx.com">
  <metadata>
    <name>Mont des Archers</name>
    <desc><![CDATA[Départ ND des près]]></desc>
  </metadata>
  <trk>
    <name><![CDATA[Tracé actuel: 08 FEV 2015 08:47]]></name>
    <trkseg>
      <trkpt lat="45.51344" lon="6.59839">
        <ele>1292.63</ele>
        <time>2015-02-08T07:47:08Z</time>
      </trkpt>
      <trkpt lat="45.51344" lon="6.59834">
        <ele>1295.51</ele>
        <time>2015-02-08T07:47:29Z</time>
      </trkpt>
      <trkpt lat="45.51343" lon="6.59838">
        <ele>1297.92</ele>
        <time>2015-02-08T07:47:46Z</time>
      </trkpt>
      <trkpt lat="45.51343" lon="6.5984">
        <ele>1299.84</ele>
        <time>2015-02-08T07:48:05Z</time>
      </trkpt>
      <trkpt lat="45.51342" lon="6.5984">
        <ele>1297.44</ele>
        <time>2015-02-08T07:48:15Z</time>
      </trkpt>
      <trkpt lat="45.51342" lon="6.59839">
        <ele>1301.76</ele>
        <time>2015-02-08T07:48:16Z</time>
      </trkpt>
      <trkpt lat="45.51342" lon="6.5984">
        <ele>1301.76</ele>
        <time>2015-02-08T07:48:17Z</time>
      </trkpt>
      <trkpt lat="45.51342" lon="6.5984">
        <ele>1300.32</ele>
        <time>2015-02-08T07:48:29Z</time>
      </trkpt>
      <trkpt lat="45.51341" lon="6.59839">
        <ele>1300.32</ele>
        <time>2015-02-08T07:48:43Z</time>
      </trkpt>
      <trkpt lat="45.51341" lon="6.59838">
        <ele>1299.84</ele>
        <time>2015-02-08T07:48:58Z</time>
      </trkpt>
      <trkpt lat="45.51342" lon="6.59839">
        <ele>1299.84</ele>
        <time>2015-02-08T07:49:08Z</time>
      </trkpt>
      <trkpt lat="45.51344" lon="6.59838">
        <ele>1299.84</ele>
        <time>2015-02-08T07:49:21Z</time>
      </trkpt>
      <trkpt lat="45.51344" lon="6.59838">
        <ele>1299.84</ele>
        <time>2015-02-08T07:49:34Z</time>
      </trkpt>
      <trkpt lat="45.51337" lon="6.59835">
        <ele>1299.36</ele>
        <time>2015-02-08T07:49:44Z</time>
      </trkpt>
      <trkpt lat="45.51335" lon="6.59834">
        <ele>1299.36</ele>
        <time>2015-02-08T07:49:54Z</time>
      </trkpt>
      <trkpt lat="45.51333" lon="6.59837">
        <ele>1299.36</ele>
        <time>2015-02-08T07:50:07Z</time>
      </trkpt>
      <trkpt lat="45.51332" lon="6.59833">
        <ele>1298.88</ele>
        <time>2015-02-08T07:50:34Z</time>
      </trkpt>
      <trkpt lat="45.51333" lon="6.59835">
        <ele>1298.88</ele>
        <time>2015-02-08T07:50:44Z</time>
      </trkpt>
      <trkpt lat="45.51333" lon="6.59837">
        <ele>1298.88</ele>
        <time>2015-02-08T07:50:59Z</time>
      </trkpt>
      <trkpt lat="45.51336" lon="6.59845">
        <ele>1298.88</ele>
        <time>2015-02-08T07:51:12Z</time>
      </trkpt>
      <trkpt lat="45.51335" lon="6.59845">
        <ele>1298.88</ele>
        <time>2015-02-08T07:51:30Z</time>
      </trkpt>
      <trkpt lat="45.51335" lon="6.59845">
        <ele>1299.36</ele>
        <time>2015-02-08T07:51:51Z</time>
      </trkpt>
      <trkpt lat="45.51325" lon="6.59857">
        <ele>1299.36</ele>
        <time>2015-02-08T07:52:03Z</time>
      </trkpt>
      <trkpt lat="45.51323" lon="6.59858">
        <ele>1300.32</ele>
        <time>2015-02-08T07:52:07Z</time>
      </trkpt>
      <trkpt lat="45.51316" lon="6.59859">
        <ele>1301.28</ele>
        <time>2015-02-08T07:52:16Z</time>
      </trkpt>
      <trkpt lat="45.51316" lon="6.59859">
        <ele>1301.28</ele>
        <time>2015-02-08T07:52:24Z</time>
      </trkpt>
      <trkpt lat="45.51316" lon="6.59862">
        <ele>1301.28</ele>
        <time>2015-02-08T07:52:35Z</time>
      </trkpt>
      <trkpt lat="45.51315" lon="6.59863">
        <ele>1300.32</ele>
        <time>2015-02-08T07:52:51Z</time>
      </trkpt>
      <trkpt lat="45.51315" lon="6.59862">
        <ele>1302.24</ele>
        <time>2015-02-08T07:53:01Z</time>
      </trkpt>
      <trkpt lat="45.51316" lon="6.59864">
        <ele>1302.24</ele>
        <time>2015-02-08T07:53:14Z</time>
      </trkpt>
      <trkpt lat="45.51315" lon="6.59863">
        <ele>1302.24</ele>
        <time>2015-02-08T07:53:33Z</time>
      </trkpt>
      <trkpt lat="45.51314" lon="6.59861">
        <ele>1302.24</ele>
        <time>2015-02-08T07:53:49Z</time>
      </trkpt>
      <trkpt lat="45.51312" lon="6.59862">
        <ele>1302.72</ele>
        <time>2015-02-08T07:54:12Z</time>
      </trkpt>
      <trkpt lat="45.51314" lon="6.59863">
        <ele>1302.72</ele>
        <time>2015-02-08T07:54:26Z</time>
      </trkpt>
      <trkpt lat="45.51312" lon="6.59861">
        <ele>1302.72</ele>
        <time>2015-02-08T07:54:43Z</time>
      </trkpt>
      <trkpt lat="45.51298" lon="6.59869">
        <ele>1303.69</ele>
        <time>2015-02-08T07:54:58Z</time>
      </trkpt>
      <trkpt lat="45.51292" lon="6.5988">
        <ele>1304.65</ele>
        <time>2015-02-08T07:55:08Z</time>
      </trkpt>
      <trkpt lat="45.51291" lon="6.59888">
        <ele>1305.13</ele>
        <time>2015-02-08T07:55:13Z</time>
      </trkpt>
      <trkpt lat="45.5129" lon="6.59901">
        <ele>1305.61</ele>
        <time>2015-02-08T07:55:20Z</time>
      </trkpt>
      <trkpt lat="45.51291" lon="6.59927">
        <ele>1306.57</ele>
        <time>2015-02-08T07:55:36Z</time>
      </trkpt>
      <trkpt lat="45.51291" lon="6.59939">
        <ele>1307.53</ele>
        <time>2015-02-08T07:55:44Z</time>
      </trkpt>
      <trkpt lat="45.51288" lon="6.59955">
        <ele>1308.49</ele>
        <time>2015-02-08T07:55:56Z</time>
      </trkpt>
      <trkpt lat="45.51287" lon="6.59956">
        <ele>1308.49</ele>
        <time>2015-02-08T07:55:58Z</time>
      </trkpt>
      <trkpt lat="45.51284" lon="6.59963">
        <ele>1309.45</ele>
        <time>2015-02-08T07:56:04Z</time>
      </trkpt>
      <trkpt lat="45.51278" lon="6.59977">
        <ele>1310.41</ele>
        <time>2015-02-08T07:56:16Z</time>
      </trkpt>
      <trkpt lat="45.5127" lon="6.59986">
        <ele>1310.9</ele>
        <time>2015-02-08T07:56:28Z</time>
      </trkpt>
      <trkpt lat="45.51266" lon="6.5999">
        <ele>1311.38</ele>
        <time>2015-02-08T07:56:36Z</time>
      </trkpt>
      <trkpt lat="45.51263" lon="6.59994">
        <ele>1311.86</ele>
        <time>2015-02-08T07:56:39Z</time>
      </trkpt>
      <trkpt lat="45.5125" lon="6.60003">
        <ele>1312.82</ele>
        <time>2015-02-08T07:56:50Z</time>
      </trkpt>
      <trkpt lat="45.51236" lon="6.60013">
        <ele>1314.26</ele>
        <time>2015-02-08T07:57:05Z</time>
      </trkpt>
      <trkpt lat="45.51227" lon="6.6002">
        <ele>1315.22</ele>
        <time>2015-02-08T07:57:18Z</time>
      </trkpt>
      <trkpt lat="45.51216" lon="6.60028">
        <ele>1316.66</ele>
        <time>2015-02-08T07:57:32Z</time>
      </trkpt>
      <trkpt lat="45.51202" lon="6.60035">
        <ele>1318.1</ele>
        <time>2015-02-08T07:57:47Z</time>
      </trkpt>
      <trkpt lat="45.51191" lon="6.60041">
        <ele>1319.07</ele>
        <time>2015-02-08T07:58:00Z</time>
      </trkpt>
      <trkpt lat="45.51184" lon="6.60045">
        <ele>1319.55</ele>
        <time>2015-02-08T07:58:09Z</time>
      </trkpt>
      <trkpt lat="45.51179" lon="6.60052">
        <ele>1320.51</ele>
        <time>2015-02-08T07:58:16Z</time>
      </trkpt>
      <trkpt lat="45.51176" lon="6.60056">
        <ele>1320.51</ele>
        <time>2015-02-08T07:58:20Z</time>
      </trkpt>
      <trkpt lat="45.51168" lon="6.60064">
        <ele>1321.47</ele>
        <time>2015-02-08T07:58:30Z</time>
      </trkpt>
      <trkpt lat="45.51161" lon="6.60071">
        <ele>1322.43</ele>
        <time>2015-02-08T07:58:38Z</time>
      </trkpt>
      <trkpt lat="45.51154" lon="6.60076">
        <ele>1322.91</ele>
        <time>2015-02-08T07:58:45Z</time>
      </trkpt>
      <trkpt lat="45.51141" lon="6.60085">
        <ele>1325.31</ele>
        <time>2015-02-08T07:59:00Z</time>
      </trkpt>
      <trkpt lat="45.51128" lon="6.6009">
        <ele>1326.76</ele>
        <time>2015-02-08T07:59:13Z</time>
      </trkpt>
      <trkpt lat="45.51119" lon="6.60095">
        <ele>1327.72</ele>
        <time>2015-02-08T07:59:26Z</time>
      </trkpt>
      <trkpt lat="45.51111" lon="6.60095">
        <ele>1329.16</ele>
        <time>2015-02-08T07:59:36Z</time>
      </trkpt>
      <trkpt lat="45.51104" lon="6.60095">
        <ele>1329.64</ele>
        <time>2015-02-08T07:59:45Z</time>
      </trkpt>
      <trkpt lat="45.51089" lon="6.60094">
        <ele>1331.08</ele>
        <time>2015-02-08T07:59:59Z</time>
      </trkpt>
      <trkpt lat="45.51078" lon="6.60093">
        <ele>1332.52</ele>
        <time>2015-02-08T08:00:11Z</time>
      </trkpt>
      <trkpt lat="45.51077" lon="6.60092">
        <ele>1332.52</ele>
        <time>2015-02-08T08:00:12Z</time>
      </trkpt>
      <trkpt lat="45.51066" lon="6.60088">
        <ele>1333.49</ele>
        <time>2015-02-08T08:00:24Z</time>
      </trkpt>
      <trkpt lat="45.51056" lon="6.60082">
        <ele>1335.41</ele>
        <time>2015-02-08T08:00:38Z</time>
      </trkpt>
      <trkpt lat="45.51047" lon="6.60075">
        <ele>1336.37</ele>
        <time>2015-02-08T08:00:50Z</time>
      </trkpt>
      <trkpt lat="45.51033" lon="6.60065">
        <ele>1337.81</ele>
        <time>2015-02-08T08:01:03Z</time>
      </trkpt>
      <trkpt lat="45.51021" lon="6.60059">
        <ele>1338.77</ele>
        <time>2015-02-08T08:01:16Z</time>
      </trkpt>
      <trkpt lat="45.51008" lon="6.60051">
        <ele>1340.22</ele>
        <time>2015-02-08T08:01:30Z</time>
      </trkpt>
      <trkpt lat="45.50998" lon="6.60045">
        <ele>1341.18</ele>
        <time>2015-02-08T08:01:42Z</time>
      </trkpt>
      <trkpt lat="45.50985" lon="6.6004">
        <ele>1342.14</ele>
        <time>2015-02-08T08:01:54Z</time>
      </trkpt>
      <trkpt lat="45.50977" lon="6.60036">
        <ele>1342.62</ele>
        <time>2015-02-08T08:02:02Z</time>
      </trkpt>
      <trkpt lat="45.50961" lon="6.60024">
        <ele>1344.06</ele>
        <time>2015-02-08T08:02:15Z</time>
      </trkpt>
      <trkpt lat="45.5095" lon="6.60015">
        <ele>1345.02</ele>
        <time>2015-02-08T08:02:29Z</time>
      </trkpt>
      <trkpt lat="45.50939" lon="6.60002">
        <ele>1345.98</ele>
        <time>2015-02-08T08:02:41Z</time>
      </trkpt>
      <trkpt lat="45.50936" lon="6.59996">
        <ele>1346.46</ele>
        <time>2015-02-08T08:02:46Z</time>
      </trkpt>
      <trkpt lat="45.50929" lon="6.59983">
        <ele>1346.94</ele>
        <time>2015-02-08T08:02:59Z</time>
      </trkpt>
      <trkpt lat="45.50922" lon="6.59966">
        <ele>1347.91</ele>
        <time>2015-02-08T08:03:12Z</time>
      </trkpt>
      <trkpt lat="45.50919" lon="6.59949">
        <ele>1349.35</ele>
        <time>2015-02-08T08:03:24Z</time>
      </trkpt>
      <trkpt lat="45.50915" lon="6.59935">
        <ele>1349.83</ele>
        <time>2015-02-08T08:03:37Z</time>
      </trkpt>
      <trkpt lat="45.50913" lon="6.59933">
        <ele>1350.31</ele>
        <time>2015-02-08T08:03:51Z</time>
      </trkpt>
      <trkpt lat="45.50911" lon="6.59928">
        <ele>1350.31</ele>
        <time>2015-02-08T08:04:01Z</time>
      </trkpt>
      <trkpt lat="45.50904" lon="6.59917">
        <ele>1353.67</ele>
        <time>2015-02-08T08:04:16Z</time>
      </trkpt>
      <trkpt lat="45.50895" lon="6.59911">
        <ele>1355.12</ele>
        <time>2015-02-08T08:04:31Z</time>
      </trkpt>
      <trkpt lat="45.50893" lon="6.5991">
        <ele>1355.6</ele>
        <time>2015-02-08T08:04:34Z</time>
      </trkpt>
      <trkpt lat="45.50886" lon="6.59908">
        <ele>1357.52</ele>
        <time>2015-02-08T08:04:49Z</time>
      </trkpt>
      <trkpt lat="45.50875" lon="6.59902">
        <ele>1359.92</ele>
        <time>2015-02-08T08:05:01Z</time>
      </trkpt>
      <trkpt lat="45.50874" lon="6.59901">
        <ele>1360.4</ele>
        <time>2015-02-08T08:05:05Z</time>
      </trkpt>
      <trkpt lat="45.50866" lon="6.59896">
        <ele>1362.33</ele>
        <time>2015-02-08T08:05:19Z</time>
      </trkpt>
      <trkpt lat="45.50865" lon="6.59897">
        <ele>1362.81</ele>
        <time>2015-02-08T08:05:22Z</time>
      </trkpt>
      <trkpt lat="45.5086" lon="6.59903">
        <ele>1364.73</ele>
        <time>2015-02-08T08:05:35Z</time>
      </trkpt>
      <trkpt lat="45.50857" lon="6.59904">
        <ele>1366.17</ele>
        <time>2015-02-08T08:05:48Z</time>
      </trkpt>
      <trkpt lat="45.5085" lon="6.59903">
        <ele>1368.09</ele>
        <time>2015-02-08T08:06:00Z</time>
      </trkpt>
      <trkpt lat="45.5084" lon="6.59889">
        <ele>1370.02</ele>
        <time>2015-02-08T08:06:14Z</time>
      </trkpt>
      <trkpt lat="45.50832" lon="6.59878">
        <ele>1370.98</ele>
        <time>2015-02-08T08:06:27Z</time>
      </trkpt>
      <trkpt lat="45.50828" lon="6.59872">
        <ele>1371.94</ele>
        <time>2015-02-08T08:06:40Z</time>
      </trkpt>
      <trkpt lat="45.50822" lon="6.59864">
        <ele>1373.86</ele>
        <time>2015-02-08T08:06:54Z</time>
      </trkpt>
      <trkpt lat="45.50815" lon="6.59859">
        <ele>1375.78</ele>
        <time>2015-02-08T08:07:07Z</time>
      </trkpt>
      <trkpt lat="45.50811" lon="6.59857">
        <ele>1376.75</ele>
        <time>2015-02-08T08:07:14Z</time>
      </trkpt>
      <trkpt lat="45.50801" lon="6.59849">
        <ele>1378.19</ele>
        <time>2015-02-08T08:07:30Z</time>
      </trkpt>
      <trkpt lat="45.50793" lon="6.59845">
        <ele>1379.63</ele>
        <time>2015-02-08T08:07:45Z</time>
      </trkpt>
      <trkpt lat="45.50785" lon="6.59842">
        <ele>1380.11</ele>
        <time>2015-02-08T08:07:59Z</time>
      </trkpt>
      <trkpt lat="45.50773" lon="6.59843">
        <ele>1383.47</ele>
        <time>2015-02-08T08:08:15Z</time>
      </trkpt>
      <trkpt lat="45.50763" lon="6.59842">
        <ele>1386.84</ele>
        <time>2015-02-08T08:08:27Z</time>
      </trkpt>
      <trkpt lat="45.50758" lon="6.59841">
        <ele>1387.32</ele>
        <time>2015-02-08T08:08:41Z</time>
      </trkpt>
      <trkpt lat="45.50752" lon="6.59837">
        <ele>1390.68</ele>
        <time>2015-02-08T08:08:54Z</time>
      </trkpt>
      <trkpt lat="45.50749" lon="6.59834">
        <ele>1392.13</ele>
        <time>2015-02-08T08:09:02Z</time>
      </trkpt>
      <trkpt lat="45.50748" lon="6.59834">
        <ele>1392.61</ele>
        <time>2015-02-08T08:09:17Z</time>
      </trkpt>
      <trkpt lat="45.50746" lon="6.59832">
        <ele>1393.09</ele>
        <time>2015-02-08T08:09:30Z</time>
      </trkpt>
      <trkpt lat="45.50743" lon="6.59828">
        <ele>1394.05</ele>
        <time>2015-02-08T08:09:43Z</time>
      </trkpt>
      <trkpt lat="45.50741" lon="6.59839">
        <ele>1395.97</ele>
        <time>2015-02-08T08:09:57Z</time>
      </trkpt>
      <trkpt lat="45.50739" lon="6.59849">
        <ele>1397.41</ele>
        <time>2015-02-08T08:10:09Z</time>
      </trkpt>
      <trkpt lat="45.50735" lon="6.59855">
        <ele>1398.37</ele>
        <time>2015-02-08T08:10:22Z</time>
      </trkpt>
      <trkpt lat="45.50733" lon="6.59858">
        <ele>1399.34</ele>
        <time>2015-02-08T08:10:34Z</time>
      </trkpt>
      <trkpt lat="45.50727" lon="6.59848">
        <ele>1401.74</ele>
        <time>2015-02-08T08:10:49Z</time>
      </trkpt>
      <trkpt lat="45.50723" lon="6.5984">
        <ele>1403.18</ele>
        <time>2015-02-08T08:11:05Z</time>
      </trkpt>
      <trkpt lat="45.50721" lon="6.59834">
        <ele>1404.62</ele>
        <time>2015-02-08T08:11:20Z</time>
      </trkpt>
      <trkpt lat="45.50721" lon="6.59833">
        <ele>1404.62</ele>
        <time>2015-02-08T08:11:21Z</time>
      </trkpt>
      <trkpt lat="45.50717" lon="6.5984">
        <ele>1406.55</ele>
        <time>2015-02-08T08:11:33Z</time>
      </trkpt>
      <trkpt lat="45.50715" lon="6.5985">
        <ele>1407.99</ele>
        <time>2015-02-08T08:11:46Z</time>
      </trkpt>
      <trkpt lat="45.50713" lon="6.59856">
        <ele>1409.43</ele>
        <time>2015-02-08T08:11:57Z</time>
      </trkpt>
      <trkpt lat="45.50712" lon="6.59859">
        <ele>1410.87</ele>
        <time>2015-02-08T08:12:12Z</time>
      </trkpt>
      <trkpt lat="45.5071" lon="6.59854">
        <ele>1412.79</ele>
        <time>2015-02-08T08:12:23Z</time>
      </trkpt>
      <trkpt lat="45.50706" lon="6.59848">
        <ele>1413.28</ele>
        <time>2015-02-08T08:12:36Z</time>
      </trkpt>
      <trkpt lat="45.50704" lon="6.59844">
        <ele>1414.72</ele>
        <time>2015-02-08T08:12:42Z</time>
      </trkpt>
      <trkpt lat="45.50701" lon="6.59849">
        <ele>1416.16</ele>
        <time>2015-02-08T08:12:52Z</time>
      </trkpt>
      <trkpt lat="45.507" lon="6.59857">
        <ele>1417.6</ele>
        <time>2015-02-08T08:13:04Z</time>
      </trkpt>
      <trkpt lat="45.50699" lon="6.59863">
        <ele>1419.04</ele>
        <time>2015-02-08T08:13:17Z</time>
      </trkpt>
      <trkpt lat="45.50697" lon="6.59865">
        <ele>1419.52</ele>
        <time>2015-02-08T08:13:26Z</time>
      </trkpt>
      <trkpt lat="45.50695" lon="6.59857">
        <ele>1420.97</ele>
        <time>2015-02-08T08:13:38Z</time>
      </trkpt>
      <trkpt lat="45.5069" lon="6.59848">
        <ele>1422.41</ele>
        <time>2015-02-08T08:13:51Z</time>
      </trkpt>
      <trkpt lat="45.50686" lon="6.59856">
        <ele>1423.85</ele>
        <time>2015-02-08T08:14:02Z</time>
      </trkpt>
      <trkpt lat="45.50684" lon="6.59861">
        <ele>1425.77</ele>
        <time>2015-02-08T08:14:13Z</time>
      </trkpt>
      <trkpt lat="45.50682" lon="6.59865">
        <ele>1426.25</ele>
        <time>2015-02-08T08:14:24Z</time>
      </trkpt>
      <trkpt lat="45.50681" lon="6.59868">
        <ele>1427.21</ele>
        <time>2015-02-08T08:14:38Z</time>
      </trkpt>
      <trkpt lat="45.50677" lon="6.59859">
        <ele>1429.62</ele>
        <time>2015-02-08T08:14:50Z</time>
      </trkpt>
      <trkpt lat="45.50673" lon="6.59855">
        <ele>1430.58</ele>
        <time>2015-02-08T08:15:03Z</time>
      </trkpt>
      <trkpt lat="45.50671" lon="6.59864">
        <ele>1432.5</ele>
        <time>2015-02-08T08:15:15Z</time>
      </trkpt>
      <trkpt lat="45.5067" lon="6.59867">
        <ele>1433.46</ele>
        <time>2015-02-08T08:15:22Z</time>
      </trkpt>
      <trkpt lat="45.5067" lon="6.59873">
        <ele>1434.42</ele>
        <time>2015-02-08T08:15:36Z</time>
      </trkpt>
      <trkpt lat="45.50669" lon="6.59875">
        <ele>1434.91</ele>
        <time>2015-02-08T08:15:41Z</time>
      </trkpt>
      <trkpt lat="45.50664" lon="6.5987">
        <ele>1436.83</ele>
        <time>2015-02-08T08:15:53Z</time>
      </trkpt>
      <trkpt lat="45.50658" lon="6.59863">
        <ele>1438.27</ele>
        <time>2015-02-08T08:16:07Z</time>
      </trkpt>
      <trkpt lat="45.50655" lon="6.5986">
        <ele>1439.23</ele>
        <time>2015-02-08T08:16:21Z</time>
      </trkpt>
      <trkpt lat="45.50653" lon="6.59866">
        <ele>1441.15</ele>
        <time>2015-02-08T08:16:33Z</time>
      </trkpt>
      <trkpt lat="45.50653" lon="6.59873">
        <ele>1442.6</ele>
        <time>2015-02-08T08:16:46Z</time>
      </trkpt>
      <trkpt lat="45.50654" lon="6.59875">
        <ele>1442.6</ele>
        <time>2015-02-08T08:16:53Z</time>
      </trkpt>
      <trkpt lat="45.50652" lon="6.59877">
        <ele>1444.04</ele>
        <time>2015-02-08T08:17:01Z</time>
      </trkpt>
      <trkpt lat="45.50644" lon="6.59871">
        <ele>1446.44</ele>
        <time>2015-02-08T08:17:16Z</time>
      </trkpt>
      <trkpt lat="45.50639" lon="6.59868">
        <ele>1448.36</ele>
        <time>2015-02-08T08:17:28Z</time>
      </trkpt>
      <trkpt lat="45.50634" lon="6.59864">
        <ele>1449.81</ele>
        <time>2015-02-08T08:17:41Z</time>
      </trkpt>
      <trkpt lat="45.5063" lon="6.59863">
        <ele>1450.77</ele>
        <time>2015-02-08T08:17:54Z</time>
      </trkpt>
      <trkpt lat="45.50626" lon="6.59867">
        <ele>1452.69</ele>
        <time>2015-02-08T08:18:07Z</time>
      </trkpt>
      <trkpt lat="45.5063" lon="6.59874">
        <ele>1454.13</ele>
        <time>2015-02-08T08:18:20Z</time>
      </trkpt>
      <trkpt lat="45.5063" lon="6.59883">
        <ele>1456.05</ele>
        <time>2015-02-08T08:18:32Z</time>
      </trkpt>
      <trkpt lat="45.5063" lon="6.5989">
        <ele>1457.5</ele>
        <time>2015-02-08T08:18:44Z</time>
      </trkpt>
      <trkpt lat="45.50631" lon="6.59893">
        <ele>1457.98</ele>
        <time>2015-02-08T08:18:52Z</time>
      </trkpt>
      <trkpt lat="45.50632" lon="6.59907">
        <ele>1460.86</ele>
        <time>2015-02-08T08:19:04Z</time>
      </trkpt>
      <trkpt lat="45.50631" lon="6.59917">
        <ele>1462.78</ele>
        <time>2015-02-08T08:19:18Z</time>
      </trkpt>
      <trkpt lat="45.50626" lon="6.59926">
        <ele>1466.15</ele>
        <time>2015-02-08T08:19:30Z</time>
      </trkpt>
      <trkpt lat="45.50623" lon="6.59934">
        <ele>1468.55</ele>
        <time>2015-02-08T08:19:38Z</time>
      </trkpt>
      <trkpt lat="45.50621" lon="6.59941">
        <ele>1470.47</ele>
        <time>2015-02-08T08:19:43Z</time>
      </trkpt>
      <trkpt lat="45.50618" lon="6.59955">
        <ele>1474.32</ele>
        <time>2015-02-08T08:19:54Z</time>
      </trkpt>
      <trkpt lat="45.50617" lon="6.59957">
        <ele>1474.8</ele>
        <time>2015-02-08T08:19:56Z</time>
      </trkpt>
      <trkpt lat="45.50614" lon="6.59967">
        <ele>1477.2</ele>
        <time>2015-02-08T08:20:04Z</time>
      </trkpt>
      <trkpt lat="45.50607" lon="6.59982">
        <ele>1480.57</ele>
        <time>2015-02-08T08:20:17Z</time>
      </trkpt>
      <trkpt lat="45.50603" lon="6.5999">
        <ele>1482.01</ele>
        <time>2015-02-08T08:20:25Z</time>
      </trkpt>
      <trkpt lat="45.50602" lon="6.60003">
        <ele>1484.41</ele>
        <time>2015-02-08T08:20:39Z</time>
      </trkpt>
      <trkpt lat="45.50599" lon="6.60009">
        <ele>1485.37</ele>
        <time>2015-02-08T08:20:53Z</time>
      </trkpt>
      <trkpt lat="45.50596" lon="6.60013">
        <ele>1486.34</ele>
        <time>2015-02-08T08:20:59Z</time>
      </trkpt>
      <trkpt lat="45.50592" lon="6.60022">
        <ele>1488.26</ele>
        <time>2015-02-08T08:21:12Z</time>
      </trkpt>
      <trkpt lat="45.50589" lon="6.60029">
        <ele>1489.7</ele>
        <time>2015-02-08T08:21:23Z</time>
      </trkpt>
      <trkpt lat="45.50587" lon="6.60033">
        <ele>1490.66</ele>
        <time>2015-02-08T08:21:30Z</time>
      </trkpt>
      <trkpt lat="45.50581" lon="6.60041">
        <ele>1492.1</ele>
        <time>2015-02-08T08:21:40Z</time>
      </trkpt>
      <trkpt lat="45.50575" lon="6.60053">
        <ele>1494.51</ele>
        <time>2015-02-08T08:21:54Z</time>
      </trkpt>
      <trkpt lat="45.50574" lon="6.60057">
        <ele>1494.99</ele>
        <time>2015-02-08T08:21:57Z</time>
      </trkpt>
      <trkpt lat="45.50571" lon="6.6007">
        <ele>1496.91</ele>
        <time>2015-02-08T08:22:10Z</time>
      </trkpt>
      <trkpt lat="45.5057" lon="6.60082">
        <ele>1499.31</ele>
        <time>2015-02-08T08:22:24Z</time>
      </trkpt>
      <trkpt lat="45.50572" lon="6.60094">
        <ele>1501.72</ele>
        <time>2015-02-08T08:22:38Z</time>
      </trkpt>
      <trkpt lat="45.50575" lon="6.60103">
        <ele>1503.16</ele>
        <time>2015-02-08T08:22:50Z</time>
      </trkpt>
      <trkpt lat="45.50579" lon="6.6011">
        <ele>1504.6</ele>
        <time>2015-02-08T08:23:05Z</time>
      </trkpt>
      <trkpt lat="45.50582" lon="6.60118">
        <ele>1506.04</ele>
        <time>2015-02-08T08:23:17Z</time>
      </trkpt>
      <trkpt lat="45.50583" lon="6.60126">
        <ele>1507.97</ele>
        <time>2015-02-08T08:23:28Z</time>
      </trkpt>
      <trkpt lat="45.50584" lon="6.60131">
        <ele>1508.93</ele>
        <time>2015-02-08T08:23:41Z</time>
      </trkpt>
      <trkpt lat="45.50586" lon="6.60133">
        <ele>1509.41</ele>
        <time>2015-02-08T08:23:55Z</time>
      </trkpt>
      <trkpt lat="45.5058" lon="6.60138">
        <ele>1510.85</ele>
        <time>2015-02-08T08:24:07Z</time>
      </trkpt>
      <trkpt lat="45.50578" lon="6.60144">
        <ele>1511.81</ele>
        <time>2015-02-08T08:24:20Z</time>
      </trkpt>
      <trkpt lat="45.50578" lon="6.60144">
        <ele>1511.81</ele>
        <time>2015-02-08T08:24:36Z</time>
      </trkpt>
      <trkpt lat="45.50578" lon="6.60144">
        <ele>1511.33</ele>
        <time>2015-02-08T08:24:56Z</time>
      </trkpt>
      <trkpt lat="45.50578" lon="6.60145">
        <ele>1511.33</ele>
        <time>2015-02-08T08:25:20Z</time>
      </trkpt>
      <trkpt lat="45.50579" lon="6.6015">
        <ele>1512.29</ele>
        <time>2015-02-08T08:25:49Z</time>
      </trkpt>
      <trkpt lat="45.50578" lon="6.60157">
        <ele>1512.77</ele>
        <time>2015-02-08T08:25:54Z</time>
      </trkpt>
      <trkpt lat="45.50574" lon="6.60164">
        <ele>1514.69</ele>
        <time>2015-02-08T08:26:08Z</time>
      </trkpt>
      <trkpt lat="45.50571" lon="6.60172">
        <ele>1517.1</ele>
        <time>2015-02-08T08:26:23Z</time>
      </trkpt>
      <trkpt lat="45.50567" lon="6.60179">
        <ele>1518.54</ele>
        <time>2015-02-08T08:26:37Z</time>
      </trkpt>
      <trkpt lat="45.50564" lon="6.60185">
        <ele>1519.98</ele>
        <time>2015-02-08T08:26:49Z</time>
      </trkpt>
      <trkpt lat="45.50566" lon="6.60192">
        <ele>1521.9</ele>
        <time>2015-02-08T08:27:01Z</time>
      </trkpt>
      <trkpt lat="45.50565" lon="6.60196">
        <ele>1523.35</ele>
        <time>2015-02-08T08:27:11Z</time>
      </trkpt>
      <trkpt lat="45.5056" lon="6.60201">
        <ele>1524.79</ele>
        <time>2015-02-08T08:27:24Z</time>
      </trkpt>
      <trkpt lat="45.50557" lon="6.60209">
        <ele>1526.23</ele>
        <time>2015-02-08T08:27:37Z</time>
      </trkpt>
      <trkpt lat="45.50554" lon="6.60215">
        <ele>1527.67</ele>
        <time>2015-02-08T08:27:50Z</time>
      </trkpt>
      <trkpt lat="45.50548" lon="6.60222">
        <ele>1529.59</ele>
        <time>2015-02-08T08:28:05Z</time>
      </trkpt>
      <trkpt lat="45.50544" lon="6.60226">
        <ele>1531.04</ele>
        <time>2015-02-08T08:28:17Z</time>
      </trkpt>
      <trkpt lat="45.50541" lon="6.6023">
        <ele>1532</ele>
        <time>2015-02-08T08:28:29Z</time>
      </trkpt>
      <trkpt lat="45.50546" lon="6.60237">
        <ele>1534.4</ele>
        <time>2015-02-08T08:28:42Z</time>
      </trkpt>
      <trkpt lat="45.50549" lon="6.60242">
        <ele>1535.36</ele>
        <time>2015-02-08T08:28:54Z</time>
      </trkpt>
      <trkpt lat="45.50547" lon="6.6025">
        <ele>1537.77</ele>
        <time>2015-02-08T08:29:07Z</time>
      </trkpt>
      <trkpt lat="45.50542" lon="6.60252">
        <ele>1538.73</ele>
        <time>2015-02-08T08:29:17Z</time>
      </trkpt>
      <trkpt lat="45.5053" lon="6.60249">
        <ele>1540.65</ele>
        <time>2015-02-08T08:29:32Z</time>
      </trkpt>
      <trkpt lat="45.50531" lon="6.60261">
        <ele>1542.57</ele>
        <time>2015-02-08T08:29:47Z</time>
      </trkpt>
      <trkpt lat="45.50537" lon="6.60271">
        <ele>1545.46</ele>
        <time>2015-02-08T08:30:02Z</time>
      </trkpt>
      <trkpt lat="45.5054" lon="6.60278">
        <ele>1546.9</ele>
        <time>2015-02-08T08:30:15Z</time>
      </trkpt>
      <trkpt lat="45.50548" lon="6.60287">
        <ele>1548.82</ele>
        <time>2015-02-08T08:30:31Z</time>
      </trkpt>
      <trkpt lat="45.50553" lon="6.60296">
        <ele>1550.74</ele>
        <time>2015-02-08T08:30:47Z</time>
      </trkpt>
      <trkpt lat="45.50556" lon="6.60305">
        <ele>1552.67</ele>
        <time>2015-02-08T08:31:02Z</time>
      </trkpt>
      <trkpt lat="45.50554" lon="6.60313">
        <ele>1555.07</ele>
        <time>2015-02-08T08:31:16Z</time>
      </trkpt>
      <trkpt lat="45.50557" lon="6.60319">
        <ele>1557.47</ele>
        <time>2015-02-08T08:31:30Z</time>
      </trkpt>
      <trkpt lat="45.50564" lon="6.60321">
        <ele>1559.4</ele>
        <time>2015-02-08T08:31:44Z</time>
      </trkpt>
      <trkpt lat="45.50568" lon="6.60325">
        <ele>1560.36</ele>
        <time>2015-02-08T08:31:55Z</time>
      </trkpt>
      <trkpt lat="45.50573" lon="6.60332">
        <ele>1562.76</ele>
        <time>2015-02-08T08:32:08Z</time>
      </trkpt>
      <trkpt lat="45.50575" lon="6.60338">
        <ele>1564.2</ele>
        <time>2015-02-08T08:32:21Z</time>
      </trkpt>
      <trkpt lat="45.50582" lon="6.60344">
        <ele>1567.09</ele>
        <time>2015-02-08T08:32:35Z</time>
      </trkpt>
      <trkpt lat="45.50586" lon="6.60345">
        <ele>1568.05</ele>
        <time>2015-02-08T08:32:47Z</time>
      </trkpt>
      <trkpt lat="45.50587" lon="6.6035">
        <ele>1569.97</ele>
        <time>2015-02-08T08:32:59Z</time>
      </trkpt>
      <trkpt lat="45.50592" lon="6.60352">
        <ele>1571.41</ele>
        <time>2015-02-08T08:33:12Z</time>
      </trkpt>
      <trkpt lat="45.50596" lon="6.60358">
        <ele>1573.33</ele>
        <time>2015-02-08T08:33:25Z</time>
      </trkpt>
      <trkpt lat="45.50596" lon="6.60358">
        <ele>1573.33</ele>
        <time>2015-02-08T08:33:48Z</time>
      </trkpt>
      <trkpt lat="45.50595" lon="6.60359">
        <ele>1573.33</ele>
        <time>2015-02-08T08:34:16Z</time>
      </trkpt>
      <trkpt lat="45.50595" lon="6.6036">
        <ele>1571.89</ele>
        <time>2015-02-08T08:34:41Z</time>
      </trkpt>
      <trkpt lat="45.50596" lon="6.60357">
        <ele>1571.41</ele>
        <time>2015-02-08T08:35:00Z</time>
      </trkpt>
      <trkpt lat="45.50596" lon="6.60356">
        <ele>1570.93</ele>
        <time>2015-02-08T08:35:22Z</time>
      </trkpt>
      <trkpt lat="45.50595" lon="6.60356">
        <ele>1570.93</ele>
        <time>2015-02-08T08:35:56Z</time>
      </trkpt>
      <trkpt lat="45.50595" lon="6.60357">
        <ele>1570.45</ele>
        <time>2015-02-08T08:36:19Z</time>
      </trkpt>
      <trkpt lat="45.50598" lon="6.60359">
        <ele>1569.97</ele>
        <time>2015-02-08T08:36:48Z</time>
      </trkpt>
      <trkpt lat="45.506" lon="6.60362">
        <ele>1571.41</ele>
        <time>2015-02-08T08:37:18Z</time>
      </trkpt>
      <trkpt lat="45.50591" lon="6.60366">
        <ele>1574.78</ele>
        <time>2015-02-08T08:37:33Z</time>
      </trkpt>
      <trkpt lat="45.50581" lon="6.60366">
        <ele>1577.66</ele>
        <time>2015-02-08T08:37:47Z</time>
      </trkpt>
      <trkpt lat="45.50576" lon="6.6037">
        <ele>1581.03</ele>
        <time>2015-02-08T08:38:01Z</time>
      </trkpt>
      <trkpt lat="45.50582" lon="6.60377">
        <ele>1583.43</ele>
        <time>2015-02-08T08:38:15Z</time>
      </trkpt>
      <trkpt lat="45.50591" lon="6.60381">
        <ele>1585.83</ele>
        <time>2015-02-08T08:38:27Z</time>
      </trkpt>
      <trkpt lat="45.50598" lon="6.60388">
        <ele>1587.27</ele>
        <time>2015-02-08T08:38:42Z</time>
      </trkpt>
      <trkpt lat="45.50604" lon="6.60397">
        <ele>1590.64</ele>
        <time>2015-02-08T08:38:57Z</time>
      </trkpt>
      <trkpt lat="45.50607" lon="6.60403">
        <ele>1592.56</ele>
        <time>2015-02-08T08:39:10Z</time>
      </trkpt>
      <trkpt lat="45.50611" lon="6.60406">
        <ele>1594</ele>
        <time>2015-02-08T08:39:21Z</time>
      </trkpt>
      <trkpt lat="45.50616" lon="6.60415">
        <ele>1596.41</ele>
        <time>2015-02-08T08:39:34Z</time>
      </trkpt>
      <trkpt lat="45.50619" lon="6.60419">
        <ele>1597.85</ele>
        <time>2015-02-08T08:39:47Z</time>
      </trkpt>
      <trkpt lat="45.50625" lon="6.60425">
        <ele>1600.25</ele>
        <time>2015-02-08T08:40:00Z</time>
      </trkpt>
      <trkpt lat="45.50629" lon="6.60432">
        <ele>1602.17</ele>
        <time>2015-02-08T08:40:14Z</time>
      </trkpt>
      <trkpt lat="45.50634" lon="6.60437">
        <ele>1604.1</ele>
        <time>2015-02-08T08:40:27Z</time>
      </trkpt>
      <trkpt lat="45.50639" lon="6.60441">
        <ele>1605.54</ele>
        <time>2015-02-08T08:40:38Z</time>
      </trkpt>
      <trkpt lat="45.50643" lon="6.60447">
        <ele>1607.46</ele>
        <time>2015-02-08T08:40:51Z</time>
      </trkpt>
      <trkpt lat="45.50646" lon="6.60454">
        <ele>1609.38</ele>
        <time>2015-02-08T08:41:02Z</time>
      </trkpt>
      <trkpt lat="45.50652" lon="6.60454">
        <ele>1610.83</ele>
        <time>2015-02-08T08:41:14Z</time>
      </trkpt>
      <trkpt lat="45.50658" lon="6.60459">
        <ele>1612.75</ele>
        <time>2015-02-08T08:41:27Z</time>
      </trkpt>
      <trkpt lat="45.50654" lon="6.60463">
        <ele>1614.67</ele>
        <time>2015-02-08T08:41:41Z</time>
      </trkpt>
      <trkpt lat="45.50646" lon="6.60463">
        <ele>1616.11</ele>
        <time>2015-02-08T08:41:54Z</time>
      </trkpt>
      <trkpt lat="45.50638" lon="6.60465">
        <ele>1618.52</ele>
        <time>2015-02-08T08:42:09Z</time>
      </trkpt>
      <trkpt lat="45.50629" lon="6.60465">
        <ele>1619.96</ele>
        <time>2015-02-08T08:42:25Z</time>
      </trkpt>
      <trkpt lat="45.50617" lon="6.60463">
        <ele>1621.4</ele>
        <time>2015-02-08T08:42:40Z</time>
      </trkpt>
      <trkpt lat="45.50609" lon="6.60464">
        <ele>1623.32</ele>
        <time>2015-02-08T08:42:55Z</time>
      </trkpt>
      <trkpt lat="45.50603" lon="6.60464">
        <ele>1624.77</ele>
        <time>2015-02-08T08:43:07Z</time>
      </trkpt>
      <trkpt lat="45.50595" lon="6.60466">
        <ele>1626.21</ele>
        <time>2015-02-08T08:43:22Z</time>
      </trkpt>
      <trkpt lat="45.5059" lon="6.60468">
        <ele>1626.69</ele>
        <time>2015-02-08T08:43:35Z</time>
      </trkpt>
      <trkpt lat="45.50585" lon="6.60471">
        <ele>1627.65</ele>
        <time>2015-02-08T08:43:43Z</time>
      </trkpt>
      <trkpt lat="45.50569" lon="6.60472">
        <ele>1629.09</ele>
        <time>2015-02-08T08:43:57Z</time>
      </trkpt>
      <trkpt lat="45.50558" lon="6.60469">
        <ele>1629.57</ele>
        <time>2015-02-08T08:44:10Z</time>
      </trkpt>
      <trkpt lat="45.50551" lon="6.60466">
        <ele>1631.01</ele>
        <time>2015-02-08T08:44:22Z</time>
      </trkpt>
      <trkpt lat="45.50553" lon="6.60472">
        <ele>1632.94</ele>
        <time>2015-02-08T08:44:34Z</time>
      </trkpt>
      <trkpt lat="45.50564" lon="6.60478">
        <ele>1633.9</ele>
        <time>2015-02-08T08:44:50Z</time>
      </trkpt>
      <trkpt lat="45.50572" lon="6.60485">
        <ele>1635.82</ele>
        <time>2015-02-08T08:45:02Z</time>
      </trkpt>
      <trkpt lat="45.50579" lon="6.60493">
        <ele>1637.26</ele>
        <time>2015-02-08T08:45:14Z</time>
      </trkpt>
      <trkpt lat="45.50587" lon="6.60497">
        <ele>1638.7</ele>
        <time>2015-02-08T08:45:28Z</time>
      </trkpt>
      <trkpt lat="45.50594" lon="6.60499">
        <ele>1640.63</ele>
        <time>2015-02-08T08:45:42Z</time>
      </trkpt>
      <trkpt lat="45.506" lon="6.60503">
        <ele>1642.55</ele>
        <time>2015-02-08T08:45:56Z</time>
      </trkpt>
      <trkpt lat="45.50605" lon="6.60506">
        <ele>1643.99</ele>
        <time>2015-02-08T08:46:06Z</time>
      </trkpt>
      <trkpt lat="45.5061" lon="6.6051">
        <ele>1644.95</ele>
        <time>2015-02-08T08:46:15Z</time>
      </trkpt>
      <trkpt lat="45.50608" lon="6.60516">
        <ele>1647.36</ele>
        <time>2015-02-08T08:46:28Z</time>
      </trkpt>
      <trkpt lat="45.506" lon="6.60513">
        <ele>1648.8</ele>
        <time>2015-02-08T08:46:39Z</time>
      </trkpt>
      <trkpt lat="45.50593" lon="6.60512">
        <ele>1650.24</ele>
        <time>2015-02-08T08:46:53Z</time>
      </trkpt>
      <trkpt lat="45.50586" lon="6.60516">
        <ele>1652.64</ele>
        <time>2015-02-08T08:47:08Z</time>
      </trkpt>
      <trkpt lat="45.50586" lon="6.60517">
        <ele>1653.12</ele>
        <time>2015-02-08T08:47:10Z</time>
      </trkpt>
      <trkpt lat="45.5058" lon="6.6052">
        <ele>1654.57</ele>
        <time>2015-02-08T08:47:23Z</time>
      </trkpt>
      <trkpt lat="45.50571" lon="6.60523">
        <ele>1656.97</ele>
        <time>2015-02-08T08:47:38Z</time>
      </trkpt>
      <trkpt lat="45.50564" lon="6.60524">
        <ele>1659.37</ele>
        <time>2015-02-08T08:47:51Z</time>
      </trkpt>
      <trkpt lat="45.50556" lon="6.60526">
        <ele>1661.3</ele>
        <time>2015-02-08T08:48:07Z</time>
      </trkpt>
      <trkpt lat="45.50549" lon="6.60528">
        <ele>1663.22</ele>
        <time>2015-02-08T08:48:21Z</time>
      </trkpt>
      <trkpt lat="45.50543" lon="6.6053">
        <ele>1665.14</ele>
        <time>2015-02-08T08:48:33Z</time>
      </trkpt>
      <trkpt lat="45.50535" lon="6.60528">
        <ele>1666.58</ele>
        <time>2015-02-08T08:48:47Z</time>
      </trkpt>
      <trkpt lat="45.50529" lon="6.60529">
        <ele>1668.51</ele>
        <time>2015-02-08T08:49:01Z</time>
      </trkpt>
      <trkpt lat="45.50521" lon="6.60533">
        <ele>1670.91</ele>
        <time>2015-02-08T08:49:14Z</time>
      </trkpt>
      <trkpt lat="45.50514" lon="6.60536">
        <ele>1672.35</ele>
        <time>2015-02-08T08:49:26Z</time>
      </trkpt>
      <trkpt lat="45.50508" lon="6.60545">
        <ele>1673.79</ele>
        <time>2015-02-08T08:49:41Z</time>
      </trkpt>
      <trkpt lat="45.50504" lon="6.6055">
        <ele>1676.2</ele>
        <time>2015-02-08T08:49:53Z</time>
      </trkpt>
      <trkpt lat="45.50501" lon="6.60556">
        <ele>1678.12</ele>
        <time>2015-02-08T08:50:06Z</time>
      </trkpt>
      <trkpt lat="45.50506" lon="6.60565">
        <ele>1680.04</ele>
        <time>2015-02-08T08:50:20Z</time>
      </trkpt>
      <trkpt lat="45.5051" lon="6.60562">
        <ele>1681.96</ele>
        <time>2015-02-08T08:50:35Z</time>
      </trkpt>
      <trkpt lat="45.50517" lon="6.60561">
        <ele>1683.41</ele>
        <time>2015-02-08T08:50:47Z</time>
      </trkpt>
      <trkpt lat="45.50523" lon="6.60558">
        <ele>1684.85</ele>
        <time>2015-02-08T08:51:00Z</time>
      </trkpt>
      <trkpt lat="45.50528" lon="6.60565">
        <ele>1687.73</ele>
        <time>2015-02-08T08:51:14Z</time>
      </trkpt>
      <trkpt lat="45.50523" lon="6.60568">
        <ele>1688.69</ele>
        <time>2015-02-08T08:51:28Z</time>
      </trkpt>
      <trkpt lat="45.50517" lon="6.6057">
        <ele>1690.62</ele>
        <time>2015-02-08T08:51:44Z</time>
      </trkpt>
      <trkpt lat="45.5051" lon="6.60578">
        <ele>1693.02</ele>
        <time>2015-02-08T08:52:01Z</time>
      </trkpt>
      <trkpt lat="45.50518" lon="6.60584">
        <ele>1694.94</ele>
        <time>2015-02-08T08:52:14Z</time>
      </trkpt>
      <trkpt lat="45.50522" lon="6.60583">
        <ele>1696.38</ele>
        <time>2015-02-08T08:52:27Z</time>
      </trkpt>
      <trkpt lat="45.50529" lon="6.60585">
        <ele>1698.31</ele>
        <time>2015-02-08T08:52:41Z</time>
      </trkpt>
      <trkpt lat="45.50537" lon="6.60588">
        <ele>1699.75</ele>
        <time>2015-02-08T08:52:56Z</time>
      </trkpt>
      <trkpt lat="45.50542" lon="6.60591">
        <ele>1701.19</ele>
        <time>2015-02-08T08:53:08Z</time>
      </trkpt>
      <trkpt lat="45.50546" lon="6.60597">
        <ele>1703.11</ele>
        <time>2015-02-08T08:53:20Z</time>
      </trkpt>
      <trkpt lat="45.50549" lon="6.60599">
        <ele>1704.07</ele>
        <time>2015-02-08T08:53:27Z</time>
      </trkpt>
      <trkpt lat="45.50554" lon="6.60604">
        <ele>1706</ele>
        <time>2015-02-08T08:53:40Z</time>
      </trkpt>
      <trkpt lat="45.5056" lon="6.6061">
        <ele>1707.44</ele>
        <time>2015-02-08T08:53:54Z</time>
      </trkpt>
      <trkpt lat="45.50567" lon="6.60613">
        <ele>1709.36</ele>
        <time>2015-02-08T08:54:07Z</time>
      </trkpt>
      <trkpt lat="45.50571" lon="6.60614">
        <ele>1710.8</ele>
        <time>2015-02-08T08:54:20Z</time>
      </trkpt>
      <trkpt lat="45.50576" lon="6.60616">
        <ele>1712.25</ele>
        <time>2015-02-08T08:54:33Z</time>
      </trkpt>
      <trkpt lat="45.50581" lon="6.60618">
        <ele>1714.65</ele>
        <time>2015-02-08T08:54:47Z</time>
      </trkpt>
      <trkpt lat="45.50587" lon="6.60622">
        <ele>1716.57</ele>
        <time>2015-02-08T08:55:01Z</time>
      </trkpt>
      <trkpt lat="45.50593" lon="6.60626">
        <ele>1718.01</ele>
        <time>2015-02-08T08:55:14Z</time>
      </trkpt>
      <trkpt lat="45.506" lon="6.60627">
        <ele>1719.94</ele>
        <time>2015-02-08T08:55:28Z</time>
      </trkpt>
      <trkpt lat="45.50605" lon="6.60631">
        <ele>1721.86</ele>
        <time>2015-02-08T08:55:41Z</time>
      </trkpt>
      <trkpt lat="45.50599" lon="6.60638">
        <ele>1723.78</ele>
        <time>2015-02-08T08:55:56Z</time>
      </trkpt>
      <trkpt lat="45.50593" lon="6.60641">
        <ele>1724.26</ele>
        <time>2015-02-08T08:56:06Z</time>
      </trkpt>
      <trkpt lat="45.50585" lon="6.60645">
        <ele>1725.7</ele>
        <time>2015-02-08T08:56:19Z</time>
      </trkpt>
      <trkpt lat="45.5058" lon="6.60651">
        <ele>1726.67</ele>
        <time>2015-02-08T08:56:32Z</time>
      </trkpt>
      <trkpt lat="45.50574" lon="6.60659">
        <ele>1728.59</ele>
        <time>2015-02-08T08:56:46Z</time>
      </trkpt>
      <trkpt lat="45.50568" lon="6.60663">
        <ele>1730.03</ele>
        <time>2015-02-08T08:56:58Z</time>
      </trkpt>
      <trkpt lat="45.50567" lon="6.60667">
        <ele>1730.99</ele>
        <time>2015-02-08T08:57:12Z</time>
      </trkpt>
      <trkpt lat="45.50566" lon="6.60664">
        <ele>1730.99</ele>
        <time>2015-02-08T08:57:28Z</time>
      </trkpt>
      <trkpt lat="45.5056" lon="6.60673">
        <ele>1733.39</ele>
        <time>2015-02-08T08:57:37Z</time>
      </trkpt>
      <trkpt lat="45.50551" lon="6.60685">
        <ele>1736.28</ele>
        <time>2015-02-08T08:57:51Z</time>
      </trkpt>
      <trkpt lat="45.50545" lon="6.60692">
        <ele>1738.2</ele>
        <time>2015-02-08T08:58:03Z</time>
      </trkpt>
      <trkpt lat="45.5054" lon="6.60697">
        <ele>1739.16</ele>
        <time>2015-02-08T08:58:20Z</time>
      </trkpt>
      <trkpt lat="45.50531" lon="6.60705">
        <ele>1741.57</ele>
        <time>2015-02-08T08:58:35Z</time>
      </trkpt>
      <trkpt lat="45.50523" lon="6.60707">
        <ele>1743.49</ele>
        <time>2015-02-08T08:58:48Z</time>
      </trkpt>
      <trkpt lat="45.50517" lon="6.60708">
        <ele>1744.93</ele>
        <time>2015-02-08T08:59:01Z</time>
      </trkpt>
      <trkpt lat="45.50513" lon="6.6071">
        <ele>1746.37</ele>
        <time>2015-02-08T08:59:12Z</time>
      </trkpt>
      <trkpt lat="45.50507" lon="6.60714">
        <ele>1747.81</ele>
        <time>2015-02-08T08:59:25Z</time>
      </trkpt>
      <trkpt lat="45.50503" lon="6.60719">
        <ele>1749.74</ele>
        <time>2015-02-08T08:59:36Z</time>
      </trkpt>
      <trkpt lat="45.505" lon="6.60726">
        <ele>1750.7</ele>
        <time>2015-02-08T08:59:50Z</time>
      </trkpt>
      <trkpt lat="45.505" lon="6.6073">
        <ele>1752.14</ele>
        <time>2015-02-08T09:00:01Z</time>
      </trkpt>
      <trkpt lat="45.50497" lon="6.60733">
        <ele>1753.1</ele>
        <time>2015-02-08T09:00:12Z</time>
      </trkpt>
      <trkpt lat="45.50494" lon="6.6074">
        <ele>1755.02</ele>
        <time>2015-02-08T09:00:25Z</time>
      </trkpt>
      <trkpt lat="45.50492" lon="6.60743">
        <ele>1755.99</ele>
        <time>2015-02-08T09:00:36Z</time>
      </trkpt>
      <trkpt lat="45.50489" lon="6.60747">
        <ele>1757.43</ele>
        <time>2015-02-08T09:00:47Z</time>
      </trkpt>
      <trkpt lat="45.50488" lon="6.60753">
        <ele>1759.35</ele>
        <time>2015-02-08T09:00:58Z</time>
      </trkpt>
      <trkpt lat="45.50485" lon="6.6076">
        <ele>1760.31</ele>
        <time>2015-02-08T09:01:09Z</time>
      </trkpt>
      <trkpt lat="45.50487" lon="6.60762">
        <ele>1760.79</ele>
        <time>2015-02-08T09:01:23Z</time>
      </trkpt>
      <trkpt lat="45.50486" lon="6.60762">
        <ele>1760.79</ele>
        <time>2015-02-08T09:01:53Z</time>
      </trkpt>
      <trkpt lat="45.50481" lon="6.60765">
        <ele>1761.75</ele>
        <time>2015-02-08T09:02:07Z</time>
      </trkpt>
      <trkpt lat="45.50473" lon="6.60772">
        <ele>1764.64</ele>
        <time>2015-02-08T09:02:24Z</time>
      </trkpt>
      <trkpt lat="45.5047" lon="6.60781">
        <ele>1766.08</ele>
        <time>2015-02-08T09:02:36Z</time>
      </trkpt>
      <trkpt lat="45.50465" lon="6.60784">
        <ele>1768.48</ele>
        <time>2015-02-08T09:02:50Z</time>
      </trkpt>
      <trkpt lat="45.50459" lon="6.60787">
        <ele>1769.44</ele>
        <time>2015-02-08T09:03:01Z</time>
      </trkpt>
      <trkpt lat="45.50455" lon="6.60789">
        <ele>1770.89</ele>
        <time>2015-02-08T09:03:10Z</time>
      </trkpt>
      <trkpt lat="45.50448" lon="6.60796">
        <ele>1772.33</ele>
        <time>2015-02-08T09:03:24Z</time>
      </trkpt>
      <trkpt lat="45.50442" lon="6.60799">
        <ele>1774.73</ele>
        <time>2015-02-08T09:03:39Z</time>
      </trkpt>
      <trkpt lat="45.50437" lon="6.60803">
        <ele>1775.69</ele>
        <time>2015-02-08T09:03:52Z</time>
      </trkpt>
      <trkpt lat="45.5043" lon="6.60808">
        <ele>1777.61</ele>
        <time>2015-02-08T09:04:07Z</time>
      </trkpt>
      <trkpt lat="45.50424" lon="6.60811">
        <ele>1779.54</ele>
        <time>2015-02-08T09:04:20Z</time>
      </trkpt>
      <trkpt lat="45.5042" lon="6.60813">
        <ele>1780.02</ele>
        <time>2015-02-08T09:04:28Z</time>
      </trkpt>
      <trkpt lat="45.50415" lon="6.60819">
        <ele>1781.94</ele>
        <time>2015-02-08T09:04:41Z</time>
      </trkpt>
      <trkpt lat="45.5041" lon="6.60824">
        <ele>1783.86</ele>
        <time>2015-02-08T09:04:55Z</time>
      </trkpt>
      <trkpt lat="45.50406" lon="6.60829">
        <ele>1785.31</ele>
        <time>2015-02-08T09:05:08Z</time>
      </trkpt>
      <trkpt lat="45.50401" lon="6.60836">
        <ele>1786.75</ele>
        <time>2015-02-08T09:05:21Z</time>
      </trkpt>
      <trkpt lat="45.50395" lon="6.60841">
        <ele>1788.19</ele>
        <time>2015-02-08T09:05:35Z</time>
      </trkpt>
      <trkpt lat="45.50391" lon="6.6085">
        <ele>1790.59</ele>
        <time>2015-02-08T09:05:50Z</time>
      </trkpt>
      <trkpt lat="45.50385" lon="6.60856">
        <ele>1792.52</ele>
        <time>2015-02-08T09:06:05Z</time>
      </trkpt>
      <trkpt lat="45.5038" lon="6.60859">
        <ele>1793.96</ele>
        <time>2015-02-08T09:06:19Z</time>
      </trkpt>
      <trkpt lat="45.50376" lon="6.60868">
        <ele>1796.36</ele>
        <time>2015-02-08T09:06:32Z</time>
      </trkpt>
      <trkpt lat="45.50373" lon="6.6087">
        <ele>1797.8</ele>
        <time>2015-02-08T09:06:43Z</time>
      </trkpt>
      <trkpt lat="45.50372" lon="6.60873">
        <ele>1798.28</ele>
        <time>2015-02-08T09:06:54Z</time>
      </trkpt>
      <trkpt lat="45.50372" lon="6.60872">
        <ele>1798.28</ele>
        <time>2015-02-08T09:06:57Z</time>
      </trkpt>
      <trkpt lat="45.50375" lon="6.60874">
        <ele>1798.76</ele>
        <time>2015-02-08T09:07:11Z</time>
      </trkpt>
      <trkpt lat="45.50373" lon="6.60871">
        <ele>1798.76</ele>
        <time>2015-02-08T09:07:44Z</time>
      </trkpt>
      <trkpt lat="45.50375" lon="6.60875">
        <ele>1798.76</ele>
        <time>2015-02-08T09:08:11Z</time>
      </trkpt>
      <trkpt lat="45.50376" lon="6.60874">
        <ele>1798.76</ele>
        <time>2015-02-08T09:08:39Z</time>
      </trkpt>
      <trkpt lat="45.50375" lon="6.60874">
        <ele>1798.76</ele>
        <time>2015-02-08T09:09:00Z</time>
      </trkpt>
      <trkpt lat="45.50377" lon="6.60872">
        <ele>1798.28</ele>
        <time>2015-02-08T09:09:35Z</time>
      </trkpt>
      <trkpt lat="45.50382" lon="6.60873">
        <ele>1798.28</ele>
        <time>2015-02-08T09:10:09Z</time>
      </trkpt>
      <trkpt lat="45.50378" lon="6.60874">
        <ele>1797.8</ele>
        <time>2015-02-08T09:10:36Z</time>
      </trkpt>
      <trkpt lat="45.50374" lon="6.60876">
        <ele>1798.28</ele>
        <time>2015-02-08T09:10:55Z</time>
      </trkpt>
      <trkpt lat="45.50375" lon="6.6087">
        <ele>1797.8</ele>
        <time>2015-02-08T09:11:26Z</time>
      </trkpt>
      <trkpt lat="45.50374" lon="6.60873">
        <ele>1797.8</ele>
        <time>2015-02-08T09:11:52Z</time>
      </trkpt>
      <trkpt lat="45.50375" lon="6.60872">
        <ele>1797.32</ele>
        <time>2015-02-08T09:12:13Z</time>
      </trkpt>
      <trkpt lat="45.50378" lon="6.60876">
        <ele>1797.8</ele>
        <time>2015-02-08T09:12:37Z</time>
      </trkpt>
      <trkpt lat="45.50378" lon="6.60877">
        <ele>1797.8</ele>
        <time>2015-02-08T09:12:38Z</time>
      </trkpt>
      <trkpt lat="45.5038" lon="6.60878">
        <ele>1797.8</ele>
        <time>2015-02-08T09:12:41Z</time>
      </trkpt>
      <trkpt lat="45.50381" lon="6.60884">
        <ele>1799.73</ele>
        <time>2015-02-08T09:12:52Z</time>
      </trkpt>
      <trkpt lat="45.5038" lon="6.60886">
        <ele>1800.69</ele>
        <time>2015-02-08T09:12:55Z</time>
      </trkpt>
      <trkpt lat="45.50379" lon="6.60893">
        <ele>1801.65</ele>
        <time>2015-02-08T09:13:01Z</time>
      </trkpt>
      <trkpt lat="45.50369" lon="6.60896">
        <ele>1804.05</ele>
        <time>2015-02-08T09:13:16Z</time>
      </trkpt>
      <trkpt lat="45.5036" lon="6.60892">
        <ele>1806.94</ele>
        <time>2015-02-08T09:13:32Z</time>
      </trkpt>
      <trkpt lat="45.50357" lon="6.60893">
        <ele>1808.38</ele>
        <time>2015-02-08T09:13:42Z</time>
      </trkpt>
      <trkpt lat="45.50352" lon="6.60895">
        <ele>1810.3</ele>
        <time>2015-02-08T09:13:54Z</time>
      </trkpt>
      <trkpt lat="45.50347" lon="6.60897">
        <ele>1812.22</ele>
        <time>2015-02-08T09:14:02Z</time>
      </trkpt>
      <trkpt lat="45.50338" lon="6.609">
        <ele>1814.15</ele>
        <time>2015-02-08T09:14:14Z</time>
      </trkpt>
      <trkpt lat="45.50333" lon="6.60901">
        <ele>1816.07</ele>
        <time>2015-02-08T09:14:29Z</time>
      </trkpt>
      <trkpt lat="45.50328" lon="6.609">
        <ele>1817.51</ele>
        <time>2015-02-08T09:14:39Z</time>
      </trkpt>
      <trkpt lat="45.50323" lon="6.60902">
        <ele>1819.43</ele>
        <time>2015-02-08T09:14:54Z</time>
      </trkpt>
      <trkpt lat="45.5032" lon="6.60909">
        <ele>1821.35</ele>
        <time>2015-02-08T09:15:10Z</time>
      </trkpt>
      <trkpt lat="45.50315" lon="6.60912">
        <ele>1822.8</ele>
        <time>2015-02-08T09:15:22Z</time>
      </trkpt>
      <trkpt lat="45.50309" lon="6.60913">
        <ele>1825.2</ele>
        <time>2015-02-08T09:15:35Z</time>
      </trkpt>
      <trkpt lat="45.50306" lon="6.60916">
        <ele>1827.12</ele>
        <time>2015-02-08T09:15:47Z</time>
      </trkpt>
      <trkpt lat="45.50302" lon="6.60922">
        <ele>1830.01</ele>
        <time>2015-02-08T09:16:01Z</time>
      </trkpt>
      <trkpt lat="45.50298" lon="6.60927">
        <ele>1831.45</ele>
        <time>2015-02-08T09:16:14Z</time>
      </trkpt>
      <trkpt lat="45.50289" lon="6.60936">
        <ele>1834.81</ele>
        <time>2015-02-08T09:16:28Z</time>
      </trkpt>
      <trkpt lat="45.5028" lon="6.60945">
        <ele>1836.74</ele>
        <time>2015-02-08T09:16:41Z</time>
      </trkpt>
      <trkpt lat="45.50277" lon="6.60949">
        <ele>1838.18</ele>
        <time>2015-02-08T09:16:48Z</time>
      </trkpt>
      <trkpt lat="45.50264" lon="6.60953">
        <ele>1841.06</ele>
        <time>2015-02-08T09:17:01Z</time>
      </trkpt>
      <trkpt lat="45.50253" lon="6.60956">
        <ele>1842.5</ele>
        <time>2015-02-08T09:17:13Z</time>
      </trkpt>
      <trkpt lat="45.50252" lon="6.60956">
        <ele>1842.5</ele>
        <time>2015-02-08T09:17:27Z</time>
      </trkpt>
      <trkpt lat="45.50252" lon="6.60955">
        <ele>1842.5</ele>
        <time>2015-02-08T09:17:48Z</time>
      </trkpt>
      <trkpt lat="45.50248" lon="6.60957">
        <ele>1844.43</ele>
        <time>2015-02-08T09:18:02Z</time>
      </trkpt>
      <trkpt lat="45.5024" lon="6.60962">
        <ele>1847.79</ele>
        <time>2015-02-08T09:18:12Z</time>
      </trkpt>
      <trkpt lat="45.5024" lon="6.60969">
        <ele>1851.16</ele>
        <time>2015-02-08T09:18:23Z</time>
      </trkpt>
      <trkpt lat="45.50242" lon="6.60972">
        <ele>1851.64</ele>
        <time>2015-02-08T09:18:27Z</time>
      </trkpt>
      <trkpt lat="45.50247" lon="6.60982">
        <ele>1855</ele>
        <time>2015-02-08T09:18:37Z</time>
      </trkpt>
      <trkpt lat="45.5025" lon="6.60989">
        <ele>1856.92</ele>
        <time>2015-02-08T09:18:43Z</time>
      </trkpt>
      <trkpt lat="45.50253" lon="6.61">
        <ele>1857.4</ele>
        <time>2015-02-08T09:18:50Z</time>
      </trkpt>
      <trkpt lat="45.50255" lon="6.61005">
        <ele>1858.37</ele>
        <time>2015-02-08T09:18:54Z</time>
      </trkpt>
      <trkpt lat="45.50257" lon="6.61006">
        <ele>1859.33</ele>
        <time>2015-02-08T09:18:58Z</time>
      </trkpt>
      <trkpt lat="45.50263" lon="6.6101">
        <ele>1861.25</ele>
        <time>2015-02-08T09:19:06Z</time>
      </trkpt>
      <trkpt lat="45.50261" lon="6.61012">
        <ele>1861.73</ele>
        <time>2015-02-08T09:19:16Z</time>
      </trkpt>
      <trkpt lat="45.50262" lon="6.61013">
        <ele>1861.73</ele>
        <time>2015-02-08T09:19:35Z</time>
      </trkpt>
      <trkpt lat="45.50262" lon="6.61014">
        <ele>1860.29</ele>
        <time>2015-02-08T09:19:59Z</time>
      </trkpt>
      <trkpt lat="45.50257" lon="6.61018">
        <ele>1860.29</ele>
        <time>2015-02-08T09:20:18Z</time>
      </trkpt>
      <trkpt lat="45.50258" lon="6.61021">
        <ele>1860.29</ele>
        <time>2015-02-08T09:20:23Z</time>
      </trkpt>
      <trkpt lat="45.50259" lon="6.61026">
        <ele>1860.29</ele>
        <time>2015-02-08T09:20:26Z</time>
      </trkpt>
      <trkpt lat="45.50258" lon="6.61029">
        <ele>1860.29</ele>
        <time>2015-02-08T09:20:28Z</time>
      </trkpt>
      <trkpt lat="45.50246" lon="6.61049">
        <ele>1862.69</ele>
        <time>2015-02-08T09:20:42Z</time>
      </trkpt>
      <trkpt lat="45.50235" lon="6.61063">
        <ele>1866.06</ele>
        <time>2015-02-08T09:20:55Z</time>
      </trkpt>
      <trkpt lat="45.50231" lon="6.61066">
        <ele>1866.54</ele>
        <time>2015-02-08T09:21:09Z</time>
      </trkpt>
      <trkpt lat="45.50231" lon="6.61065">
        <ele>1866.54</ele>
        <time>2015-02-08T09:21:23Z</time>
      </trkpt>
      <trkpt lat="45.5022" lon="6.61043">
        <ele>1866.54</ele>
        <time>2015-02-08T09:21:37Z</time>
      </trkpt>
      <trkpt lat="45.50215" lon="6.61034">
        <ele>1868.94</ele>
        <time>2015-02-08T09:21:46Z</time>
      </trkpt>
      <trkpt lat="45.50204" lon="6.61041">
        <ele>1872.3</ele>
        <time>2015-02-08T09:21:58Z</time>
      </trkpt>
      <trkpt lat="45.50195" lon="6.61049">
        <ele>1875.19</ele>
        <time>2015-02-08T09:22:10Z</time>
      </trkpt>
      <trkpt lat="45.50189" lon="6.61051">
        <ele>1876.63</ele>
        <time>2015-02-08T09:22:22Z</time>
      </trkpt>
      <trkpt lat="45.50184" lon="6.61055">
        <ele>1878.55</ele>
        <time>2015-02-08T09:22:33Z</time>
      </trkpt>
      <trkpt lat="45.50177" lon="6.61064">
        <ele>1881.92</ele>
        <time>2015-02-08T09:22:44Z</time>
      </trkpt>
      <trkpt lat="45.5016" lon="6.6107">
        <ele>1882.4</ele>
        <time>2015-02-08T09:22:59Z</time>
      </trkpt>
      <trkpt lat="45.50146" lon="6.61074">
        <ele>1882.88</ele>
        <time>2015-02-08T09:23:09Z</time>
      </trkpt>
      <trkpt lat="45.50142" lon="6.61086">
        <ele>1883.84</ele>
        <time>2015-02-08T09:23:20Z</time>
      </trkpt>
      <trkpt lat="45.50141" lon="6.61101">
        <ele>1888.17</ele>
        <time>2015-02-08T09:23:33Z</time>
      </trkpt>
      <trkpt lat="45.50141" lon="6.61114">
        <ele>1891.53</ele>
        <time>2015-02-08T09:23:44Z</time>
      </trkpt>
      <trkpt lat="45.5014" lon="6.61116">
        <ele>1892.01</ele>
        <time>2015-02-08T09:23:46Z</time>
      </trkpt>
      <trkpt lat="45.50139" lon="6.6112">
        <ele>1892.97</ele>
        <time>2015-02-08T09:23:49Z</time>
      </trkpt>
      <trkpt lat="45.50137" lon="6.61124">
        <ele>1894.42</ele>
        <time>2015-02-08T09:24:01Z</time>
      </trkpt>
      <trkpt lat="45.50139" lon="6.61125">
        <ele>1894.42</ele>
        <time>2015-02-08T09:24:20Z</time>
      </trkpt>
      <trkpt lat="45.50139" lon="6.61124">
        <ele>1894.42</ele>
        <time>2015-02-08T09:24:39Z</time>
      </trkpt>
      <trkpt lat="45.50138" lon="6.61123">
        <ele>1894.42</ele>
        <time>2015-02-08T09:24:57Z</time>
      </trkpt>
      <trkpt lat="45.50139" lon="6.61124">
        <ele>1894.42</ele>
        <time>2015-02-08T09:25:17Z</time>
      </trkpt>
      <trkpt lat="45.50139" lon="6.61123">
        <ele>1893.93</ele>
        <time>2015-02-08T09:25:35Z</time>
      </trkpt>
      <trkpt lat="45.50137" lon="6.61123">
        <ele>1893.93</ele>
        <time>2015-02-08T09:26:04Z</time>
      </trkpt>
      <trkpt lat="45.50138" lon="6.61124">
        <ele>1893.93</ele>
        <time>2015-02-08T09:26:22Z</time>
      </trkpt>
      <trkpt lat="45.50138" lon="6.61126">
        <ele>1893.93</ele>
        <time>2015-02-08T09:26:49Z</time>
      </trkpt>
      <trkpt lat="45.50137" lon="6.61124">
        <ele>1893.45</ele>
        <time>2015-02-08T09:27:09Z</time>
      </trkpt>
      <trkpt lat="45.50134" lon="6.61124">
        <ele>1893.45</ele>
        <time>2015-02-08T09:27:27Z</time>
      </trkpt>
      <trkpt lat="45.50134" lon="6.61131">
        <ele>1894.9</ele>
        <time>2015-02-08T09:27:44Z</time>
      </trkpt>
      <trkpt lat="45.50134" lon="6.61142">
        <ele>1896.82</ele>
        <time>2015-02-08T09:27:57Z</time>
      </trkpt>
      <trkpt lat="45.50134" lon="6.61149">
        <ele>1897.78</ele>
        <time>2015-02-08T09:28:16Z</time>
      </trkpt>
      <trkpt lat="45.50132" lon="6.61154">
        <ele>1898.26</ele>
        <time>2015-02-08T09:28:20Z</time>
      </trkpt>
      <trkpt lat="45.50126" lon="6.61167">
        <ele>1900.18</ele>
        <time>2015-02-08T09:28:33Z</time>
      </trkpt>
      <trkpt lat="45.50127" lon="6.61172">
        <ele>1900.66</ele>
        <time>2015-02-08T09:28:42Z</time>
      </trkpt>
      <trkpt lat="45.50128" lon="6.61178">
        <ele>1901.14</ele>
        <time>2015-02-08T09:29:05Z</time>
      </trkpt>
      <trkpt lat="45.50128" lon="6.6118">
        <ele>1901.63</ele>
        <time>2015-02-08T09:29:07Z</time>
      </trkpt>
      <trkpt lat="45.50129" lon="6.61183">
        <ele>1903.07</ele>
        <time>2015-02-08T09:29:10Z</time>
      </trkpt>
      <trkpt lat="45.50131" lon="6.61196">
        <ele>1905.95</ele>
        <time>2015-02-08T09:29:21Z</time>
      </trkpt>
      <trkpt lat="45.50137" lon="6.61215">
        <ele>1909.32</ele>
        <time>2015-02-08T09:29:36Z</time>
      </trkpt>
      <trkpt lat="45.5014" lon="6.61221">
        <ele>1911.24</ele>
        <time>2015-02-08T09:29:42Z</time>
      </trkpt>
      <trkpt lat="45.50143" lon="6.61236">
        <ele>1913.16</ele>
        <time>2015-02-08T09:29:54Z</time>
      </trkpt>
      <trkpt lat="45.50144" lon="6.61249">
        <ele>1916.04</ele>
        <time>2015-02-08T09:30:06Z</time>
      </trkpt>
      <trkpt lat="45.50141" lon="6.61252">
        <ele>1916.04</ele>
        <time>2015-02-08T09:30:24Z</time>
      </trkpt>
      <trkpt lat="45.50145" lon="6.61248">
        <ele>1916.04</ele>
        <time>2015-02-08T09:30:43Z</time>
      </trkpt>
      <trkpt lat="45.50142" lon="6.61252">
        <ele>1917.01</ele>
        <time>2015-02-08T09:30:59Z</time>
      </trkpt>
      <trkpt lat="45.50138" lon="6.61267">
        <ele>1919.89</ele>
        <time>2015-02-08T09:31:13Z</time>
      </trkpt>
      <trkpt lat="45.50137" lon="6.61269">
        <ele>1920.37</ele>
        <time>2015-02-08T09:31:15Z</time>
      </trkpt>
      <trkpt lat="45.50133" lon="6.61279">
        <ele>1922.29</ele>
        <time>2015-02-08T09:31:24Z</time>
      </trkpt>
      <trkpt lat="45.50129" lon="6.61294">
        <ele>1924.7</ele>
        <time>2015-02-08T09:31:38Z</time>
      </trkpt>
      <trkpt lat="45.50125" lon="6.61308">
        <ele>1928.06</ele>
        <time>2015-02-08T09:31:52Z</time>
      </trkpt>
      <trkpt lat="45.50122" lon="6.61316">
        <ele>1929.5</ele>
        <time>2015-02-08T09:32:01Z</time>
      </trkpt>
      <trkpt lat="45.50119" lon="6.61319">
        <ele>1930.95</ele>
        <time>2015-02-08T09:32:12Z</time>
      </trkpt>
      <trkpt lat="45.50118" lon="6.61319">
        <ele>1930.46</ele>
        <time>2015-02-08T09:32:28Z</time>
      </trkpt>
      <trkpt lat="45.50114" lon="6.61323">
        <ele>1931.43</ele>
        <time>2015-02-08T09:32:38Z</time>
      </trkpt>
      <trkpt lat="45.50108" lon="6.61328">
        <ele>1932.87</ele>
        <time>2015-02-08T09:32:51Z</time>
      </trkpt>
      <trkpt lat="45.50102" lon="6.61336">
        <ele>1934.31</ele>
        <time>2015-02-08T09:33:03Z</time>
      </trkpt>
      <trkpt lat="45.50095" lon="6.61343">
        <ele>1936.23</ele>
        <time>2015-02-08T09:33:14Z</time>
      </trkpt>
      <trkpt lat="45.50089" lon="6.61348">
        <ele>1937.67</ele>
        <time>2015-02-08T09:33:25Z</time>
      </trkpt>
      <trkpt lat="45.50086" lon="6.6135">
        <ele>1938.16</ele>
        <time>2015-02-08T09:33:33Z</time>
      </trkpt>
      <trkpt lat="45.50083" lon="6.61351">
        <ele>1938.64</ele>
        <time>2015-02-08T09:33:37Z</time>
      </trkpt>
      <trkpt lat="45.50076" lon="6.61352">
        <ele>1940.08</ele>
        <time>2015-02-08T09:33:49Z</time>
      </trkpt>
      <trkpt lat="45.5007" lon="6.61351">
        <ele>1942</ele>
        <time>2015-02-08T09:34:01Z</time>
      </trkpt>
      <trkpt lat="45.50062" lon="6.61354">
        <ele>1943.92</ele>
        <time>2015-02-08T09:34:17Z</time>
      </trkpt>
      <trkpt lat="45.50055" lon="6.61357">
        <ele>1945.36</ele>
        <time>2015-02-08T09:34:27Z</time>
      </trkpt>
      <trkpt lat="45.50047" lon="6.61364">
        <ele>1946.81</ele>
        <time>2015-02-08T09:34:42Z</time>
      </trkpt>
      <trkpt lat="45.50043" lon="6.61373">
        <ele>1949.69</ele>
        <time>2015-02-08T09:34:52Z</time>
      </trkpt>
      <trkpt lat="45.50038" lon="6.61391">
        <ele>1952.57</ele>
        <time>2015-02-08T09:35:08Z</time>
      </trkpt>
      <trkpt lat="45.50038" lon="6.614">
        <ele>1954.02</ele>
        <time>2015-02-08T09:35:16Z</time>
      </trkpt>
      <trkpt lat="45.50041" lon="6.61413">
        <ele>1956.42</ele>
        <time>2015-02-08T09:35:29Z</time>
      </trkpt>
      <trkpt lat="45.50042" lon="6.61421">
        <ele>1956.9</ele>
        <time>2015-02-08T09:35:41Z</time>
      </trkpt>
      <trkpt lat="45.50042" lon="6.61427">
        <ele>1958.34</ele>
        <time>2015-02-08T09:35:51Z</time>
      </trkpt>
      <trkpt lat="45.50043" lon="6.6144">
        <ele>1960.75</ele>
        <time>2015-02-08T09:36:10Z</time>
      </trkpt>
      <trkpt lat="45.50043" lon="6.61448">
        <ele>1961.71</ele>
        <time>2015-02-08T09:36:22Z</time>
      </trkpt>
      <trkpt lat="45.50042" lon="6.61456">
        <ele>1963.63</ele>
        <time>2015-02-08T09:36:35Z</time>
      </trkpt>
      <trkpt lat="45.50036" lon="6.61456">
        <ele>1964.59</ele>
        <time>2015-02-08T09:36:47Z</time>
      </trkpt>
      <trkpt lat="45.50035" lon="6.61456">
        <ele>1965.07</ele>
        <time>2015-02-08T09:37:06Z</time>
      </trkpt>
      <trkpt lat="45.50035" lon="6.61455">
        <ele>1965.07</ele>
        <time>2015-02-08T09:37:31Z</time>
      </trkpt>
      <trkpt lat="45.50033" lon="6.61455">
        <ele>1965.55</ele>
        <time>2015-02-08T09:37:52Z</time>
      </trkpt>
      <trkpt lat="45.50033" lon="6.61456">
        <ele>1965.55</ele>
        <time>2015-02-08T09:37:54Z</time>
      </trkpt>
      <trkpt lat="45.50027" lon="6.61457">
        <ele>1966.99</ele>
        <time>2015-02-08T09:38:01Z</time>
      </trkpt>
      <trkpt lat="45.50017" lon="6.61456">
        <ele>1968.92</ele>
        <time>2015-02-08T09:38:14Z</time>
      </trkpt>
      <trkpt lat="45.50006" lon="6.61453">
        <ele>1971.8</ele>
        <time>2015-02-08T09:38:27Z</time>
      </trkpt>
      <trkpt lat="45.50002" lon="6.6145">
        <ele>1973.24</ele>
        <time>2015-02-08T09:38:34Z</time>
      </trkpt>
      <trkpt lat="45.49991" lon="6.61446">
        <ele>1976.13</ele>
        <time>2015-02-08T09:38:49Z</time>
      </trkpt>
      <trkpt lat="45.4998" lon="6.61444">
        <ele>1979.01</ele>
        <time>2015-02-08T09:39:06Z</time>
      </trkpt>
      <trkpt lat="45.49975" lon="6.61444">
        <ele>1980.45</ele>
        <time>2015-02-08T09:39:17Z</time>
      </trkpt>
      <trkpt lat="45.49968" lon="6.61445">
        <ele>1982.38</ele>
        <time>2015-02-08T09:39:31Z</time>
      </trkpt>
      <trkpt lat="45.49965" lon="6.61452">
        <ele>1984.3</ele>
        <time>2015-02-08T09:39:44Z</time>
      </trkpt>
      <trkpt lat="45.49963" lon="6.61464">
        <ele>1985.26</ele>
        <time>2015-02-08T09:39:59Z</time>
      </trkpt>
      <trkpt lat="45.4996" lon="6.61479">
        <ele>1986.7</ele>
        <time>2015-02-08T09:40:14Z</time>
      </trkpt>
      <trkpt lat="45.4996" lon="6.61488">
        <ele>1986.7</ele>
        <time>2015-02-08T09:40:26Z</time>
      </trkpt>
      <trkpt lat="45.49957" lon="6.61488">
        <ele>1986.7</ele>
        <time>2015-02-08T09:40:47Z</time>
      </trkpt>
      <trkpt lat="45.49957" lon="6.61489">
        <ele>1986.7</ele>
        <time>2015-02-08T09:40:48Z</time>
      </trkpt>
      <trkpt lat="45.49957" lon="6.61492">
        <ele>1986.7</ele>
        <time>2015-02-08T09:40:58Z</time>
      </trkpt>
      <trkpt lat="45.49957" lon="6.6149">
        <ele>1986.7</ele>
        <time>2015-02-08T09:41:11Z</time>
      </trkpt>
      <trkpt lat="45.49956" lon="6.61489">
        <ele>1987.18</ele>
        <time>2015-02-08T09:41:26Z</time>
      </trkpt>
      <trkpt lat="45.49956" lon="6.6149">
        <ele>1987.18</ele>
        <time>2015-02-08T09:41:50Z</time>
      </trkpt>
      <trkpt lat="45.49956" lon="6.61489">
        <ele>1986.7</ele>
        <time>2015-02-08T09:42:06Z</time>
      </trkpt>
      <trkpt lat="45.49956" lon="6.61489">
        <ele>1986.7</ele>
        <time>2015-02-08T09:42:27Z</time>
      </trkpt>
      <trkpt lat="45.49957" lon="6.61489">
        <ele>1986.7</ele>
        <time>2015-02-08T09:42:48Z</time>
      </trkpt>
      <trkpt lat="45.49957" lon="6.61491">
        <ele>1986.22</ele>
        <time>2015-02-08T09:43:14Z</time>
      </trkpt>
      <trkpt lat="45.49957" lon="6.6149">
        <ele>1986.22</ele>
        <time>2015-02-08T09:43:31Z</time>
      </trkpt>
      <trkpt lat="45.49956" lon="6.61489">
        <ele>1984.78</ele>
        <time>2015-02-08T09:44:04Z</time>
      </trkpt>
      <trkpt lat="45.49954" lon="6.61489">
        <ele>1984.3</ele>
        <time>2015-02-08T09:44:37Z</time>
      </trkpt>
      <trkpt lat="45.49956" lon="6.6149">
        <ele>1984.3</ele>
        <time>2015-02-08T09:44:52Z</time>
      </trkpt>
      <trkpt lat="45.49956" lon="6.61489">
        <ele>1984.3</ele>
        <time>2015-02-08T09:45:10Z</time>
      </trkpt>
      <trkpt lat="45.49956" lon="6.6149">
        <ele>1983.82</ele>
        <time>2015-02-08T09:45:27Z</time>
      </trkpt>
      <trkpt lat="45.49957" lon="6.6149">
        <ele>1983.82</ele>
        <time>2015-02-08T09:45:52Z</time>
      </trkpt>
      <trkpt lat="45.49957" lon="6.61489">
        <ele>1983.34</ele>
        <time>2015-02-08T09:46:05Z</time>
      </trkpt>
      <trkpt lat="45.49956" lon="6.6149">
        <ele>1983.34</ele>
        <time>2015-02-08T09:46:14Z</time>
      </trkpt>
      <trkpt lat="45.49956" lon="6.61489">
        <ele>1982.86</ele>
        <time>2015-02-08T09:46:38Z</time>
      </trkpt>
      <trkpt lat="45.49954" lon="6.61489">
        <ele>1982.86</ele>
        <time>2015-02-08T09:47:03Z</time>
      </trkpt>
      <trkpt lat="45.49955" lon="6.61491">
        <ele>1982.38</ele>
        <time>2015-02-08T09:47:20Z</time>
      </trkpt>
      <trkpt lat="45.49957" lon="6.61491">
        <ele>1983.82</ele>
        <time>2015-02-08T09:47:46Z</time>
      </trkpt>
      <trkpt lat="45.49956" lon="6.61492">
        <ele>1982.38</ele>
        <time>2015-02-08T09:48:03Z</time>
      </trkpt>
      <trkpt lat="45.49957" lon="6.6149">
        <ele>1981.9</ele>
        <time>2015-02-08T09:48:28Z</time>
      </trkpt>
      <trkpt lat="45.49956" lon="6.61488">
        <ele>1981.9</ele>
        <time>2015-02-08T09:48:43Z</time>
      </trkpt>
      <trkpt lat="45.49955" lon="6.61499">
        <ele>1981.9</ele>
        <time>2015-02-08T09:48:57Z</time>
      </trkpt>
      <trkpt lat="45.49955" lon="6.61506">
        <ele>1981.9</ele>
        <time>2015-02-08T09:49:05Z</time>
      </trkpt>
      <trkpt lat="45.49955" lon="6.61518">
        <ele>1981.41</ele>
        <time>2015-02-08T09:49:18Z</time>
      </trkpt>
      <trkpt lat="45.49951" lon="6.61523">
        <ele>1982.38</ele>
        <time>2015-02-08T09:49:32Z</time>
      </trkpt>
      <trkpt lat="45.49944" lon="6.61534">
        <ele>1984.78</ele>
        <time>2015-02-08T09:49:48Z</time>
      </trkpt>
      <trkpt lat="45.49942" lon="6.61539">
        <ele>1985.26</ele>
        <time>2015-02-08T09:50:02Z</time>
      </trkpt>
      <trkpt lat="45.49942" lon="6.61542">
        <ele>1985.26</ele>
        <time>2015-02-08T09:50:20Z</time>
      </trkpt>
      <trkpt lat="45.49942" lon="6.61557">
        <ele>1987.66</ele>
        <time>2015-02-08T09:50:32Z</time>
      </trkpt>
      <trkpt lat="45.49938" lon="6.61574">
        <ele>1990.55</ele>
        <time>2015-02-08T09:50:45Z</time>
      </trkpt>
      <trkpt lat="45.49936" lon="6.61575">
        <ele>1991.51</ele>
        <time>2015-02-08T09:50:58Z</time>
      </trkpt>
      <trkpt lat="45.4993" lon="6.61579">
        <ele>1992.47</ele>
        <time>2015-02-08T09:51:13Z</time>
      </trkpt>
      <trkpt lat="45.49919" lon="6.61584">
        <ele>1994.87</ele>
        <time>2015-02-08T09:51:27Z</time>
      </trkpt>
      <trkpt lat="45.49916" lon="6.61587">
        <ele>1995.83</ele>
        <time>2015-02-08T09:51:42Z</time>
      </trkpt>
      <trkpt lat="45.49908" lon="6.6159">
        <ele>1996.8</ele>
        <time>2015-02-08T09:51:55Z</time>
      </trkpt>
      <trkpt lat="45.49904" lon="6.61591">
        <ele>1998.72</ele>
        <time>2015-02-08T09:52:07Z</time>
      </trkpt>
      <trkpt lat="45.49904" lon="6.61594">
        <ele>1999.68</ele>
        <time>2015-02-08T09:52:20Z</time>
      </trkpt>
      <trkpt lat="45.49911" lon="6.616">
        <ele>2002.08</ele>
        <time>2015-02-08T09:52:34Z</time>
      </trkpt>
      <trkpt lat="45.49914" lon="6.61603">
        <ele>2003.52</ele>
        <time>2015-02-08T09:52:48Z</time>
      </trkpt>
      <trkpt lat="45.49919" lon="6.61609">
        <ele>2004.97</ele>
        <time>2015-02-08T09:53:01Z</time>
      </trkpt>
      <trkpt lat="45.4992" lon="6.61615">
        <ele>2006.89</ele>
        <time>2015-02-08T09:53:14Z</time>
      </trkpt>
      <trkpt lat="45.49911" lon="6.61616">
        <ele>2007.85</ele>
        <time>2015-02-08T09:53:28Z</time>
      </trkpt>
      <trkpt lat="45.49905" lon="6.6162">
        <ele>2009.77</ele>
        <time>2015-02-08T09:53:41Z</time>
      </trkpt>
      <trkpt lat="45.49903" lon="6.61624">
        <ele>2010.73</ele>
        <time>2015-02-08T09:53:56Z</time>
      </trkpt>
      <trkpt lat="45.49904" lon="6.61624">
        <ele>2011.7</ele>
        <time>2015-02-08T09:54:09Z</time>
      </trkpt>
      <trkpt lat="45.49909" lon="6.6162">
        <ele>2011.7</ele>
        <time>2015-02-08T09:54:33Z</time>
      </trkpt>
      <trkpt lat="45.49914" lon="6.61629">
        <ele>2015.06</ele>
        <time>2015-02-08T09:54:44Z</time>
      </trkpt>
      <trkpt lat="45.49911" lon="6.61632">
        <ele>2016.5</ele>
        <time>2015-02-08T09:54:56Z</time>
      </trkpt>
      <trkpt lat="45.49902" lon="6.61636">
        <ele>2018.43</ele>
        <time>2015-02-08T09:55:05Z</time>
      </trkpt>
      <trkpt lat="45.4989" lon="6.61642">
        <ele>2020.83</ele>
        <time>2015-02-08T09:55:18Z</time>
      </trkpt>
      <trkpt lat="45.49883" lon="6.61645">
        <ele>2022.27</ele>
        <time>2015-02-08T09:55:32Z</time>
      </trkpt>
      <trkpt lat="45.49878" lon="6.61647">
        <ele>2023.71</ele>
        <time>2015-02-08T09:55:45Z</time>
      </trkpt>
      <trkpt lat="45.49876" lon="6.61647">
        <ele>2024.67</ele>
        <time>2015-02-08T09:56:00Z</time>
      </trkpt>
      <trkpt lat="45.49875" lon="6.61647">
        <ele>2025.15</ele>
        <time>2015-02-08T09:56:02Z</time>
      </trkpt>
      <trkpt lat="45.4988" lon="6.6165">
        <ele>2026.6</ele>
        <time>2015-02-08T09:56:13Z</time>
      </trkpt>
      <trkpt lat="45.49886" lon="6.61654">
        <ele>2028.04</ele>
        <time>2015-02-08T09:56:25Z</time>
      </trkpt>
      <trkpt lat="45.49891" lon="6.61657">
        <ele>2029.48</ele>
        <time>2015-02-08T09:56:38Z</time>
      </trkpt>
      <trkpt lat="45.49895" lon="6.6166">
        <ele>2030.44</ele>
        <time>2015-02-08T09:56:50Z</time>
      </trkpt>
      <trkpt lat="45.49897" lon="6.61663">
        <ele>2031.4</ele>
        <time>2015-02-08T09:57:01Z</time>
      </trkpt>
      <trkpt lat="45.49899" lon="6.61667">
        <ele>2032.36</ele>
        <time>2015-02-08T09:57:16Z</time>
      </trkpt>
      <trkpt lat="45.49894" lon="6.61669">
        <ele>2033.81</ele>
        <time>2015-02-08T09:57:24Z</time>
      </trkpt>
      <trkpt lat="45.49887" lon="6.61672">
        <ele>2035.73</ele>
        <time>2015-02-08T09:57:37Z</time>
      </trkpt>
      <trkpt lat="45.49883" lon="6.61673">
        <ele>2036.69</ele>
        <time>2015-02-08T09:57:52Z</time>
      </trkpt>
      <trkpt lat="45.49883" lon="6.61673">
        <ele>2036.69</ele>
        <time>2015-02-08T09:57:53Z</time>
      </trkpt>
      <trkpt lat="45.4989" lon="6.61678">
        <ele>2038.13</ele>
        <time>2015-02-08T09:58:03Z</time>
      </trkpt>
      <trkpt lat="45.49892" lon="6.61683">
        <ele>2039.57</ele>
        <time>2015-02-08T09:58:15Z</time>
      </trkpt>
      <trkpt lat="45.49894" lon="6.61685">
        <ele>2040.05</ele>
        <time>2015-02-08T09:58:25Z</time>
      </trkpt>
      <trkpt lat="45.49886" lon="6.61687">
        <ele>2041.98</ele>
        <time>2015-02-08T09:58:38Z</time>
      </trkpt>
      <trkpt lat="45.4988" lon="6.61687">
        <ele>2043.9</ele>
        <time>2015-02-08T09:58:51Z</time>
      </trkpt>
      <trkpt lat="45.49874" lon="6.61688">
        <ele>2045.34</ele>
        <time>2015-02-08T09:59:04Z</time>
      </trkpt>
      <trkpt lat="45.49866" lon="6.61691">
        <ele>2046.3</ele>
        <time>2015-02-08T09:59:17Z</time>
      </trkpt>
      <trkpt lat="45.49862" lon="6.61692">
        <ele>2046.78</ele>
        <time>2015-02-08T09:59:28Z</time>
      </trkpt>
      <trkpt lat="45.49864" lon="6.61693">
        <ele>2048.23</ele>
        <time>2015-02-08T09:59:38Z</time>
      </trkpt>
      <trkpt lat="45.49871" lon="6.61697">
        <ele>2049.67</ele>
        <time>2015-02-08T09:59:52Z</time>
      </trkpt>
      <trkpt lat="45.49874" lon="6.617">
        <ele>2050.63</ele>
        <time>2015-02-08T10:00:02Z</time>
      </trkpt>
      <trkpt lat="45.49867" lon="6.61705">
        <ele>2052.55</ele>
        <time>2015-02-08T10:00:14Z</time>
      </trkpt>
      <trkpt lat="45.49863" lon="6.61705">
        <ele>2053.99</ele>
        <time>2015-02-08T10:00:25Z</time>
      </trkpt>
      <trkpt lat="45.49857" lon="6.61709">
        <ele>2054.96</ele>
        <time>2015-02-08T10:00:35Z</time>
      </trkpt>
      <trkpt lat="45.49851" lon="6.6171">
        <ele>2056.88</ele>
        <time>2015-02-08T10:00:46Z</time>
      </trkpt>
      <trkpt lat="45.49851" lon="6.61709">
        <ele>2056.88</ele>
        <time>2015-02-08T10:00:55Z</time>
      </trkpt>
      <trkpt lat="45.4985" lon="6.61711">
        <ele>2057.84</ele>
        <time>2015-02-08T10:01:06Z</time>
      </trkpt>
      <trkpt lat="45.49854" lon="6.6171">
        <ele>2058.32</ele>
        <time>2015-02-08T10:01:12Z</time>
      </trkpt>
      <trkpt lat="45.49859" lon="6.61713">
        <ele>2059.76</ele>
        <time>2015-02-08T10:01:23Z</time>
      </trkpt>
      <trkpt lat="45.49861" lon="6.61714">
        <ele>2060.24</ele>
        <time>2015-02-08T10:01:40Z</time>
      </trkpt>
      <trkpt lat="45.49864" lon="6.61717">
        <ele>2060.72</ele>
        <time>2015-02-08T10:01:56Z</time>
      </trkpt>
      <trkpt lat="45.49861" lon="6.6172">
        <ele>2062.65</ele>
        <time>2015-02-08T10:02:08Z</time>
      </trkpt>
      <trkpt lat="45.49866" lon="6.61723">
        <ele>2063.13</ele>
        <time>2015-02-08T10:02:20Z</time>
      </trkpt>
      <trkpt lat="45.49868" lon="6.61726">
        <ele>2064.57</ele>
        <time>2015-02-08T10:02:33Z</time>
      </trkpt>
      <trkpt lat="45.49867" lon="6.61731">
        <ele>2066.49</ele>
        <time>2015-02-08T10:02:47Z</time>
      </trkpt>
      <trkpt lat="45.49858" lon="6.61735">
        <ele>2068.41</ele>
        <time>2015-02-08T10:02:59Z</time>
      </trkpt>
      <trkpt lat="45.49853" lon="6.61735">
        <ele>2069.86</ele>
        <time>2015-02-08T10:03:11Z</time>
      </trkpt>
      <trkpt lat="45.4985" lon="6.61734">
        <ele>2070.82</ele>
        <time>2015-02-08T10:03:25Z</time>
      </trkpt>
      <trkpt lat="45.49847" lon="6.61734">
        <ele>2071.78</ele>
        <time>2015-02-08T10:03:37Z</time>
      </trkpt>
      <trkpt lat="45.49845" lon="6.61735">
        <ele>2073.22</ele>
        <time>2015-02-08T10:03:52Z</time>
      </trkpt>
      <trkpt lat="45.49851" lon="6.6174">
        <ele>2075.14</ele>
        <time>2015-02-08T10:04:03Z</time>
      </trkpt>
      <trkpt lat="45.49856" lon="6.61745">
        <ele>2076.59</ele>
        <time>2015-02-08T10:04:16Z</time>
      </trkpt>
      <trkpt lat="45.49856" lon="6.61747">
        <ele>2077.07</ele>
        <time>2015-02-08T10:04:21Z</time>
      </trkpt>
      <trkpt lat="45.4984" lon="6.61743">
        <ele>2078.03</ele>
        <time>2015-02-08T10:04:35Z</time>
      </trkpt>
      <trkpt lat="45.49823" lon="6.6174">
        <ele>2080.43</ele>
        <time>2015-02-08T10:04:49Z</time>
      </trkpt>
      <trkpt lat="45.49802" lon="6.61736">
        <ele>2082.83</ele>
        <time>2015-02-08T10:05:05Z</time>
      </trkpt>
      <trkpt lat="45.49785" lon="6.61732">
        <ele>2086.2</ele>
        <time>2015-02-08T10:05:18Z</time>
      </trkpt>
      <trkpt lat="45.49768" lon="6.61721">
        <ele>2088.6</ele>
        <time>2015-02-08T10:05:32Z</time>
      </trkpt>
      <trkpt lat="45.49766" lon="6.6172">
        <ele>2088.6</ele>
        <time>2015-02-08T10:05:33Z</time>
      </trkpt>
      <trkpt lat="45.49746" lon="6.61717">
        <ele>2090.04</ele>
        <time>2015-02-08T10:05:48Z</time>
      </trkpt>
      <trkpt lat="45.49743" lon="6.61717">
        <ele>2090.04</ele>
        <time>2015-02-08T10:05:50Z</time>
      </trkpt>
      <trkpt lat="45.49731" lon="6.61718">
        <ele>2091.49</ele>
        <time>2015-02-08T10:06:00Z</time>
      </trkpt>
      <trkpt lat="45.49717" lon="6.61714">
        <ele>2093.41</ele>
        <time>2015-02-08T10:06:12Z</time>
      </trkpt>
      <trkpt lat="45.49715" lon="6.61714">
        <ele>2093.89</ele>
        <time>2015-02-08T10:06:14Z</time>
      </trkpt>
      <trkpt lat="45.49711" lon="6.61711">
        <ele>2093.89</ele>
        <time>2015-02-08T10:06:19Z</time>
      </trkpt>
      <trkpt lat="45.49708" lon="6.61709">
        <ele>2094.85</ele>
        <time>2015-02-08T10:06:23Z</time>
      </trkpt>
      <trkpt lat="45.497" lon="6.61705">
        <ele>2096.77</ele>
        <time>2015-02-08T10:06:37Z</time>
      </trkpt>
      <trkpt lat="45.49695" lon="6.61702">
        <ele>2098.21</ele>
        <time>2015-02-08T10:06:51Z</time>
      </trkpt>
      <trkpt lat="45.49688" lon="6.61701">
        <ele>2099.66</ele>
        <time>2015-02-08T10:07:03Z</time>
      </trkpt>
      <trkpt lat="45.49682" lon="6.61696">
        <ele>2101.1</ele>
        <time>2015-02-08T10:07:16Z</time>
      </trkpt>
      <trkpt lat="45.49677" lon="6.61694">
        <ele>2102.06</ele>
        <time>2015-02-08T10:07:29Z</time>
      </trkpt>
      <trkpt lat="45.4967" lon="6.61693">
        <ele>2103.5</ele>
        <time>2015-02-08T10:07:43Z</time>
      </trkpt>
      <trkpt lat="45.49663" lon="6.61695">
        <ele>2105.91</ele>
        <time>2015-02-08T10:07:59Z</time>
      </trkpt>
      <trkpt lat="45.49658" lon="6.61697">
        <ele>2107.83</ele>
        <time>2015-02-08T10:08:13Z</time>
      </trkpt>
      <trkpt lat="45.49658" lon="6.61698">
        <ele>2108.31</ele>
        <time>2015-02-08T10:08:28Z</time>
      </trkpt>
      <trkpt lat="45.49658" lon="6.61701">
        <ele>2109.75</ele>
        <time>2015-02-08T10:08:37Z</time>
      </trkpt>
      <trkpt lat="45.49663" lon="6.61708">
        <ele>2110.71</ele>
        <time>2015-02-08T10:08:51Z</time>
      </trkpt>
      <trkpt lat="45.49672" lon="6.61714">
        <ele>2113.6</ele>
        <time>2015-02-08T10:09:04Z</time>
      </trkpt>
      <trkpt lat="45.49665" lon="6.61721">
        <ele>2115.52</ele>
        <time>2015-02-08T10:09:16Z</time>
      </trkpt>
      <trkpt lat="45.49657" lon="6.61722">
        <ele>2116.48</ele>
        <time>2015-02-08T10:09:28Z</time>
      </trkpt>
      <trkpt lat="45.49647" lon="6.61724">
        <ele>2118.4</ele>
        <time>2015-02-08T10:09:44Z</time>
      </trkpt>
      <trkpt lat="45.4964" lon="6.61723">
        <ele>2119.84</ele>
        <time>2015-02-08T10:09:57Z</time>
      </trkpt>
      <trkpt lat="45.49637" lon="6.61719">
        <ele>2120.81</ele>
        <time>2015-02-08T10:10:11Z</time>
      </trkpt>
      <trkpt lat="45.49635" lon="6.6172">
        <ele>2121.77</ele>
        <time>2015-02-08T10:10:22Z</time>
      </trkpt>
      <trkpt lat="45.49637" lon="6.61726">
        <ele>2122.73</ele>
        <time>2015-02-08T10:10:27Z</time>
      </trkpt>
      <trkpt lat="45.4964" lon="6.61729">
        <ele>2123.21</ele>
        <time>2015-02-08T10:10:31Z</time>
      </trkpt>
      <trkpt lat="45.49641" lon="6.61732">
        <ele>2123.69</ele>
        <time>2015-02-08T10:10:34Z</time>
      </trkpt>
      <trkpt lat="45.49647" lon="6.6174">
        <ele>2125.61</ele>
        <time>2015-02-08T10:10:47Z</time>
      </trkpt>
      <trkpt lat="45.49649" lon="6.61741">
        <ele>2125.61</ele>
        <time>2015-02-08T10:10:59Z</time>
      </trkpt>
      <trkpt lat="45.49653" lon="6.61743">
        <ele>2126.57</ele>
        <time>2015-02-08T10:11:11Z</time>
      </trkpt>
      <trkpt lat="45.49647" lon="6.61749">
        <ele>2128.98</ele>
        <time>2015-02-08T10:11:25Z</time>
      </trkpt>
      <trkpt lat="45.49637" lon="6.61751">
        <ele>2130.9</ele>
        <time>2015-02-08T10:11:37Z</time>
      </trkpt>
      <trkpt lat="45.49631" lon="6.61752">
        <ele>2131.86</ele>
        <time>2015-02-08T10:11:50Z</time>
      </trkpt>
      <trkpt lat="45.4963" lon="6.61755">
        <ele>2133.78</ele>
        <time>2015-02-08T10:11:59Z</time>
      </trkpt>
      <trkpt lat="45.49631" lon="6.61757">
        <ele>2133.78</ele>
        <time>2015-02-08T10:12:01Z</time>
      </trkpt>
      <trkpt lat="45.49637" lon="6.61767">
        <ele>2136.19</ele>
        <time>2015-02-08T10:12:15Z</time>
      </trkpt>
      <trkpt lat="45.49642" lon="6.61774">
        <ele>2137.63</ele>
        <time>2015-02-08T10:12:29Z</time>
      </trkpt>
      <trkpt lat="45.49646" lon="6.6178">
        <ele>2138.59</ele>
        <time>2015-02-08T10:12:39Z</time>
      </trkpt>
      <trkpt lat="45.49649" lon="6.61783">
        <ele>2139.55</ele>
        <time>2015-02-08T10:12:48Z</time>
      </trkpt>
      <trkpt lat="45.49651" lon="6.61787">
        <ele>2140.51</ele>
        <time>2015-02-08T10:12:58Z</time>
      </trkpt>
      <trkpt lat="45.49655" lon="6.61788">
        <ele>2141.95</ele>
        <time>2015-02-08T10:13:08Z</time>
      </trkpt>
      <trkpt lat="45.4966" lon="6.61791">
        <ele>2142.44</ele>
        <time>2015-02-08T10:13:19Z</time>
      </trkpt>
      <trkpt lat="45.49666" lon="6.61794">
        <ele>2143.4</ele>
        <time>2015-02-08T10:13:30Z</time>
      </trkpt>
      <trkpt lat="45.49672" lon="6.61799">
        <ele>2145.8</ele>
        <time>2015-02-08T10:13:41Z</time>
      </trkpt>
      <trkpt lat="45.49675" lon="6.61806">
        <ele>2146.76</ele>
        <time>2015-02-08T10:13:52Z</time>
      </trkpt>
      <trkpt lat="45.49676" lon="6.61817">
        <ele>2147.72</ele>
        <time>2015-02-08T10:14:03Z</time>
      </trkpt>
      <trkpt lat="45.49675" lon="6.61828">
        <ele>2148.68</ele>
        <time>2015-02-08T10:14:17Z</time>
      </trkpt>
      <trkpt lat="45.49676" lon="6.61837">
        <ele>2150.13</ele>
        <time>2015-02-08T10:14:28Z</time>
      </trkpt>
      <trkpt lat="45.49678" lon="6.61847">
        <ele>2151.57</ele>
        <time>2015-02-08T10:14:41Z</time>
      </trkpt>
      <trkpt lat="45.4968" lon="6.61855">
        <ele>2152.53</ele>
        <time>2015-02-08T10:14:54Z</time>
      </trkpt>
      <trkpt lat="45.49683" lon="6.61862">
        <ele>2154.45</ele>
        <time>2015-02-08T10:15:06Z</time>
      </trkpt>
      <trkpt lat="45.49688" lon="6.61868">
        <ele>2155.41</ele>
        <time>2015-02-08T10:15:18Z</time>
      </trkpt>
      <trkpt lat="45.49691" lon="6.61873">
        <ele>2156.37</ele>
        <time>2015-02-08T10:15:29Z</time>
      </trkpt>
      <trkpt lat="45.49695" lon="6.61877">
        <ele>2157.82</ele>
        <time>2015-02-08T10:15:42Z</time>
      </trkpt>
      <trkpt lat="45.49698" lon="6.61881">
        <ele>2159.74</ele>
        <time>2015-02-08T10:15:54Z</time>
      </trkpt>
      <trkpt lat="45.49704" lon="6.6189">
        <ele>2161.18</ele>
        <time>2015-02-08T10:16:10Z</time>
      </trkpt>
      <trkpt lat="45.49707" lon="6.61895">
        <ele>2163.1</ele>
        <time>2015-02-08T10:16:21Z</time>
      </trkpt>
      <trkpt lat="45.49706" lon="6.61902">
        <ele>2165.03</ele>
        <time>2015-02-08T10:16:31Z</time>
      </trkpt>
      <trkpt lat="45.4971" lon="6.61912">
        <ele>2166.47</ele>
        <time>2015-02-08T10:16:44Z</time>
      </trkpt>
      <trkpt lat="45.49714" lon="6.61928">
        <ele>2169.83</ele>
        <time>2015-02-08T10:16:58Z</time>
      </trkpt>
      <trkpt lat="45.49715" lon="6.61933">
        <ele>2170.31</ele>
        <time>2015-02-08T10:17:02Z</time>
      </trkpt>
      <trkpt lat="45.49718" lon="6.61943">
        <ele>2172.24</ele>
        <time>2015-02-08T10:17:10Z</time>
      </trkpt>
      <trkpt lat="45.49727" lon="6.61949">
        <ele>2176.08</ele>
        <time>2015-02-08T10:17:22Z</time>
      </trkpt>
      <trkpt lat="45.49734" lon="6.61955">
        <ele>2178.97</ele>
        <time>2015-02-08T10:17:32Z</time>
      </trkpt>
      <trkpt lat="45.49742" lon="6.6197">
        <ele>2181.85</ele>
        <time>2015-02-08T10:17:45Z</time>
      </trkpt>
      <trkpt lat="45.49743" lon="6.61976">
        <ele>2182.81</ele>
        <time>2015-02-08T10:17:49Z</time>
      </trkpt>
      <trkpt lat="45.49743" lon="6.61983">
        <ele>2184.25</ele>
        <time>2015-02-08T10:17:53Z</time>
      </trkpt>
      <trkpt lat="45.49741" lon="6.61989">
        <ele>2185.21</ele>
        <time>2015-02-08T10:17:57Z</time>
      </trkpt>
      <trkpt lat="45.49745" lon="6.61998">
        <ele>2187.62</ele>
        <time>2015-02-08T10:18:10Z</time>
      </trkpt>
      <trkpt lat="45.49745" lon="6.61997">
        <ele>2187.62</ele>
        <time>2015-02-08T10:18:25Z</time>
      </trkpt>
      <trkpt lat="45.49744" lon="6.61998">
        <ele>2187.14</ele>
        <time>2015-02-08T10:18:45Z</time>
      </trkpt>
      <trkpt lat="45.49743" lon="6.61996">
        <ele>2187.14</ele>
        <time>2015-02-08T10:19:09Z</time>
      </trkpt>
      <trkpt lat="45.49745" lon="6.62">
        <ele>2187.14</ele>
        <time>2015-02-08T10:19:25Z</time>
      </trkpt>
      <trkpt lat="45.49745" lon="6.62">
        <ele>2187.62</ele>
        <time>2015-02-08T10:19:40Z</time>
      </trkpt>
      <trkpt lat="45.49747" lon="6.61999">
        <ele>2187.62</ele>
        <time>2015-02-08T10:19:59Z</time>
      </trkpt>
      <trkpt lat="45.49753" lon="6.61998">
        <ele>2188.58</ele>
        <time>2015-02-08T10:20:10Z</time>
      </trkpt>
      <trkpt lat="45.49758" lon="6.61994">
        <ele>2189.54</ele>
        <time>2015-02-08T10:20:22Z</time>
      </trkpt>
      <trkpt lat="45.4976" lon="6.61993">
        <ele>2190.98</ele>
        <time>2015-02-08T10:20:33Z</time>
      </trkpt>
      <trkpt lat="45.49759" lon="6.62005">
        <ele>2193.39</ele>
        <time>2015-02-08T10:20:46Z</time>
      </trkpt>
      <trkpt lat="45.49758" lon="6.62014">
        <ele>2194.83</ele>
        <time>2015-02-08T10:20:59Z</time>
      </trkpt>
      <trkpt lat="45.49758" lon="6.62026">
        <ele>2195.31</ele>
        <time>2015-02-08T10:21:11Z</time>
      </trkpt>
      <trkpt lat="45.49756" lon="6.62035">
        <ele>2197.23</ele>
        <time>2015-02-08T10:21:24Z</time>
      </trkpt>
      <trkpt lat="45.49754" lon="6.62042">
        <ele>2198.67</ele>
        <time>2015-02-08T10:21:36Z</time>
      </trkpt>
      <trkpt lat="45.49751" lon="6.62046">
        <ele>2199.15</ele>
        <time>2015-02-08T10:21:47Z</time>
      </trkpt>
      <trkpt lat="45.49746" lon="6.62049">
        <ele>2200.11</ele>
        <time>2015-02-08T10:21:58Z</time>
      </trkpt>
      <trkpt lat="45.49749" lon="6.62053">
        <ele>2201.56</ele>
        <time>2015-02-08T10:22:06Z</time>
      </trkpt>
      <trkpt lat="45.49755" lon="6.62058">
        <ele>2202.52</ele>
        <time>2015-02-08T10:22:18Z</time>
      </trkpt>
      <trkpt lat="45.4976" lon="6.62059">
        <ele>2203.48</ele>
        <time>2015-02-08T10:22:31Z</time>
      </trkpt>
      <trkpt lat="45.49767" lon="6.62055">
        <ele>2204.92</ele>
        <time>2015-02-08T10:22:45Z</time>
      </trkpt>
      <trkpt lat="45.49773" lon="6.6205">
        <ele>2206.84</ele>
        <time>2015-02-08T10:22:59Z</time>
      </trkpt>
      <trkpt lat="45.49778" lon="6.62044">
        <ele>2207.81</ele>
        <time>2015-02-08T10:23:13Z</time>
      </trkpt>
      <trkpt lat="45.49782" lon="6.62052">
        <ele>2210.21</ele>
        <time>2015-02-08T10:23:23Z</time>
      </trkpt>
      <trkpt lat="45.49782" lon="6.6206">
        <ele>2211.65</ele>
        <time>2015-02-08T10:23:36Z</time>
      </trkpt>
      <trkpt lat="45.49782" lon="6.62061">
        <ele>2212.13</ele>
        <time>2015-02-08T10:23:47Z</time>
      </trkpt>
      <trkpt lat="45.49783" lon="6.62061">
        <ele>2212.61</ele>
        <time>2015-02-08T10:24:19Z</time>
      </trkpt>
      <trkpt lat="45.49783" lon="6.62061">
        <ele>2212.61</ele>
        <time>2015-02-08T10:24:52Z</time>
      </trkpt>
      <trkpt lat="45.49781" lon="6.62071">
        <ele>2213.57</ele>
        <time>2015-02-08T10:25:01Z</time>
      </trkpt>
      <trkpt lat="45.49779" lon="6.62086">
        <ele>2216.46</ele>
        <time>2015-02-08T10:25:14Z</time>
      </trkpt>
      <trkpt lat="45.49776" lon="6.62099">
        <ele>2219.34</ele>
        <time>2015-02-08T10:25:27Z</time>
      </trkpt>
      <trkpt lat="45.49773" lon="6.62109">
        <ele>2222.71</ele>
        <time>2015-02-08T10:25:40Z</time>
      </trkpt>
      <trkpt lat="45.4977" lon="6.62121">
        <ele>2225.59</ele>
        <time>2015-02-08T10:25:55Z</time>
      </trkpt>
      <trkpt lat="45.49777" lon="6.62123">
        <ele>2227.51</ele>
        <time>2015-02-08T10:26:07Z</time>
      </trkpt>
      <trkpt lat="45.49781" lon="6.62127">
        <ele>2229.92</ele>
        <time>2015-02-08T10:26:19Z</time>
      </trkpt>
      <trkpt lat="45.49781" lon="6.62139">
        <ele>2232.8</ele>
        <time>2015-02-08T10:26:32Z</time>
      </trkpt>
      <trkpt lat="45.49777" lon="6.62149">
        <ele>2234.24</ele>
        <time>2015-02-08T10:26:45Z</time>
      </trkpt>
      <trkpt lat="45.49774" lon="6.62155">
        <ele>2235.68</ele>
        <time>2015-02-08T10:26:57Z</time>
      </trkpt>
      <trkpt lat="45.49771" lon="6.6216">
        <ele>2236.64</ele>
        <time>2015-02-08T10:27:09Z</time>
      </trkpt>
      <trkpt lat="45.49769" lon="6.62166">
        <ele>2238.57</ele>
        <time>2015-02-08T10:27:21Z</time>
      </trkpt>
      <trkpt lat="45.4977" lon="6.62173">
        <ele>2240.01</ele>
        <time>2015-02-08T10:27:34Z</time>
      </trkpt>
      <trkpt lat="45.49775" lon="6.62178">
        <ele>2241.93</ele>
        <time>2015-02-08T10:27:48Z</time>
      </trkpt>
      <trkpt lat="45.49782" lon="6.62182">
        <ele>2242.89</ele>
        <time>2015-02-08T10:28:01Z</time>
      </trkpt>
      <trkpt lat="45.49788" lon="6.62185">
        <ele>2244.82</ele>
        <time>2015-02-08T10:28:14Z</time>
      </trkpt>
      <trkpt lat="45.49793" lon="6.62186">
        <ele>2246.74</ele>
        <time>2015-02-08T10:28:26Z</time>
      </trkpt>
      <trkpt lat="45.49798" lon="6.62188">
        <ele>2247.7</ele>
        <time>2015-02-08T10:28:38Z</time>
      </trkpt>
      <trkpt lat="45.49802" lon="6.62189">
        <ele>2249.14</ele>
        <time>2015-02-08T10:28:51Z</time>
      </trkpt>
      <trkpt lat="45.49809" lon="6.6219">
        <ele>2251.06</ele>
        <time>2015-02-08T10:29:06Z</time>
      </trkpt>
      <trkpt lat="45.49815" lon="6.62191">
        <ele>2252.99</ele>
        <time>2015-02-08T10:29:21Z</time>
      </trkpt>
      <trkpt lat="45.49819" lon="6.62191">
        <ele>2253.95</ele>
        <time>2015-02-08T10:29:35Z</time>
      </trkpt>
      <trkpt lat="45.49823" lon="6.62193">
        <ele>2254.91</ele>
        <time>2015-02-08T10:29:40Z</time>
      </trkpt>
      <trkpt lat="45.49828" lon="6.62196">
        <ele>2255.87</ele>
        <time>2015-02-08T10:29:58Z</time>
      </trkpt>
      <trkpt lat="45.49836" lon="6.62199">
        <ele>2258.75</ele>
        <time>2015-02-08T10:30:10Z</time>
      </trkpt>
      <trkpt lat="45.4984" lon="6.622">
        <ele>2260.2</ele>
        <time>2015-02-08T10:30:22Z</time>
      </trkpt>
      <trkpt lat="45.49842" lon="6.62202">
        <ele>2261.64</ele>
        <time>2015-02-08T10:30:38Z</time>
      </trkpt>
      <trkpt lat="45.4985" lon="6.62206">
        <ele>2264.52</ele>
        <time>2015-02-08T10:30:52Z</time>
      </trkpt>
      <trkpt lat="45.49856" lon="6.6221">
        <ele>2266.45</ele>
        <time>2015-02-08T10:31:02Z</time>
      </trkpt>
      <trkpt lat="45.4986" lon="6.62212">
        <ele>2266.45</ele>
        <time>2015-02-08T10:31:21Z</time>
      </trkpt>
      <trkpt lat="45.4986" lon="6.62212">
        <ele>2267.41</ele>
        <time>2015-02-08T10:31:22Z</time>
      </trkpt>
      <trkpt lat="45.49863" lon="6.62216">
        <ele>2268.37</ele>
        <time>2015-02-08T10:31:26Z</time>
      </trkpt>
      <trkpt lat="45.49863" lon="6.62229">
        <ele>2269.81</ele>
        <time>2015-02-08T10:31:39Z</time>
      </trkpt>
      <trkpt lat="45.49865" lon="6.62233">
        <ele>2270.77</ele>
        <time>2015-02-08T10:31:53Z</time>
      </trkpt>
      <trkpt lat="45.49867" lon="6.62241">
        <ele>2272.69</ele>
        <time>2015-02-08T10:32:07Z</time>
      </trkpt>
      <trkpt lat="45.4987" lon="6.62247">
        <ele>2275.58</ele>
        <time>2015-02-08T10:32:19Z</time>
      </trkpt>
      <trkpt lat="45.49872" lon="6.62254">
        <ele>2276.54</ele>
        <time>2015-02-08T10:32:31Z</time>
      </trkpt>
      <trkpt lat="45.49872" lon="6.6226">
        <ele>2277.98</ele>
        <time>2015-02-08T10:32:49Z</time>
      </trkpt>
      <trkpt lat="45.49874" lon="6.62269">
        <ele>2280.38</ele>
        <time>2015-02-08T10:33:01Z</time>
      </trkpt>
      <trkpt lat="45.49876" lon="6.62275">
        <ele>2281.83</ele>
        <time>2015-02-08T10:33:13Z</time>
      </trkpt>
      <trkpt lat="45.49876" lon="6.62278">
        <ele>2282.79</ele>
        <time>2015-02-08T10:33:24Z</time>
      </trkpt>
      <trkpt lat="45.49877" lon="6.62284">
        <ele>2284.23</ele>
        <time>2015-02-08T10:33:35Z</time>
      </trkpt>
      <trkpt lat="45.49868" lon="6.62285">
        <ele>2286.15</ele>
        <time>2015-02-08T10:33:46Z</time>
      </trkpt>
      <trkpt lat="45.49863" lon="6.62284">
        <ele>2287.11</ele>
        <time>2015-02-08T10:33:56Z</time>
      </trkpt>
      <trkpt lat="45.49857" lon="6.62285">
        <ele>2288.08</ele>
        <time>2015-02-08T10:34:09Z</time>
      </trkpt>
      <trkpt lat="45.49848" lon="6.62287">
        <ele>2290</ele>
        <time>2015-02-08T10:34:24Z</time>
      </trkpt>
      <trkpt lat="45.49843" lon="6.62288">
        <ele>2290.96</ele>
        <time>2015-02-08T10:34:33Z</time>
      </trkpt>
      <trkpt lat="45.49837" lon="6.62277">
        <ele>2289.04</ele>
        <time>2015-02-08T10:34:41Z</time>
      </trkpt>
      <trkpt lat="45.4983" lon="6.6226">
        <ele>2284.71</ele>
        <time>2015-02-08T10:34:54Z</time>
      </trkpt>
      <trkpt lat="45.49829" lon="6.62252">
        <ele>2283.27</ele>
        <time>2015-02-08T10:35:06Z</time>
      </trkpt>
      <trkpt lat="45.49828" lon="6.62253">
        <ele>2283.27</ele>
        <time>2015-02-08T10:35:29Z</time>
      </trkpt>
      <trkpt lat="45.49829" lon="6.62255">
        <ele>2283.27</ele>
        <time>2015-02-08T10:36:00Z</time>
      </trkpt>
      <trkpt lat="45.49829" lon="6.62255">
        <ele>2283.27</ele>
        <time>2015-02-08T10:36:03Z</time>
      </trkpt>
      <trkpt lat="45.49829" lon="6.62257">
        <ele>2283.27</ele>
        <time>2015-02-08T10:36:13Z</time>
      </trkpt>
      <trkpt lat="45.49829" lon="6.62255">
        <ele>2283.27</ele>
        <time>2015-02-08T10:36:33Z</time>
      </trkpt>
      <trkpt lat="45.4983" lon="6.62257">
        <ele>2284.23</ele>
        <time>2015-02-08T10:36:35Z</time>
      </trkpt>
      <trkpt lat="45.49835" lon="6.6227">
        <ele>2287.11</ele>
        <time>2015-02-08T10:36:51Z</time>
      </trkpt>
      <trkpt lat="45.4984" lon="6.62279">
        <ele>2289.52</ele>
        <time>2015-02-08T10:37:04Z</time>
      </trkpt>
      <trkpt lat="45.4984" lon="6.6228">
        <ele>2290</ele>
        <time>2015-02-08T10:37:05Z</time>
      </trkpt>
      <trkpt lat="45.49839" lon="6.6229">
        <ele>2292.88</ele>
        <time>2015-02-08T10:37:17Z</time>
      </trkpt>
      <trkpt lat="45.49839" lon="6.623">
        <ele>2294.8</ele>
        <time>2015-02-08T10:37:28Z</time>
      </trkpt>
      <trkpt lat="45.49844" lon="6.6231">
        <ele>2297.21</ele>
        <time>2015-02-08T10:37:41Z</time>
      </trkpt>
      <trkpt lat="45.49848" lon="6.62314">
        <ele>2299.61</ele>
        <time>2015-02-08T10:37:52Z</time>
      </trkpt>
      <trkpt lat="45.49846" lon="6.62319">
        <ele>2300.57</ele>
        <time>2015-02-08T10:37:56Z</time>
      </trkpt>
      <trkpt lat="45.49842" lon="6.62331">
        <ele>2302.49</ele>
        <time>2015-02-08T10:38:10Z</time>
      </trkpt>
      <trkpt lat="45.49839" lon="6.62346">
        <ele>2304.9</ele>
        <time>2015-02-08T10:38:24Z</time>
      </trkpt>
      <trkpt lat="45.49835" lon="6.6236">
        <ele>2307.78</ele>
        <time>2015-02-08T10:38:37Z</time>
      </trkpt>
      <trkpt lat="45.49833" lon="6.62379">
        <ele>2309.7</ele>
        <time>2015-02-08T10:38:55Z</time>
      </trkpt>
      <trkpt lat="45.49834" lon="6.62393">
        <ele>2311.15</ele>
        <time>2015-02-08T10:39:07Z</time>
      </trkpt>
      <trkpt lat="45.49838" lon="6.62409">
        <ele>2314.03</ele>
        <time>2015-02-08T10:39:23Z</time>
      </trkpt>
      <trkpt lat="45.49839" lon="6.62413">
        <ele>2314.99</ele>
        <time>2015-02-08T10:39:35Z</time>
      </trkpt>
      <trkpt lat="45.49839" lon="6.62414">
        <ele>2314.99</ele>
        <time>2015-02-08T10:39:54Z</time>
      </trkpt>
      <trkpt lat="45.49838" lon="6.62411">
        <ele>2314.99</ele>
        <time>2015-02-08T10:40:15Z</time>
      </trkpt>
      <trkpt lat="45.49837" lon="6.6241">
        <ele>2314.99</ele>
        <time>2015-02-08T10:40:27Z</time>
      </trkpt>
      <trkpt lat="45.49836" lon="6.62405">
        <ele>2314.99</ele>
        <time>2015-02-08T10:40:58Z</time>
      </trkpt>
      <trkpt lat="45.49836" lon="6.62401">
        <ele>2314.99</ele>
        <time>2015-02-08T10:41:32Z</time>
      </trkpt>
      <trkpt lat="45.49836" lon="6.62403">
        <ele>2314.99</ele>
        <time>2015-02-08T10:41:53Z</time>
      </trkpt>
      <trkpt lat="45.49837" lon="6.62409">
        <ele>2314.99</ele>
        <time>2015-02-08T10:42:15Z</time>
      </trkpt>
      <trkpt lat="45.49837" lon="6.62414">
        <ele>2314.99</ele>
        <time>2015-02-08T10:42:39Z</time>
      </trkpt>
      <trkpt lat="45.49837" lon="6.62412">
        <ele>2314.99</ele>
        <time>2015-02-08T10:42:55Z</time>
      </trkpt>
      <trkpt lat="45.49837" lon="6.62407">
        <ele>2314.03</ele>
        <time>2015-02-08T10:43:25Z</time>
      </trkpt>
      <trkpt lat="45.49837" lon="6.62411">
        <ele>2314.03</ele>
        <time>2015-02-08T10:43:46Z</time>
      </trkpt>
      <trkpt lat="45.49837" lon="6.62411">
        <ele>2314.03</ele>
        <time>2015-02-08T10:44:00Z</time>
      </trkpt>
      <trkpt lat="45.49837" lon="6.62415">
        <ele>2314.03</ele>
        <time>2015-02-08T10:44:20Z</time>
      </trkpt>
      <trkpt lat="45.49837" lon="6.62414">
        <ele>2313.55</ele>
        <time>2015-02-08T10:44:42Z</time>
      </trkpt>
      <trkpt lat="45.49838" lon="6.62415">
        <ele>2313.55</ele>
        <time>2015-02-08T10:44:54Z</time>
      </trkpt>
      <trkpt lat="45.49839" lon="6.62415">
        <ele>2313.55</ele>
        <time>2015-02-08T10:45:16Z</time>
      </trkpt>
      <trkpt lat="45.49838" lon="6.62417">
        <ele>2313.55</ele>
        <time>2015-02-08T10:45:29Z</time>
      </trkpt>
      <trkpt lat="45.49839" lon="6.62416">
        <ele>2313.55</ele>
        <time>2015-02-08T10:45:45Z</time>
      </trkpt>
      <trkpt lat="45.49839" lon="6.62417">
        <ele>2313.55</ele>
        <time>2015-02-08T10:46:03Z</time>
      </trkpt>
      <trkpt lat="45.49838" lon="6.62416">
        <ele>2313.55</ele>
        <time>2015-02-08T10:46:23Z</time>
      </trkpt>
      <trkpt lat="45.49839" lon="6.62417">
        <ele>2313.55</ele>
        <time>2015-02-08T10:46:40Z</time>
      </trkpt>
      <trkpt lat="45.49838" lon="6.62414">
        <ele>2313.55</ele>
        <time>2015-02-08T10:47:13Z</time>
      </trkpt>
      <trkpt lat="45.49839" lon="6.62415">
        <ele>2313.55</ele>
        <time>2015-02-08T10:47:34Z</time>
      </trkpt>
      <trkpt lat="45.49839" lon="6.62417">
        <ele>2313.07</ele>
        <time>2015-02-08T10:47:56Z</time>
      </trkpt>
      <trkpt lat="45.49838" lon="6.62416">
        <ele>2313.07</ele>
        <time>2015-02-08T10:48:08Z</time>
      </trkpt>
      <trkpt lat="45.49841" lon="6.62415">
        <ele>2313.07</ele>
        <time>2015-02-08T10:48:21Z</time>
      </trkpt>
      <trkpt lat="45.49846" lon="6.62412">
        <ele>2313.07</ele>
        <time>2015-02-08T10:48:31Z</time>
      </trkpt>
      <trkpt lat="45.49848" lon="6.62411">
        <ele>2314.03</ele>
        <time>2015-02-08T10:48:34Z</time>
      </trkpt>
      <trkpt lat="45.49855" lon="6.62404">
        <ele>2316.91</ele>
        <time>2015-02-08T10:48:46Z</time>
      </trkpt>
      <trkpt lat="45.49861" lon="6.624">
        <ele>2319.32</ele>
        <time>2015-02-08T10:49:00Z</time>
      </trkpt>
      <trkpt lat="45.49866" lon="6.62395">
        <ele>2321.72</ele>
        <time>2015-02-08T10:49:12Z</time>
      </trkpt>
      <trkpt lat="45.49867" lon="6.62394">
        <ele>2322.68</ele>
        <time>2015-02-08T10:49:25Z</time>
      </trkpt>
      <trkpt lat="45.49872" lon="6.6239">
        <ele>2324.12</ele>
        <time>2015-02-08T10:49:36Z</time>
      </trkpt>
      <trkpt lat="45.49874" lon="6.62385">
        <ele>2325.57</ele>
        <time>2015-02-08T10:49:48Z</time>
      </trkpt>
      <trkpt lat="45.49877" lon="6.6238">
        <ele>2327.01</ele>
        <time>2015-02-08T10:50:00Z</time>
      </trkpt>
      <trkpt lat="45.49881" lon="6.62376">
        <ele>2327.97</ele>
        <time>2015-02-08T10:50:11Z</time>
      </trkpt>
      <trkpt lat="45.49884" lon="6.62375">
        <ele>2329.41</ele>
        <time>2015-02-08T10:50:23Z</time>
      </trkpt>
      <trkpt lat="45.49884" lon="6.62378">
        <ele>2329.89</ele>
        <time>2015-02-08T10:50:32Z</time>
      </trkpt>
      <trkpt lat="45.49884" lon="6.62383">
        <ele>2331.33</ele>
        <time>2015-02-08T10:50:39Z</time>
      </trkpt>
      <trkpt lat="45.49885" lon="6.62389">
        <ele>2331.81</ele>
        <time>2015-02-08T10:50:49Z</time>
      </trkpt>
      <trkpt lat="45.49887" lon="6.62397">
        <ele>2334.22</ele>
        <time>2015-02-08T10:51:01Z</time>
      </trkpt>
      <trkpt lat="45.49889" lon="6.62404">
        <ele>2335.66</ele>
        <time>2015-02-08T10:51:12Z</time>
      </trkpt>
      <trkpt lat="45.49889" lon="6.62408">
        <ele>2336.62</ele>
        <time>2015-02-08T10:51:23Z</time>
      </trkpt>
      <trkpt lat="45.49889" lon="6.62418">
        <ele>2338.54</ele>
        <time>2015-02-08T10:51:36Z</time>
      </trkpt>
      <trkpt lat="45.4989" lon="6.62427">
        <ele>2340.47</ele>
        <time>2015-02-08T10:51:52Z</time>
      </trkpt>
      <trkpt lat="45.4989" lon="6.62437">
        <ele>2341.91</ele>
        <time>2015-02-08T10:52:06Z</time>
      </trkpt>
      <trkpt lat="45.49891" lon="6.62442">
        <ele>2342.87</ele>
        <time>2015-02-08T10:52:26Z</time>
      </trkpt>
      <trkpt lat="45.49893" lon="6.62447">
        <ele>2344.79</ele>
        <time>2015-02-08T10:52:42Z</time>
      </trkpt>
      <trkpt lat="45.49895" lon="6.62443">
        <ele>2345.27</ele>
        <time>2015-02-08T10:52:50Z</time>
      </trkpt>
      <trkpt lat="45.49903" lon="6.62432">
        <ele>2348.16</ele>
        <time>2015-02-08T10:53:02Z</time>
      </trkpt>
      <trkpt lat="45.49909" lon="6.62423">
        <ele>2351.04</ele>
        <time>2015-02-08T10:53:15Z</time>
      </trkpt>
      <trkpt lat="45.49915" lon="6.62421">
        <ele>2353.44</ele>
        <time>2015-02-08T10:53:28Z</time>
      </trkpt>
      <trkpt lat="45.49916" lon="6.62422">
        <ele>2353.44</ele>
        <time>2015-02-08T10:53:31Z</time>
      </trkpt>
      <trkpt lat="45.49923" lon="6.62427">
        <ele>2355.85</ele>
        <time>2015-02-08T10:53:44Z</time>
      </trkpt>
      <trkpt lat="45.49926" lon="6.62431">
        <ele>2357.77</ele>
        <time>2015-02-08T10:53:58Z</time>
      </trkpt>
      <trkpt lat="45.4993" lon="6.62435">
        <ele>2359.21</ele>
        <time>2015-02-08T10:54:10Z</time>
      </trkpt>
      <trkpt lat="45.49933" lon="6.62439">
        <ele>2360.65</ele>
        <time>2015-02-08T10:54:24Z</time>
      </trkpt>
      <trkpt lat="45.49931" lon="6.62443">
        <ele>2362.1</ele>
        <time>2015-02-08T10:54:36Z</time>
      </trkpt>
      <trkpt lat="45.49927" lon="6.6245">
        <ele>2364.02</ele>
        <time>2015-02-08T10:54:48Z</time>
      </trkpt>
      <trkpt lat="45.49924" lon="6.62457">
        <ele>2365.46</ele>
        <time>2015-02-08T10:55:00Z</time>
      </trkpt>
      <trkpt lat="45.49922" lon="6.62464">
        <ele>2367.86</ele>
        <time>2015-02-08T10:55:13Z</time>
      </trkpt>
      <trkpt lat="45.49923" lon="6.62471">
        <ele>2368.83</ele>
        <time>2015-02-08T10:55:24Z</time>
      </trkpt>
      <trkpt lat="45.4993" lon="6.62472">
        <ele>2371.23</ele>
        <time>2015-02-08T10:55:36Z</time>
      </trkpt>
      <trkpt lat="45.49936" lon="6.62474">
        <ele>2373.15</ele>
        <time>2015-02-08T10:55:50Z</time>
      </trkpt>
      <trkpt lat="45.49942" lon="6.6248">
        <ele>2374.59</ele>
        <time>2015-02-08T10:56:04Z</time>
      </trkpt>
      <trkpt lat="45.49948" lon="6.62485">
        <ele>2376.04</ele>
        <time>2015-02-08T10:56:16Z</time>
      </trkpt>
      <trkpt lat="45.49954" lon="6.62491">
        <ele>2377.48</ele>
        <time>2015-02-08T10:56:31Z</time>
      </trkpt>
      <trkpt lat="45.49957" lon="6.62497">
        <ele>2378.92</ele>
        <time>2015-02-08T10:56:44Z</time>
      </trkpt>
      <trkpt lat="45.49961" lon="6.62503">
        <ele>2380.84</ele>
        <time>2015-02-08T10:56:57Z</time>
      </trkpt>
      <trkpt lat="45.49965" lon="6.62509">
        <ele>2382.28</ele>
        <time>2015-02-08T10:57:10Z</time>
      </trkpt>
      <trkpt lat="45.49964" lon="6.62513">
        <ele>2383.25</ele>
        <time>2015-02-08T10:57:20Z</time>
      </trkpt>
      <trkpt lat="45.4996" lon="6.62517">
        <ele>2384.69</ele>
        <time>2015-02-08T10:57:32Z</time>
      </trkpt>
      <trkpt lat="45.49959" lon="6.62522">
        <ele>2385.65</ele>
        <time>2015-02-08T10:57:42Z</time>
      </trkpt>
      <trkpt lat="45.49956" lon="6.62528">
        <ele>2388.05</ele>
        <time>2015-02-08T10:57:54Z</time>
      </trkpt>
      <trkpt lat="45.49956" lon="6.62535">
        <ele>2389.49</ele>
        <time>2015-02-08T10:58:06Z</time>
      </trkpt>
      <trkpt lat="45.49955" lon="6.62542">
        <ele>2390.94</ele>
        <time>2015-02-08T10:58:17Z</time>
      </trkpt>
      <trkpt lat="45.49959" lon="6.62546">
        <ele>2392.86</ele>
        <time>2015-02-08T10:58:29Z</time>
      </trkpt>
      <trkpt lat="45.49964" lon="6.62547">
        <ele>2394.3</ele>
        <time>2015-02-08T10:58:42Z</time>
      </trkpt>
      <trkpt lat="45.4997" lon="6.62549">
        <ele>2395.74</ele>
        <time>2015-02-08T10:58:56Z</time>
      </trkpt>
      <trkpt lat="45.49975" lon="6.62552">
        <ele>2397.18</ele>
        <time>2015-02-08T10:59:09Z</time>
      </trkpt>
      <trkpt lat="45.49978" lon="6.62555">
        <ele>2398.15</ele>
        <time>2015-02-08T10:59:20Z</time>
      </trkpt>
      <trkpt lat="45.49975" lon="6.62563">
        <ele>2399.59</ele>
        <time>2015-02-08T10:59:33Z</time>
      </trkpt>
      <trkpt lat="45.49974" lon="6.62571">
        <ele>2401.51</ele>
        <time>2015-02-08T10:59:46Z</time>
      </trkpt>
      <trkpt lat="45.49976" lon="6.62576">
        <ele>2402.47</ele>
        <time>2015-02-08T10:59:58Z</time>
      </trkpt>
      <trkpt lat="45.49982" lon="6.62583">
        <ele>2404.39</ele>
        <time>2015-02-08T11:00:11Z</time>
      </trkpt>
      <trkpt lat="45.49989" lon="6.62588">
        <ele>2406.32</ele>
        <time>2015-02-08T11:00:24Z</time>
      </trkpt>
      <trkpt lat="45.49995" lon="6.62593">
        <ele>2408.72</ele>
        <time>2015-02-08T11:00:40Z</time>
      </trkpt>
      <trkpt lat="45.49997" lon="6.62598">
        <ele>2410.16</ele>
        <time>2015-02-08T11:00:54Z</time>
      </trkpt>
      <trkpt lat="45.50003" lon="6.62601">
        <ele>2412.09</ele>
        <time>2015-02-08T11:01:08Z</time>
      </trkpt>
      <trkpt lat="45.50006" lon="6.62604">
        <ele>2413.05</ele>
        <time>2015-02-08T11:01:19Z</time>
      </trkpt>
      <trkpt lat="45.50009" lon="6.62613">
        <ele>2414.49</ele>
        <time>2015-02-08T11:01:33Z</time>
      </trkpt>
      <trkpt lat="45.50009" lon="6.62622">
        <ele>2416.41</ele>
        <time>2015-02-08T11:01:46Z</time>
      </trkpt>
      <trkpt lat="45.50011" lon="6.62632">
        <ele>2418.33</ele>
        <time>2015-02-08T11:02:00Z</time>
      </trkpt>
      <trkpt lat="45.50012" lon="6.62642">
        <ele>2419.3</ele>
        <time>2015-02-08T11:02:13Z</time>
      </trkpt>
      <trkpt lat="45.50013" lon="6.6265">
        <ele>2420.26</ele>
        <time>2015-02-08T11:02:25Z</time>
      </trkpt>
      <trkpt lat="45.50013" lon="6.6266">
        <ele>2422.18</ele>
        <time>2015-02-08T11:02:39Z</time>
      </trkpt>
      <trkpt lat="45.50014" lon="6.62671">
        <ele>2424.1</ele>
        <time>2015-02-08T11:02:53Z</time>
      </trkpt>
      <trkpt lat="45.50015" lon="6.62679">
        <ele>2424.58</ele>
        <time>2015-02-08T11:03:02Z</time>
      </trkpt>
      <trkpt lat="45.50016" lon="6.62684">
        <ele>2426.5</ele>
        <time>2015-02-08T11:03:16Z</time>
      </trkpt>
      <trkpt lat="45.5002" lon="6.62693">
        <ele>2427.47</ele>
        <time>2015-02-08T11:03:27Z</time>
      </trkpt>
      <trkpt lat="45.5002" lon="6.62704">
        <ele>2429.87</ele>
        <time>2015-02-08T11:03:39Z</time>
      </trkpt>
      <trkpt lat="45.50021" lon="6.62712">
        <ele>2431.31</ele>
        <time>2015-02-08T11:03:48Z</time>
      </trkpt>
      <trkpt lat="45.50021" lon="6.62714">
        <ele>2431.79</ele>
        <time>2015-02-08T11:04:04Z</time>
      </trkpt>
      <trkpt lat="45.50026" lon="6.62718">
        <ele>2432.75</ele>
        <time>2015-02-08T11:04:19Z</time>
      </trkpt>
      <trkpt lat="45.50033" lon="6.62723">
        <ele>2435.64</ele>
        <time>2015-02-08T11:04:33Z</time>
      </trkpt>
      <trkpt lat="45.50031" lon="6.62722">
        <ele>2435.64</ele>
        <time>2015-02-08T11:04:46Z</time>
      </trkpt>
      <trkpt lat="45.50032" lon="6.62723">
        <ele>2435.64</ele>
        <time>2015-02-08T11:05:26Z</time>
      </trkpt>
      <trkpt lat="45.50035" lon="6.62725">
        <ele>2435.64</ele>
        <time>2015-02-08T11:05:37Z</time>
      </trkpt>
      <trkpt lat="45.50036" lon="6.62724">
        <ele>2436.12</ele>
        <time>2015-02-08T11:05:39Z</time>
      </trkpt>
      <trkpt lat="45.50046" lon="6.62724">
        <ele>2439.48</ele>
        <time>2015-02-08T11:05:52Z</time>
      </trkpt>
      <trkpt lat="45.50048" lon="6.62726">
        <ele>2440.44</ele>
        <time>2015-02-08T11:05:56Z</time>
      </trkpt>
      <trkpt lat="45.50058" lon="6.62737">
        <ele>2442.85</ele>
        <time>2015-02-08T11:06:10Z</time>
      </trkpt>
      <trkpt lat="45.50061" lon="6.62745">
        <ele>2445.73</ele>
        <time>2015-02-08T11:06:21Z</time>
      </trkpt>
      <trkpt lat="45.50061" lon="6.62745">
        <ele>2445.25</ele>
        <time>2015-02-08T11:06:40Z</time>
      </trkpt>
      <trkpt lat="45.50061" lon="6.62744">
        <ele>2445.25</ele>
        <time>2015-02-08T11:07:06Z</time>
      </trkpt>
      <trkpt lat="45.5006" lon="6.62744">
        <ele>2445.25</ele>
        <time>2015-02-08T11:07:31Z</time>
      </trkpt>
      <trkpt lat="45.50061" lon="6.62742">
        <ele>2444.29</ele>
        <time>2015-02-08T11:07:48Z</time>
      </trkpt>
      <trkpt lat="45.5006" lon="6.62742">
        <ele>2444.29</ele>
        <time>2015-02-08T11:08:08Z</time>
      </trkpt>
      <trkpt lat="45.50061" lon="6.62741">
        <ele>2444.29</ele>
        <time>2015-02-08T11:08:23Z</time>
      </trkpt>
      <trkpt lat="45.50059" lon="6.6274">
        <ele>2444.29</ele>
        <time>2015-02-08T11:08:53Z</time>
      </trkpt>
      <trkpt lat="45.50059" lon="6.6274">
        <ele>2445.73</ele>
        <time>2015-02-08T11:08:59Z</time>
      </trkpt>
      <trkpt lat="45.50059" lon="6.62741">
        <ele>2441.41</ele>
        <time>2015-02-08T11:09:10Z</time>
      </trkpt>
      <trkpt lat="45.50059" lon="6.62742">
        <ele>2437.56</ele>
        <time>2015-02-08T11:09:11Z</time>
      </trkpt>
      <trkpt lat="45.50059" lon="6.62742">
        <ele>2444.77</ele>
        <time>2015-02-08T11:09:12Z</time>
      </trkpt>
      <trkpt lat="45.50059" lon="6.62742">
        <ele>2443.33</ele>
        <time>2015-02-08T11:09:13Z</time>
      </trkpt>
      <trkpt lat="45.5006" lon="6.62742">
        <ele>2439.96</ele>
        <time>2015-02-08T11:09:15Z</time>
      </trkpt>
      <trkpt lat="45.5006" lon="6.62742">
        <ele>2443.33</ele>
        <time>2015-02-08T11:09:16Z</time>
      </trkpt>
      <trkpt lat="45.50061" lon="6.62742">
        <ele>2443.33</ele>
        <time>2015-02-08T11:09:29Z</time>
      </trkpt>
      <trkpt lat="45.50061" lon="6.62742">
        <ele>2443.33</ele>
        <time>2015-02-08T11:10:01Z</time>
      </trkpt>
      <trkpt lat="45.5006" lon="6.62743">
        <ele>2443.33</ele>
        <time>2015-02-08T11:10:45Z</time>
      </trkpt>
      <trkpt lat="45.50061" lon="6.62743">
        <ele>2441.89</ele>
        <time>2015-02-08T11:11:36Z</time>
      </trkpt>
      <trkpt lat="45.50061" lon="6.62742">
        <ele>2441.89</ele>
        <time>2015-02-08T11:12:15Z</time>
      </trkpt>
      <trkpt lat="45.50061" lon="6.62742">
        <ele>2443.81</ele>
        <time>2015-02-08T11:12:37Z</time>
      </trkpt>
      <trkpt lat="45.50061" lon="6.62742">
        <ele>2443.33</ele>
        <time>2015-02-08T11:12:57Z</time>
      </trkpt>
      <trkpt lat="45.50061" lon="6.62741">
        <ele>2442.37</ele>
        <time>2015-02-08T11:13:19Z</time>
      </trkpt>
      <trkpt lat="45.50062" lon="6.62739">
        <ele>2442.37</ele>
        <time>2015-02-08T11:13:55Z</time>
      </trkpt>
      <trkpt lat="45.50061" lon="6.62742">
        <ele>2442.37</ele>
        <time>2015-02-08T11:14:08Z</time>
      </trkpt>
      <trkpt lat="45.5006" lon="6.62743">
        <ele>2442.37</ele>
        <time>2015-02-08T11:14:33Z</time>
      </trkpt>
      <trkpt lat="45.5006" lon="6.62743">
        <ele>2443.81</ele>
        <time>2015-02-08T11:14:35Z</time>
      </trkpt>
      <trkpt lat="45.5006" lon="6.62744">
        <ele>2439.96</ele>
        <time>2015-02-08T11:14:42Z</time>
      </trkpt>
      <trkpt lat="45.5006" lon="6.62744">
        <ele>2441.41</ele>
        <time>2015-02-08T11:14:43Z</time>
      </trkpt>
      <trkpt lat="45.5006" lon="6.62744">
        <ele>2442.37</ele>
        <time>2015-02-08T11:14:45Z</time>
      </trkpt>
      <trkpt lat="45.5006" lon="6.62743">
        <ele>2445.73</ele>
        <time>2015-02-08T11:15:22Z</time>
      </trkpt>
      <trkpt lat="45.50061" lon="6.62743">
        <ele>2441.89</ele>
        <time>2015-02-08T11:15:37Z</time>
      </trkpt>
      <trkpt lat="45.50061" lon="6.62743">
        <ele>2445.25</ele>
        <time>2015-02-08T11:15:38Z</time>
      </trkpt>
      <trkpt lat="45.50061" lon="6.62743">
        <ele>2441.41</ele>
        <time>2015-02-08T11:15:39Z</time>
      </trkpt>
      <trkpt lat="45.50061" lon="6.62743">
        <ele>2448.13</ele>
        <time>2015-02-08T11:15:41Z</time>
      </trkpt>
      <trkpt lat="45.5006" lon="6.62744">
        <ele>2446.69</ele>
        <time>2015-02-08T11:15:42Z</time>
      </trkpt>
      <trkpt lat="45.50061" lon="6.62743">
        <ele>2445.73</ele>
        <time>2015-02-08T11:15:44Z</time>
      </trkpt>
      <trkpt lat="45.50059" lon="6.62742">
        <ele>2445.73</ele>
        <time>2015-02-08T11:15:57Z</time>
      </trkpt>
      <trkpt lat="45.5006" lon="6.62743">
        <ele>2444.29</ele>
        <time>2015-02-08T11:16:17Z</time>
      </trkpt>
      <trkpt lat="45.50061" lon="6.62743">
        <ele>2444.29</ele>
        <time>2015-02-08T11:16:35Z</time>
      </trkpt>
      <trkpt lat="45.5006" lon="6.62742">
        <ele>2445.25</ele>
        <time>2015-02-08T11:16:40Z</time>
      </trkpt>
      <trkpt lat="45.5006" lon="6.62742">
        <ele>2443.81</ele>
        <time>2015-02-08T11:16:44Z</time>
      </trkpt>
      <trkpt lat="45.50061" lon="6.62742">
        <ele>2444.77</ele>
        <time>2015-02-08T11:16:57Z</time>
      </trkpt>
      <trkpt lat="45.5006" lon="6.62743">
        <ele>2444.29</ele>
        <time>2015-02-08T11:17:17Z</time>
      </trkpt>
      <trkpt lat="45.5006" lon="6.62744">
        <ele>2444.29</ele>
        <time>2015-02-08T11:17:36Z</time>
      </trkpt>
      <trkpt lat="45.5006" lon="6.62744">
        <ele>2443.81</ele>
        <time>2015-02-08T11:17:51Z</time>
      </trkpt>
      <trkpt lat="45.50061" lon="6.62741">
        <ele>2442.85</ele>
        <time>2015-02-08T11:18:08Z</time>
      </trkpt>
      <trkpt lat="45.50061" lon="6.62743">
        <ele>2442.85</ele>
        <time>2015-02-08T11:18:18Z</time>
      </trkpt>
      <trkpt lat="45.5006" lon="6.62743">
        <ele>2443.81</ele>
        <time>2015-02-08T11:18:21Z</time>
      </trkpt>
      <trkpt lat="45.5006" lon="6.62742">
        <ele>2444.29</ele>
        <time>2015-02-08T11:18:42Z</time>
      </trkpt>
      <trkpt lat="45.50061" lon="6.62743">
        <ele>2444.29</ele>
        <time>2015-02-08T11:19:11Z</time>
      </trkpt>
      <trkpt lat="45.5006" lon="6.62743">
        <ele>2444.29</ele>
        <time>2015-02-08T11:19:25Z</time>
      </trkpt>
      <trkpt lat="45.5006" lon="6.62743">
        <ele>2444.77</ele>
        <time>2015-02-08T11:19:37Z</time>
      </trkpt>
      <trkpt lat="45.5006" lon="6.62743">
        <ele>2443.81</ele>
        <time>2015-02-08T11:19:52Z</time>
      </trkpt>
      <trkpt lat="45.5006" lon="6.62743">
        <ele>2443.81</ele>
        <time>2015-02-08T11:20:06Z</time>
      </trkpt>
      <trkpt lat="45.5006" lon="6.62743">
        <ele>2443.81</ele>
        <time>2015-02-08T11:20:22Z</time>
      </trkpt>
      <trkpt lat="45.5006" lon="6.62743">
        <ele>2443.81</ele>
        <time>2015-02-08T11:20:37Z</time>
      </trkpt>
      <trkpt lat="45.50059" lon="6.62743">
        <ele>2443.81</ele>
        <time>2015-02-08T11:20:52Z</time>
      </trkpt>
      <trkpt lat="45.50059" lon="6.62742">
        <ele>2444.77</ele>
        <time>2015-02-08T11:21:18Z</time>
      </trkpt>
      <trkpt lat="45.5006" lon="6.62743">
        <ele>2444.77</ele>
        <time>2015-02-08T11:21:36Z</time>
      </trkpt>
      <trkpt lat="45.5006" lon="6.62742">
        <ele>2445.25</ele>
        <time>2015-02-08T11:22:00Z</time>
      </trkpt>
      <trkpt lat="45.5006" lon="6.62741">
        <ele>2445.25</ele>
        <time>2015-02-08T11:22:37Z</time>
      </trkpt>
      <trkpt lat="45.50059" lon="6.62741">
        <ele>2443.81</ele>
        <time>2015-02-08T11:22:46Z</time>
      </trkpt>
      <trkpt lat="45.5006" lon="6.62743">
        <ele>2445.25</ele>
        <time>2015-02-08T11:22:58Z</time>
      </trkpt>
      <trkpt lat="45.5006" lon="6.62742">
        <ele>2445.25</ele>
        <time>2015-02-08T11:23:18Z</time>
      </trkpt>
      <trkpt lat="45.5006" lon="6.62742">
        <ele>2443.81</ele>
        <time>2015-02-08T11:23:48Z</time>
      </trkpt>
      <trkpt lat="45.50059" lon="6.62743">
        <ele>2444.77</ele>
        <time>2015-02-08T11:24:09Z</time>
      </trkpt>
      <trkpt lat="45.50058" lon="6.62743">
        <ele>2444.77</ele>
        <time>2015-02-08T11:24:14Z</time>
      </trkpt>
      <trkpt lat="45.50056" lon="6.62742">
        <ele>2444.77</ele>
        <time>2015-02-08T11:24:16Z</time>
      </trkpt>
      <trkpt lat="45.50044" lon="6.62729">
        <ele>2442.85</ele>
        <time>2015-02-08T11:24:21Z</time>
      </trkpt>
      <trkpt lat="45.50039" lon="6.62721">
        <ele>2439</ele>
        <time>2015-02-08T11:24:23Z</time>
      </trkpt>
      <trkpt lat="45.50035" lon="6.62714">
        <ele>2435.16</ele>
        <time>2015-02-08T11:24:25Z</time>
      </trkpt>
      <trkpt lat="45.50034" lon="6.62713">
        <ele>2435.16</ele>
        <time>2015-02-08T11:24:26Z</time>
      </trkpt>
      <trkpt lat="45.50034" lon="6.62712">
        <ele>2434.68</ele>
        <time>2015-02-08T11:24:29Z</time>
      </trkpt>
      <trkpt lat="45.50037" lon="6.62701">
        <ele>2432.27</ele>
        <time>2015-02-08T11:24:32Z</time>
      </trkpt>
      <trkpt lat="45.50032" lon="6.62693">
        <ele>2431.31</ele>
        <time>2015-02-08T11:24:34Z</time>
      </trkpt>
      <trkpt lat="45.50024" lon="6.6268">
        <ele>2427.95</ele>
        <time>2015-02-08T11:24:37Z</time>
      </trkpt>
      <trkpt lat="45.50026" lon="6.62678">
        <ele>2426.99</ele>
        <time>2015-02-08T11:24:38Z</time>
      </trkpt>
      <trkpt lat="45.5003" lon="6.62675">
        <ele>2425.54</ele>
        <time>2015-02-08T11:24:40Z</time>
      </trkpt>
      <trkpt lat="45.50035" lon="6.62651">
        <ele>2419.78</ele>
        <time>2015-02-08T11:24:44Z</time>
      </trkpt>
      <trkpt lat="45.50033" lon="6.62643">
        <ele>2419.78</ele>
        <time>2015-02-08T11:24:45Z</time>
      </trkpt>
      <trkpt lat="45.50036" lon="6.62613">
        <ele>2411.12</ele>
        <time>2015-02-08T11:24:50Z</time>
      </trkpt>
      <trkpt lat="45.50048" lon="6.62613">
        <ele>2407.28</ele>
        <time>2015-02-08T11:24:53Z</time>
      </trkpt>
      <trkpt lat="45.50054" lon="6.626">
        <ele>2403.43</ele>
        <time>2015-02-08T11:24:56Z</time>
      </trkpt>
      <trkpt lat="45.5006" lon="6.62599">
        <ele>2399.11</ele>
        <time>2015-02-08T11:24:58Z</time>
      </trkpt>
      <trkpt lat="45.50067" lon="6.62606">
        <ele>2397.67</ele>
        <time>2015-02-08T11:25:01Z</time>
      </trkpt>
      <trkpt lat="45.50073" lon="6.62611">
        <ele>2396.7</ele>
        <time>2015-02-08T11:25:03Z</time>
      </trkpt>
      <trkpt lat="45.50084" lon="6.62611">
        <ele>2391.9</ele>
        <time>2015-02-08T11:25:06Z</time>
      </trkpt>
      <trkpt lat="45.50083" lon="6.62606">
        <ele>2390.94</ele>
        <time>2015-02-08T11:25:07Z</time>
      </trkpt>
      <trkpt lat="45.50084" lon="6.62589">
        <ele>2383.25</ele>
        <time>2015-02-08T11:25:11Z</time>
      </trkpt>
      <trkpt lat="45.50086" lon="6.6259">
        <ele>2383.25</ele>
        <time>2015-02-08T11:25:12Z</time>
      </trkpt>
      <trkpt lat="45.50084" lon="6.62592">
        <ele>2382.28</ele>
        <time>2015-02-08T11:25:20Z</time>
      </trkpt>
      <trkpt lat="45.50085" lon="6.6259">
        <ele>2382.28</ele>
        <time>2015-02-08T11:25:42Z</time>
      </trkpt>
      <trkpt lat="45.50086" lon="6.6259">
        <ele>2382.28</ele>
        <time>2015-02-08T11:25:56Z</time>
      </trkpt>
      <trkpt lat="45.50096" lon="6.62587">
        <ele>2379.88</ele>
        <time>2015-02-08T11:26:00Z</time>
      </trkpt>
      <trkpt lat="45.50098" lon="6.62582">
        <ele>2377.96</ele>
        <time>2015-02-08T11:26:02Z</time>
      </trkpt>
      <trkpt lat="45.50099" lon="6.62574">
        <ele>2373.63</ele>
        <time>2015-02-08T11:26:04Z</time>
      </trkpt>
      <trkpt lat="45.50108" lon="6.62568">
        <ele>2368.35</ele>
        <time>2015-02-08T11:26:07Z</time>
      </trkpt>
      <trkpt lat="45.50107" lon="6.62565">
        <ele>2367.86</ele>
        <time>2015-02-08T11:26:08Z</time>
      </trkpt>
      <trkpt lat="45.50101" lon="6.62553">
        <ele>2364.5</ele>
        <time>2015-02-08T11:26:12Z</time>
      </trkpt>
      <trkpt lat="45.50103" lon="6.62548">
        <ele>2360.17</ele>
        <time>2015-02-08T11:26:13Z</time>
      </trkpt>
      <trkpt lat="45.50115" lon="6.62545">
        <ele>2355.37</ele>
        <time>2015-02-08T11:26:16Z</time>
      </trkpt>
      <trkpt lat="45.50111" lon="6.62528">
        <ele>2351.52</ele>
        <time>2015-02-08T11:26:20Z</time>
      </trkpt>
      <trkpt lat="45.50102" lon="6.62514">
        <ele>2349.6</ele>
        <time>2015-02-08T11:26:23Z</time>
      </trkpt>
      <trkpt lat="45.50102" lon="6.625">
        <ele>2343.83</ele>
        <time>2015-02-08T11:26:26Z</time>
      </trkpt>
      <trkpt lat="45.50103" lon="6.62495">
        <ele>2340.95</ele>
        <time>2015-02-08T11:26:27Z</time>
      </trkpt>
      <trkpt lat="45.50108" lon="6.62484">
        <ele>2335.66</ele>
        <time>2015-02-08T11:26:29Z</time>
      </trkpt>
      <trkpt lat="45.50108" lon="6.62476">
        <ele>2332.3</ele>
        <time>2015-02-08T11:26:31Z</time>
      </trkpt>
      <trkpt lat="45.50105" lon="6.62472">
        <ele>2331.81</ele>
        <time>2015-02-08T11:26:32Z</time>
      </trkpt>
      <trkpt lat="45.50097" lon="6.62464">
        <ele>2329.89</ele>
        <time>2015-02-08T11:26:44Z</time>
      </trkpt>
      <trkpt lat="45.50096" lon="6.62465">
        <ele>2329.89</ele>
        <time>2015-02-08T11:26:54Z</time>
      </trkpt>
      <trkpt lat="45.50097" lon="6.62453">
        <ele>2326.05</ele>
        <time>2015-02-08T11:26:59Z</time>
      </trkpt>
      <trkpt lat="45.50099" lon="6.62444">
        <ele>2323.64</ele>
        <time>2015-02-08T11:27:01Z</time>
      </trkpt>
      <trkpt lat="45.50102" lon="6.62435">
        <ele>2317.88</ele>
        <time>2015-02-08T11:27:03Z</time>
      </trkpt>
      <trkpt lat="45.50099" lon="6.62425">
        <ele>2314.99</ele>
        <time>2015-02-08T11:27:05Z</time>
      </trkpt>
      <trkpt lat="45.501" lon="6.62419">
        <ele>2308.26</ele>
        <time>2015-02-08T11:27:06Z</time>
      </trkpt>
      <trkpt lat="45.50101" lon="6.62408">
        <ele>2303.94</ele>
        <time>2015-02-08T11:27:08Z</time>
      </trkpt>
      <trkpt lat="45.50102" lon="6.62401">
        <ele>2300.09</ele>
        <time>2015-02-08T11:27:09Z</time>
      </trkpt>
      <trkpt lat="45.501" lon="6.6239">
        <ele>2296.73</ele>
        <time>2015-02-08T11:27:11Z</time>
      </trkpt>
      <trkpt lat="45.50101" lon="6.6238">
        <ele>2291.92</ele>
        <time>2015-02-08T11:27:13Z</time>
      </trkpt>
      <trkpt lat="45.50101" lon="6.62376">
        <ele>2290.96</ele>
        <time>2015-02-08T11:27:15Z</time>
      </trkpt>
      <trkpt lat="45.50095" lon="6.62374">
        <ele>2290</ele>
        <time>2015-02-08T11:27:26Z</time>
      </trkpt>
      <trkpt lat="45.50093" lon="6.62376">
        <ele>2289.52</ele>
        <time>2015-02-08T11:27:51Z</time>
      </trkpt>
      <trkpt lat="45.50085" lon="6.6237">
        <ele>2289.04</ele>
        <time>2015-02-08T11:28:09Z</time>
      </trkpt>
      <trkpt lat="45.50068" lon="6.62354">
        <ele>2286.15</ele>
        <time>2015-02-08T11:28:17Z</time>
      </trkpt>
      <trkpt lat="45.50063" lon="6.62348">
        <ele>2284.71</ele>
        <time>2015-02-08T11:28:19Z</time>
      </trkpt>
      <trkpt lat="45.50063" lon="6.62336">
        <ele>2277.98</ele>
        <time>2015-02-08T11:28:22Z</time>
      </trkpt>
      <trkpt lat="45.50061" lon="6.62327">
        <ele>2276.06</ele>
        <time>2015-02-08T11:28:24Z</time>
      </trkpt>
      <trkpt lat="45.50059" lon="6.62323">
        <ele>2275.1</ele>
        <time>2015-02-08T11:28:25Z</time>
      </trkpt>
      <trkpt lat="45.50057" lon="6.62319">
        <ele>2273.17</ele>
        <time>2015-02-08T11:28:26Z</time>
      </trkpt>
      <trkpt lat="45.50059" lon="6.62313">
        <ele>2269.81</ele>
        <time>2015-02-08T11:28:27Z</time>
      </trkpt>
      <trkpt lat="45.5006" lon="6.62309">
        <ele>2268.37</ele>
        <time>2015-02-08T11:28:28Z</time>
      </trkpt>
      <trkpt lat="45.50061" lon="6.62302">
        <ele>2264.04</ele>
        <time>2015-02-08T11:28:29Z</time>
      </trkpt>
      <trkpt lat="45.50062" lon="6.62296">
        <ele>2260.2</ele>
        <time>2015-02-08T11:28:30Z</time>
      </trkpt>
      <trkpt lat="45.50061" lon="6.62291">
        <ele>2258.75</ele>
        <time>2015-02-08T11:28:31Z</time>
      </trkpt>
      <trkpt lat="45.50062" lon="6.62286">
        <ele>2255.39</ele>
        <time>2015-02-08T11:28:32Z</time>
      </trkpt>
      <trkpt lat="45.50065" lon="6.6228">
        <ele>2250.58</ele>
        <time>2015-02-08T11:28:33Z</time>
      </trkpt>
      <trkpt lat="45.50067" lon="6.62271">
        <ele>2247.22</ele>
        <time>2015-02-08T11:28:34Z</time>
      </trkpt>
      <trkpt lat="45.50063" lon="6.62267">
        <ele>2245.3</ele>
        <time>2015-02-08T11:28:37Z</time>
      </trkpt>
      <trkpt lat="45.50059" lon="6.6226">
        <ele>2243.37</ele>
        <time>2015-02-08T11:28:39Z</time>
      </trkpt>
      <trkpt lat="45.5006" lon="6.62244">
        <ele>2239.05</ele>
        <time>2015-02-08T11:28:42Z</time>
      </trkpt>
      <trkpt lat="45.50059" lon="6.6224">
        <ele>2236.16</ele>
        <time>2015-02-08T11:28:43Z</time>
      </trkpt>
      <trkpt lat="45.50053" lon="6.62227">
        <ele>2232.8</ele>
        <time>2015-02-08T11:28:48Z</time>
      </trkpt>
      <trkpt lat="45.50058" lon="6.62213">
        <ele>2226.07</ele>
        <time>2015-02-08T11:28:51Z</time>
      </trkpt>
      <trkpt lat="45.50059" lon="6.62204">
        <ele>2221.74</ele>
        <time>2015-02-08T11:28:53Z</time>
      </trkpt>
      <trkpt lat="45.50061" lon="6.62199">
        <ele>2218.38</ele>
        <time>2015-02-08T11:28:54Z</time>
      </trkpt>
      <trkpt lat="45.50058" lon="6.62188">
        <ele>2214.05</ele>
        <time>2015-02-08T11:28:56Z</time>
      </trkpt>
      <trkpt lat="45.50054" lon="6.6218">
        <ele>2211.17</ele>
        <time>2015-02-08T11:29:00Z</time>
      </trkpt>
      <trkpt lat="45.50051" lon="6.62161">
        <ele>2205.4</ele>
        <time>2015-02-08T11:29:05Z</time>
      </trkpt>
      <trkpt lat="45.50051" lon="6.62153">
        <ele>2202.04</ele>
        <time>2015-02-08T11:29:06Z</time>
      </trkpt>
      <trkpt lat="45.50049" lon="6.6214">
        <ele>2198.19</ele>
        <time>2015-02-08T11:29:08Z</time>
      </trkpt>
      <trkpt lat="45.5005" lon="6.62124">
        <ele>2190.02</ele>
        <time>2015-02-08T11:29:10Z</time>
      </trkpt>
      <trkpt lat="45.50049" lon="6.62108">
        <ele>2186.66</ele>
        <time>2015-02-08T11:29:12Z</time>
      </trkpt>
      <trkpt lat="45.50042" lon="6.62094">
        <ele>2183.29</ele>
        <time>2015-02-08T11:29:14Z</time>
      </trkpt>
      <trkpt lat="45.50045" lon="6.6207">
        <ele>2176.56</ele>
        <time>2015-02-08T11:29:17Z</time>
      </trkpt>
      <trkpt lat="45.50046" lon="6.62065">
        <ele>2172.72</ele>
        <time>2015-02-08T11:29:18Z</time>
      </trkpt>
      <trkpt lat="45.50052" lon="6.62058">
        <ele>2171.27</ele>
        <time>2015-02-08T11:29:19Z</time>
      </trkpt>
      <trkpt lat="45.50059" lon="6.62053">
        <ele>2169.35</ele>
        <time>2015-02-08T11:29:20Z</time>
      </trkpt>
      <trkpt lat="45.50063" lon="6.62049">
        <ele>2167.91</ele>
        <time>2015-02-08T11:29:22Z</time>
      </trkpt>
      <trkpt lat="45.5006" lon="6.62054">
        <ele>2168.39</ele>
        <time>2015-02-08T11:29:33Z</time>
      </trkpt>
      <trkpt lat="45.50061" lon="6.62055">
        <ele>2168.87</ele>
        <time>2015-02-08T11:29:45Z</time>
      </trkpt>
      <trkpt lat="45.5006" lon="6.62052">
        <ele>2168.87</ele>
        <time>2015-02-08T11:29:59Z</time>
      </trkpt>
      <trkpt lat="45.50062" lon="6.62052">
        <ele>2169.35</ele>
        <time>2015-02-08T11:30:30Z</time>
      </trkpt>
      <trkpt lat="45.50059" lon="6.62051">
        <ele>2169.35</ele>
        <time>2015-02-08T11:30:54Z</time>
      </trkpt>
      <trkpt lat="45.50059" lon="6.62051">
        <ele>2169.83</ele>
        <time>2015-02-08T11:31:06Z</time>
      </trkpt>
      <trkpt lat="45.50058" lon="6.6205">
        <ele>2169.83</ele>
        <time>2015-02-08T11:31:18Z</time>
      </trkpt>
      <trkpt lat="45.50059" lon="6.62048">
        <ele>2169.83</ele>
        <time>2015-02-08T11:31:27Z</time>
      </trkpt>
      <trkpt lat="45.50066" lon="6.6205">
        <ele>2167.91</ele>
        <time>2015-02-08T11:31:29Z</time>
      </trkpt>
      <trkpt lat="45.50079" lon="6.62039">
        <ele>2161.66</ele>
        <time>2015-02-08T11:31:33Z</time>
      </trkpt>
      <trkpt lat="45.50088" lon="6.62031">
        <ele>2155.89</ele>
        <time>2015-02-08T11:31:38Z</time>
      </trkpt>
      <trkpt lat="45.50089" lon="6.62033">
        <ele>2156.37</ele>
        <time>2015-02-08T11:31:41Z</time>
      </trkpt>
      <trkpt lat="45.50091" lon="6.62027">
        <ele>2153.49</ele>
        <time>2015-02-08T11:31:45Z</time>
      </trkpt>
      <trkpt lat="45.50091" lon="6.62029">
        <ele>2153.49</ele>
        <time>2015-02-08T11:31:54Z</time>
      </trkpt>
      <trkpt lat="45.50098" lon="6.62029">
        <ele>2152.05</ele>
        <time>2015-02-08T11:31:59Z</time>
      </trkpt>
      <trkpt lat="45.50098" lon="6.62029">
        <ele>2151.57</ele>
        <time>2015-02-08T11:32:10Z</time>
      </trkpt>
      <trkpt lat="45.50099" lon="6.62024">
        <ele>2148.2</ele>
        <time>2015-02-08T11:32:13Z</time>
      </trkpt>
      <trkpt lat="45.50099" lon="6.62024">
        <ele>2147.24</ele>
        <time>2015-02-08T11:32:18Z</time>
      </trkpt>
      <trkpt lat="45.50101" lon="6.62015">
        <ele>2143.4</ele>
        <time>2015-02-08T11:32:21Z</time>
      </trkpt>
      <trkpt lat="45.50099" lon="6.62012">
        <ele>2140.03</ele>
        <time>2015-02-08T11:32:24Z</time>
      </trkpt>
      <trkpt lat="45.50096" lon="6.62011">
        <ele>2138.59</ele>
        <time>2015-02-08T11:32:27Z</time>
      </trkpt>
      <trkpt lat="45.50093" lon="6.62005">
        <ele>2134.74</ele>
        <time>2015-02-08T11:32:30Z</time>
      </trkpt>
      <trkpt lat="45.50091" lon="6.62004">
        <ele>2133.78</ele>
        <time>2015-02-08T11:32:32Z</time>
      </trkpt>
      <trkpt lat="45.5009" lon="6.62003">
        <ele>2133.3</ele>
        <time>2015-02-08T11:32:34Z</time>
      </trkpt>
      <trkpt lat="45.50092" lon="6.61996">
        <ele>2128.02</ele>
        <time>2015-02-08T11:32:37Z</time>
      </trkpt>
      <trkpt lat="45.50092" lon="6.61996">
        <ele>2128.02</ele>
        <time>2015-02-08T11:32:38Z</time>
      </trkpt>
      <trkpt lat="45.50093" lon="6.61996">
        <ele>2128.02</ele>
        <time>2015-02-08T11:32:39Z</time>
      </trkpt>
      <trkpt lat="45.50098" lon="6.61992">
        <ele>2126.09</ele>
        <time>2015-02-08T11:32:44Z</time>
      </trkpt>
      <trkpt lat="45.50094" lon="6.61981">
        <ele>2121.29</ele>
        <time>2015-02-08T11:32:48Z</time>
      </trkpt>
      <trkpt lat="45.50094" lon="6.61971">
        <ele>2113.6</ele>
        <time>2015-02-08T11:32:52Z</time>
      </trkpt>
      <trkpt lat="45.50093" lon="6.61967">
        <ele>2112.63</ele>
        <time>2015-02-08T11:32:53Z</time>
      </trkpt>
      <trkpt lat="45.50089" lon="6.61963">
        <ele>2109.75</ele>
        <time>2015-02-08T11:32:56Z</time>
      </trkpt>
      <trkpt lat="45.50088" lon="6.61961">
        <ele>2109.27</ele>
        <time>2015-02-08T11:32:58Z</time>
      </trkpt>
      <trkpt lat="45.50088" lon="6.61957">
        <ele>2105.42</ele>
        <time>2015-02-08T11:33:01Z</time>
      </trkpt>
      <trkpt lat="45.50089" lon="6.6195">
        <ele>2102.06</ele>
        <time>2015-02-08T11:33:04Z</time>
      </trkpt>
      <trkpt lat="45.50085" lon="6.61943">
        <ele>2098.7</ele>
        <time>2015-02-08T11:33:07Z</time>
      </trkpt>
      <trkpt lat="45.50085" lon="6.61942">
        <ele>2097.73</ele>
        <time>2015-02-08T11:33:09Z</time>
      </trkpt>
      <trkpt lat="45.50079" lon="6.61934">
        <ele>2094.85</ele>
        <time>2015-02-08T11:33:13Z</time>
      </trkpt>
      <trkpt lat="45.50076" lon="6.61929">
        <ele>2093.89</ele>
        <time>2015-02-08T11:33:16Z</time>
      </trkpt>
      <trkpt lat="45.50074" lon="6.6192">
        <ele>2090.04</ele>
        <time>2015-02-08T11:33:20Z</time>
      </trkpt>
      <trkpt lat="45.50074" lon="6.61918">
        <ele>2089.56</ele>
        <time>2015-02-08T11:33:21Z</time>
      </trkpt>
      <trkpt lat="45.50074" lon="6.61916">
        <ele>2086.68</ele>
        <time>2015-02-08T11:33:24Z</time>
      </trkpt>
      <trkpt lat="45.50074" lon="6.61916">
        <ele>2086.68</ele>
        <time>2015-02-08T11:33:25Z</time>
      </trkpt>
      <trkpt lat="45.50081" lon="6.61912">
        <ele>2082.83</ele>
        <time>2015-02-08T11:33:28Z</time>
      </trkpt>
      <trkpt lat="45.50083" lon="6.61906">
        <ele>2078.99</ele>
        <time>2015-02-08T11:33:30Z</time>
      </trkpt>
      <trkpt lat="45.50084" lon="6.61907">
        <ele>2077.55</ele>
        <time>2015-02-08T11:33:32Z</time>
      </trkpt>
      <trkpt lat="45.50086" lon="6.6191">
        <ele>2077.55</ele>
        <time>2015-02-08T11:33:43Z</time>
      </trkpt>
      <trkpt lat="45.50086" lon="6.6191">
        <ele>2077.55</ele>
        <time>2015-02-08T11:34:13Z</time>
      </trkpt>
      <trkpt lat="45.50087" lon="6.61912">
        <ele>2077.07</ele>
        <time>2015-02-08T11:34:34Z</time>
      </trkpt>
      <trkpt lat="45.50086" lon="6.61912">
        <ele>2077.07</ele>
        <time>2015-02-08T11:34:55Z</time>
      </trkpt>
      <trkpt lat="45.50084" lon="6.6191">
        <ele>2077.07</ele>
        <time>2015-02-08T11:35:21Z</time>
      </trkpt>
      <trkpt lat="45.50084" lon="6.6191">
        <ele>2077.07</ele>
        <time>2015-02-08T11:35:35Z</time>
      </trkpt>
      <trkpt lat="45.50086" lon="6.61911">
        <ele>2077.07</ele>
        <time>2015-02-08T11:36:00Z</time>
      </trkpt>
      <trkpt lat="45.50088" lon="6.61909">
        <ele>2076.59</ele>
        <time>2015-02-08T11:36:13Z</time>
      </trkpt>
      <trkpt lat="45.50089" lon="6.61895">
        <ele>2070.82</ele>
        <time>2015-02-08T11:36:16Z</time>
      </trkpt>
      <trkpt lat="45.50091" lon="6.61891">
        <ele>2067.45</ele>
        <time>2015-02-08T11:36:17Z</time>
      </trkpt>
      <trkpt lat="45.50095" lon="6.61891">
        <ele>2064.57</ele>
        <time>2015-02-08T11:36:19Z</time>
      </trkpt>
      <trkpt lat="45.50095" lon="6.61891">
        <ele>2064.57</ele>
        <time>2015-02-08T11:36:28Z</time>
      </trkpt>
      <trkpt lat="45.50095" lon="6.6188">
        <ele>2060.24</ele>
        <time>2015-02-08T11:36:33Z</time>
      </trkpt>
      <trkpt lat="45.50092" lon="6.61876">
        <ele>2057.84</ele>
        <time>2015-02-08T11:36:37Z</time>
      </trkpt>
      <trkpt lat="45.50091" lon="6.61872">
        <ele>2056.4</ele>
        <time>2015-02-08T11:36:38Z</time>
      </trkpt>
      <trkpt lat="45.50089" lon="6.61868">
        <ele>2054.96</ele>
        <time>2015-02-08T11:36:39Z</time>
      </trkpt>
      <trkpt lat="45.50087" lon="6.61864">
        <ele>2053.99</ele>
        <time>2015-02-08T11:36:40Z</time>
      </trkpt>
      <trkpt lat="45.50084" lon="6.6186">
        <ele>2053.03</ele>
        <time>2015-02-08T11:36:41Z</time>
      </trkpt>
      <trkpt lat="45.50087" lon="6.61852">
        <ele>2047.75</ele>
        <time>2015-02-08T11:36:43Z</time>
      </trkpt>
      <trkpt lat="45.5009" lon="6.61851">
        <ele>2046.78</ele>
        <time>2015-02-08T11:36:44Z</time>
      </trkpt>
      <trkpt lat="45.50093" lon="6.6185">
        <ele>2046.78</ele>
        <time>2015-02-08T11:36:45Z</time>
      </trkpt>
      <trkpt lat="45.50095" lon="6.6184">
        <ele>2042.94</ele>
        <time>2015-02-08T11:36:47Z</time>
      </trkpt>
      <trkpt lat="45.50096" lon="6.61836">
        <ele>2039.57</ele>
        <time>2015-02-08T11:36:48Z</time>
      </trkpt>
      <trkpt lat="45.50096" lon="6.61837">
        <ele>2038.13</ele>
        <time>2015-02-08T11:36:50Z</time>
      </trkpt>
      <trkpt lat="45.50098" lon="6.61838">
        <ele>2038.13</ele>
        <time>2015-02-08T11:37:09Z</time>
      </trkpt>
      <trkpt lat="45.50096" lon="6.61839">
        <ele>2038.13</ele>
        <time>2015-02-08T11:37:38Z</time>
      </trkpt>
      <trkpt lat="45.50096" lon="6.61841">
        <ele>2038.13</ele>
        <time>2015-02-08T11:38:01Z</time>
      </trkpt>
      <trkpt lat="45.50099" lon="6.6183">
        <ele>2036.69</ele>
        <time>2015-02-08T11:38:12Z</time>
      </trkpt>
      <trkpt lat="45.501" lon="6.61824">
        <ele>2033.81</ele>
        <time>2015-02-08T11:38:13Z</time>
      </trkpt>
      <trkpt lat="45.50101" lon="6.61816">
        <ele>2029.48</ele>
        <time>2015-02-08T11:38:14Z</time>
      </trkpt>
      <trkpt lat="45.50103" lon="6.61808">
        <ele>2025.15</ele>
        <time>2015-02-08T11:38:15Z</time>
      </trkpt>
      <trkpt lat="45.50108" lon="6.61789">
        <ele>2017.46</ele>
        <time>2015-02-08T11:38:17Z</time>
      </trkpt>
      <trkpt lat="45.50113" lon="6.61782">
        <ele>2013.14</ele>
        <time>2015-02-08T11:38:18Z</time>
      </trkpt>
      <trkpt lat="45.50131" lon="6.61782">
        <ele>2009.29</ele>
        <time>2015-02-08T11:38:21Z</time>
      </trkpt>
      <trkpt lat="45.50145" lon="6.61768">
        <ele>2003.52</ele>
        <time>2015-02-08T11:38:24Z</time>
      </trkpt>
      <trkpt lat="45.50153" lon="6.61754">
        <ele>1998.24</ele>
        <time>2015-02-08T11:38:26Z</time>
      </trkpt>
      <trkpt lat="45.50159" lon="6.61748">
        <ele>1994.39</ele>
        <time>2015-02-08T11:38:27Z</time>
      </trkpt>
      <trkpt lat="45.50165" lon="6.61741">
        <ele>1990.07</ele>
        <time>2015-02-08T11:38:28Z</time>
      </trkpt>
      <trkpt lat="45.50172" lon="6.61735">
        <ele>1986.7</ele>
        <time>2015-02-08T11:38:29Z</time>
      </trkpt>
      <trkpt lat="45.5019" lon="6.61732">
        <ele>1980.45</ele>
        <time>2015-02-08T11:38:31Z</time>
      </trkpt>
      <trkpt lat="45.50201" lon="6.61731">
        <ele>1977.57</ele>
        <time>2015-02-08T11:38:32Z</time>
      </trkpt>
      <trkpt lat="45.50224" lon="6.61721">
        <ele>1973.72</ele>
        <time>2015-02-08T11:38:35Z</time>
      </trkpt>
      <trkpt lat="45.50227" lon="6.61715">
        <ele>1973.72</ele>
        <time>2015-02-08T11:38:36Z</time>
      </trkpt>
      <trkpt lat="45.50232" lon="6.61689">
        <ele>1972.76</ele>
        <time>2015-02-08T11:38:40Z</time>
      </trkpt>
      <trkpt lat="45.50237" lon="6.61655">
        <ele>1967.48</ele>
        <time>2015-02-08T11:38:45Z</time>
      </trkpt>
      <trkpt lat="45.50243" lon="6.6164">
        <ele>1965.07</ele>
        <time>2015-02-08T11:38:48Z</time>
      </trkpt>
      <trkpt lat="45.50243" lon="6.61641">
        <ele>1965.07</ele>
        <time>2015-02-08T11:38:51Z</time>
      </trkpt>
      <trkpt lat="45.5023" lon="6.61651">
        <ele>1961.71</ele>
        <time>2015-02-08T11:38:58Z</time>
      </trkpt>
      <trkpt lat="45.50222" lon="6.6166">
        <ele>1960.27</ele>
        <time>2015-02-08T11:39:03Z</time>
      </trkpt>
      <trkpt lat="45.50221" lon="6.61651">
        <ele>1960.27</ele>
        <time>2015-02-08T11:39:07Z</time>
      </trkpt>
      <trkpt lat="45.50223" lon="6.61617">
        <ele>1955.94</ele>
        <time>2015-02-08T11:39:11Z</time>
      </trkpt>
      <trkpt lat="45.50226" lon="6.6161">
        <ele>1954.02</ele>
        <time>2015-02-08T11:39:12Z</time>
      </trkpt>
      <trkpt lat="45.50231" lon="6.61604">
        <ele>1953.54</ele>
        <time>2015-02-08T11:39:13Z</time>
      </trkpt>
      <trkpt lat="45.50235" lon="6.61601">
        <ele>1952.57</ele>
        <time>2015-02-08T11:39:14Z</time>
      </trkpt>
      <trkpt lat="45.50241" lon="6.61599">
        <ele>1951.61</ele>
        <time>2015-02-08T11:39:15Z</time>
      </trkpt>
      <trkpt lat="45.50246" lon="6.61599">
        <ele>1951.13</ele>
        <time>2015-02-08T11:39:16Z</time>
      </trkpt>
      <trkpt lat="45.5025" lon="6.616">
        <ele>1950.65</ele>
        <time>2015-02-08T11:39:17Z</time>
      </trkpt>
      <trkpt lat="45.50255" lon="6.61602">
        <ele>1949.69</ele>
        <time>2015-02-08T11:39:18Z</time>
      </trkpt>
      <trkpt lat="45.50259" lon="6.61606">
        <ele>1949.69</ele>
        <time>2015-02-08T11:39:19Z</time>
      </trkpt>
      <trkpt lat="45.50264" lon="6.61608">
        <ele>1948.73</ele>
        <time>2015-02-08T11:39:20Z</time>
      </trkpt>
      <trkpt lat="45.50274" lon="6.61612">
        <ele>1947.29</ele>
        <time>2015-02-08T11:39:22Z</time>
      </trkpt>
      <trkpt lat="45.50278" lon="6.61611">
        <ele>1946.33</ele>
        <time>2015-02-08T11:39:23Z</time>
      </trkpt>
      <trkpt lat="45.50282" lon="6.6161">
        <ele>1945.85</ele>
        <time>2015-02-08T11:39:24Z</time>
      </trkpt>
      <trkpt lat="45.50304" lon="6.61617">
        <ele>1942.96</ele>
        <time>2015-02-08T11:39:31Z</time>
      </trkpt>
      <trkpt lat="45.50329" lon="6.61621">
        <ele>1940.56</ele>
        <time>2015-02-08T11:39:40Z</time>
      </trkpt>
      <trkpt lat="45.50332" lon="6.61619">
        <ele>1939.6</ele>
        <time>2015-02-08T11:39:41Z</time>
      </trkpt>
      <trkpt lat="45.50336" lon="6.61615">
        <ele>1939.6</ele>
        <time>2015-02-08T11:39:42Z</time>
      </trkpt>
      <trkpt lat="45.50339" lon="6.61611">
        <ele>1939.12</ele>
        <time>2015-02-08T11:39:43Z</time>
      </trkpt>
      <trkpt lat="45.50342" lon="6.61607">
        <ele>1939.12</ele>
        <time>2015-02-08T11:39:44Z</time>
      </trkpt>
      <trkpt lat="45.50344" lon="6.61601">
        <ele>1938.16</ele>
        <time>2015-02-08T11:39:45Z</time>
      </trkpt>
      <trkpt lat="45.50347" lon="6.61595">
        <ele>1938.16</ele>
        <time>2015-02-08T11:39:46Z</time>
      </trkpt>
      <trkpt lat="45.50348" lon="6.61589">
        <ele>1937.67</ele>
        <time>2015-02-08T11:39:47Z</time>
      </trkpt>
      <trkpt lat="45.50348" lon="6.61583">
        <ele>1937.67</ele>
        <time>2015-02-08T11:39:48Z</time>
      </trkpt>
      <trkpt lat="45.50349" lon="6.61577">
        <ele>1937.67</ele>
        <time>2015-02-08T11:39:49Z</time>
      </trkpt>
      <trkpt lat="45.5035" lon="6.6157">
        <ele>1937.19</ele>
        <time>2015-02-08T11:39:50Z</time>
      </trkpt>
      <trkpt lat="45.5035" lon="6.61563">
        <ele>1937.19</ele>
        <time>2015-02-08T11:39:51Z</time>
      </trkpt>
      <trkpt lat="45.50351" lon="6.61557">
        <ele>1936.23</ele>
        <time>2015-02-08T11:39:52Z</time>
      </trkpt>
      <trkpt lat="45.50352" lon="6.6155">
        <ele>1936.23</ele>
        <time>2015-02-08T11:39:53Z</time>
      </trkpt>
      <trkpt lat="45.50353" lon="6.61544">
        <ele>1935.27</ele>
        <time>2015-02-08T11:39:54Z</time>
      </trkpt>
      <trkpt lat="45.50357" lon="6.61523">
        <ele>1935.27</ele>
        <time>2015-02-08T11:39:59Z</time>
      </trkpt>
      <trkpt lat="45.50358" lon="6.61521">
        <ele>1935.27</ele>
        <time>2015-02-08T11:40:00Z</time>
      </trkpt>
      <trkpt lat="45.50359" lon="6.6152">
        <ele>1935.27</ele>
        <time>2015-02-08T11:40:01Z</time>
      </trkpt>
      <trkpt lat="45.5036" lon="6.61514">
        <ele>1935.27</ele>
        <time>2015-02-08T11:40:08Z</time>
      </trkpt>
      <trkpt lat="45.50361" lon="6.61512">
        <ele>1935.27</ele>
        <time>2015-02-08T11:40:09Z</time>
      </trkpt>
      <trkpt lat="45.5038" lon="6.61503">
        <ele>1933.83</ele>
        <time>2015-02-08T11:40:16Z</time>
      </trkpt>
      <trkpt lat="45.50397" lon="6.61473">
        <ele>1932.87</ele>
        <time>2015-02-08T11:40:27Z</time>
      </trkpt>
      <trkpt lat="45.50399" lon="6.61467">
        <ele>1932.87</ele>
        <time>2015-02-08T11:40:30Z</time>
      </trkpt>
      <trkpt lat="45.50402" lon="6.6146">
        <ele>1932.87</ele>
        <time>2015-02-08T11:40:41Z</time>
      </trkpt>
      <trkpt lat="45.50402" lon="6.61462">
        <ele>1932.87</ele>
        <time>2015-02-08T11:41:04Z</time>
      </trkpt>
      <trkpt lat="45.50402" lon="6.61464">
        <ele>1932.87</ele>
        <time>2015-02-08T11:41:34Z</time>
      </trkpt>
      <trkpt lat="45.50404" lon="6.61462">
        <ele>1932.87</ele>
        <time>2015-02-08T11:42:08Z</time>
      </trkpt>
      <trkpt lat="45.50403" lon="6.61465">
        <ele>1932.87</ele>
        <time>2015-02-08T11:42:35Z</time>
      </trkpt>
      <trkpt lat="45.50404" lon="6.61462">
        <ele>1932.87</ele>
        <time>2015-02-08T11:42:52Z</time>
      </trkpt>
      <trkpt lat="45.50404" lon="6.6146">
        <ele>1932.87</ele>
        <time>2015-02-08T11:42:57Z</time>
      </trkpt>
      <trkpt lat="45.50405" lon="6.61454">
        <ele>1932.87</ele>
        <time>2015-02-08T11:42:59Z</time>
      </trkpt>
      <trkpt lat="45.504" lon="6.61439">
        <ele>1930.46</ele>
        <time>2015-02-08T11:43:02Z</time>
      </trkpt>
      <trkpt lat="45.50402" lon="6.61421">
        <ele>1925.66</ele>
        <time>2015-02-08T11:43:05Z</time>
      </trkpt>
      <trkpt lat="45.50406" lon="6.61419">
        <ele>1922.77</ele>
        <time>2015-02-08T11:43:06Z</time>
      </trkpt>
      <trkpt lat="45.50411" lon="6.61421">
        <ele>1919.89</ele>
        <time>2015-02-08T11:43:07Z</time>
      </trkpt>
      <trkpt lat="45.50415" lon="6.61424">
        <ele>1918.93</ele>
        <time>2015-02-08T11:43:08Z</time>
      </trkpt>
      <trkpt lat="45.50418" lon="6.61426">
        <ele>1918.93</ele>
        <time>2015-02-08T11:43:09Z</time>
      </trkpt>
      <trkpt lat="45.50419" lon="6.61425">
        <ele>1917.01</ele>
        <time>2015-02-08T11:43:10Z</time>
      </trkpt>
      <trkpt lat="45.50419" lon="6.61424">
        <ele>1917.01</ele>
        <time>2015-02-08T11:43:11Z</time>
      </trkpt>
      <trkpt lat="45.50418" lon="6.61425">
        <ele>1916.04</ele>
        <time>2015-02-08T11:43:15Z</time>
      </trkpt>
      <trkpt lat="45.50418" lon="6.61422">
        <ele>1916.04</ele>
        <time>2015-02-08T11:43:16Z</time>
      </trkpt>
      <trkpt lat="45.50423" lon="6.61414">
        <ele>1912.2</ele>
        <time>2015-02-08T11:43:18Z</time>
      </trkpt>
      <trkpt lat="45.50435" lon="6.61405">
        <ele>1907.39</ele>
        <time>2015-02-08T11:43:20Z</time>
      </trkpt>
      <trkpt lat="45.50449" lon="6.61399">
        <ele>1902.11</ele>
        <time>2015-02-08T11:43:22Z</time>
      </trkpt>
      <trkpt lat="45.50463" lon="6.61394">
        <ele>1898.26</ele>
        <time>2015-02-08T11:43:24Z</time>
      </trkpt>
      <trkpt lat="45.5047" lon="6.61393">
        <ele>1895.86</ele>
        <time>2015-02-08T11:43:25Z</time>
      </trkpt>
      <trkpt lat="45.50489" lon="6.61387">
        <ele>1891.53</ele>
        <time>2015-02-08T11:43:28Z</time>
      </trkpt>
      <trkpt lat="45.50499" lon="6.61375">
        <ele>1888.17</ele>
        <time>2015-02-08T11:43:30Z</time>
      </trkpt>
      <trkpt lat="45.50502" lon="6.61367">
        <ele>1884.8</ele>
        <time>2015-02-08T11:43:31Z</time>
      </trkpt>
      <trkpt lat="45.5051" lon="6.61354">
        <ele>1880</ele>
        <time>2015-02-08T11:43:34Z</time>
      </trkpt>
      <trkpt lat="45.50512" lon="6.61355">
        <ele>1878.55</ele>
        <time>2015-02-08T11:43:36Z</time>
      </trkpt>
      <trkpt lat="45.50512" lon="6.61356">
        <ele>1880</ele>
        <time>2015-02-08T11:43:40Z</time>
      </trkpt>
      <trkpt lat="45.50513" lon="6.61356">
        <ele>1880</ele>
        <time>2015-02-08T11:43:51Z</time>
      </trkpt>
      <trkpt lat="45.50529" lon="6.61328">
        <ele>1875.19</ele>
        <time>2015-02-08T11:43:56Z</time>
      </trkpt>
      <trkpt lat="45.50536" lon="6.61321">
        <ele>1871.34</ele>
        <time>2015-02-08T11:43:57Z</time>
      </trkpt>
      <trkpt lat="45.50544" lon="6.61317">
        <ele>1871.34</ele>
        <time>2015-02-08T11:43:58Z</time>
      </trkpt>
      <trkpt lat="45.50552" lon="6.61316">
        <ele>1869.9</ele>
        <time>2015-02-08T11:43:59Z</time>
      </trkpt>
      <trkpt lat="45.50559" lon="6.61318">
        <ele>1867.98</ele>
        <time>2015-02-08T11:44:00Z</time>
      </trkpt>
      <trkpt lat="45.50565" lon="6.61321">
        <ele>1867.98</ele>
        <time>2015-02-08T11:44:01Z</time>
      </trkpt>
      <trkpt lat="45.5057" lon="6.61324">
        <ele>1866.06</ele>
        <time>2015-02-08T11:44:02Z</time>
      </trkpt>
      <trkpt lat="45.50575" lon="6.61327">
        <ele>1865.09</ele>
        <time>2015-02-08T11:44:03Z</time>
      </trkpt>
      <trkpt lat="45.5058" lon="6.61332">
        <ele>1864.61</ele>
        <time>2015-02-08T11:44:04Z</time>
      </trkpt>
      <trkpt lat="45.50585" lon="6.61335">
        <ele>1862.69</ele>
        <time>2015-02-08T11:44:05Z</time>
      </trkpt>
      <trkpt lat="45.5059" lon="6.61336">
        <ele>1860.77</ele>
        <time>2015-02-08T11:44:06Z</time>
      </trkpt>
      <trkpt lat="45.50595" lon="6.61332">
        <ele>1860.29</ele>
        <time>2015-02-08T11:44:07Z</time>
      </trkpt>
      <trkpt lat="45.50599" lon="6.61327">
        <ele>1858.85</ele>
        <time>2015-02-08T11:44:08Z</time>
      </trkpt>
      <trkpt lat="45.50603" lon="6.61322">
        <ele>1858.85</ele>
        <time>2015-02-08T11:44:09Z</time>
      </trkpt>
      <trkpt lat="45.50606" lon="6.61318">
        <ele>1858.37</ele>
        <time>2015-02-08T11:44:10Z</time>
      </trkpt>
      <trkpt lat="45.50609" lon="6.61315">
        <ele>1856.92</ele>
        <time>2015-02-08T11:44:11Z</time>
      </trkpt>
      <trkpt lat="45.50613" lon="6.61311">
        <ele>1856.92</ele>
        <time>2015-02-08T11:44:12Z</time>
      </trkpt>
      <trkpt lat="45.50628" lon="6.61299">
        <ele>1855</ele>
        <time>2015-02-08T11:44:22Z</time>
      </trkpt>
      <trkpt lat="45.50627" lon="6.61299">
        <ele>1855</ele>
        <time>2015-02-08T11:44:40Z</time>
      </trkpt>
      <trkpt lat="45.50628" lon="6.61296">
        <ele>1855</ele>
        <time>2015-02-08T11:44:57Z</time>
      </trkpt>
      <trkpt lat="45.5064" lon="6.6127">
        <ele>1851.64</ele>
        <time>2015-02-08T11:45:04Z</time>
      </trkpt>
      <trkpt lat="45.50652" lon="6.61255">
        <ele>1849.71</ele>
        <time>2015-02-08T11:45:08Z</time>
      </trkpt>
      <trkpt lat="45.50671" lon="6.61262">
        <ele>1845.39</ele>
        <time>2015-02-08T11:45:11Z</time>
      </trkpt>
      <trkpt lat="45.50684" lon="6.61267">
        <ele>1842.02</ele>
        <time>2015-02-08T11:45:13Z</time>
      </trkpt>
      <trkpt lat="45.5069" lon="6.61269">
        <ele>1839.14</ele>
        <time>2015-02-08T11:45:14Z</time>
      </trkpt>
      <trkpt lat="45.50697" lon="6.61275">
        <ele>1834.33</ele>
        <time>2015-02-08T11:45:16Z</time>
      </trkpt>
      <trkpt lat="45.50699" lon="6.61273">
        <ele>1834.33</ele>
        <time>2015-02-08T11:45:19Z</time>
      </trkpt>
      <trkpt lat="45.50696" lon="6.6128">
        <ele>1833.37</ele>
        <time>2015-02-08T11:45:27Z</time>
      </trkpt>
      <trkpt lat="45.50695" lon="6.61284">
        <ele>1833.85</ele>
        <time>2015-02-08T11:45:39Z</time>
      </trkpt>
      <trkpt lat="45.50696" lon="6.61287">
        <ele>1833.85</ele>
        <time>2015-02-08T11:45:59Z</time>
      </trkpt>
      <trkpt lat="45.50696" lon="6.6129">
        <ele>1833.85</ele>
        <time>2015-02-08T11:46:10Z</time>
      </trkpt>
      <trkpt lat="45.50698" lon="6.61292">
        <ele>1833.37</ele>
        <time>2015-02-08T11:46:19Z</time>
      </trkpt>
      <trkpt lat="45.50698" lon="6.61291">
        <ele>1833.37</ele>
        <time>2015-02-08T11:46:42Z</time>
      </trkpt>
      <trkpt lat="45.50698" lon="6.61291">
        <ele>1833.37</ele>
        <time>2015-02-08T11:47:00Z</time>
      </trkpt>
      <trkpt lat="45.50699" lon="6.61289">
        <ele>1833.37</ele>
        <time>2015-02-08T11:47:11Z</time>
      </trkpt>
      <trkpt lat="45.50706" lon="6.61308">
        <ele>1830.01</ele>
        <time>2015-02-08T11:47:17Z</time>
      </trkpt>
      <trkpt lat="45.50708" lon="6.61312">
        <ele>1828.56</ele>
        <time>2015-02-08T11:47:18Z</time>
      </trkpt>
      <trkpt lat="45.5071" lon="6.61317">
        <ele>1828.56</ele>
        <time>2015-02-08T11:47:19Z</time>
      </trkpt>
      <trkpt lat="45.50712" lon="6.61321">
        <ele>1826.64</ele>
        <time>2015-02-08T11:47:20Z</time>
      </trkpt>
      <trkpt lat="45.50715" lon="6.61325">
        <ele>1823.76</ele>
        <time>2015-02-08T11:47:21Z</time>
      </trkpt>
      <trkpt lat="45.50716" lon="6.61331">
        <ele>1823.76</ele>
        <time>2015-02-08T11:47:22Z</time>
      </trkpt>
      <trkpt lat="45.50719" lon="6.61335">
        <ele>1822.32</ele>
        <time>2015-02-08T11:47:23Z</time>
      </trkpt>
      <trkpt lat="45.50722" lon="6.61338">
        <ele>1821.35</ele>
        <time>2015-02-08T11:47:24Z</time>
      </trkpt>
      <trkpt lat="45.50725" lon="6.61342">
        <ele>1821.35</ele>
        <time>2015-02-08T11:47:25Z</time>
      </trkpt>
      <trkpt lat="45.50727" lon="6.61345">
        <ele>1820.39</ele>
        <time>2015-02-08T11:47:26Z</time>
      </trkpt>
      <trkpt lat="45.50729" lon="6.61349">
        <ele>1819.91</ele>
        <time>2015-02-08T11:47:27Z</time>
      </trkpt>
      <trkpt lat="45.5073" lon="6.61352">
        <ele>1819.91</ele>
        <time>2015-02-08T11:47:28Z</time>
      </trkpt>
      <trkpt lat="45.50732" lon="6.61354">
        <ele>1818.95</ele>
        <time>2015-02-08T11:47:29Z</time>
      </trkpt>
      <trkpt lat="45.50735" lon="6.61354">
        <ele>1818.95</ele>
        <time>2015-02-08T11:47:30Z</time>
      </trkpt>
      <trkpt lat="45.50741" lon="6.61351">
        <ele>1816.55</ele>
        <time>2015-02-08T11:47:32Z</time>
      </trkpt>
      <trkpt lat="45.50744" lon="6.61348">
        <ele>1816.55</ele>
        <time>2015-02-08T11:47:33Z</time>
      </trkpt>
      <trkpt lat="45.50747" lon="6.61345">
        <ele>1814.15</ele>
        <time>2015-02-08T11:47:34Z</time>
      </trkpt>
      <trkpt lat="45.5075" lon="6.61342">
        <ele>1813.18</ele>
        <time>2015-02-08T11:47:35Z</time>
      </trkpt>
      <trkpt lat="45.50753" lon="6.6134">
        <ele>1811.74</ele>
        <time>2015-02-08T11:47:36Z</time>
      </trkpt>
      <trkpt lat="45.50756" lon="6.6134">
        <ele>1810.3</ele>
        <time>2015-02-08T11:47:37Z</time>
      </trkpt>
      <trkpt lat="45.5076" lon="6.6134">
        <ele>1809.34</ele>
        <time>2015-02-08T11:47:38Z</time>
      </trkpt>
      <trkpt lat="45.50764" lon="6.61339">
        <ele>1807.9</ele>
        <time>2015-02-08T11:47:39Z</time>
      </trkpt>
      <trkpt lat="45.50767" lon="6.61339">
        <ele>1805.49</ele>
        <time>2015-02-08T11:47:40Z</time>
      </trkpt>
      <trkpt lat="45.5077" lon="6.61342">
        <ele>1804.05</ele>
        <time>2015-02-08T11:47:42Z</time>
      </trkpt>
      <trkpt lat="45.50771" lon="6.61344">
        <ele>1803.09</ele>
        <time>2015-02-08T11:47:44Z</time>
      </trkpt>
      <trkpt lat="45.50773" lon="6.61345">
        <ele>1803.57</ele>
        <time>2015-02-08T11:47:45Z</time>
      </trkpt>
      <trkpt lat="45.50775" lon="6.61339">
        <ele>1802.61</ele>
        <time>2015-02-08T11:47:50Z</time>
      </trkpt>
      <trkpt lat="45.50775" lon="6.6133">
        <ele>1801.17</ele>
        <time>2015-02-08T11:47:58Z</time>
      </trkpt>
      <trkpt lat="45.50778" lon="6.61328">
        <ele>1800.21</ele>
        <time>2015-02-08T11:48:00Z</time>
      </trkpt>
      <trkpt lat="45.50784" lon="6.61326">
        <ele>1798.28</ele>
        <time>2015-02-08T11:48:02Z</time>
      </trkpt>
      <trkpt lat="45.50796" lon="6.61316">
        <ele>1794.92</ele>
        <time>2015-02-08T11:48:08Z</time>
      </trkpt>
      <trkpt lat="45.50796" lon="6.61317">
        <ele>1794.92</ele>
        <time>2015-02-08T11:48:09Z</time>
      </trkpt>
      <trkpt lat="45.50796" lon="6.6132">
        <ele>1794.92</ele>
        <time>2015-02-08T11:48:10Z</time>
      </trkpt>
      <trkpt lat="45.50796" lon="6.61323">
        <ele>1794.92</ele>
        <time>2015-02-08T11:48:11Z</time>
      </trkpt>
      <trkpt lat="45.50797" lon="6.61327">
        <ele>1794.92</ele>
        <time>2015-02-08T11:48:12Z</time>
      </trkpt>
      <trkpt lat="45.50799" lon="6.61331">
        <ele>1794.92</ele>
        <time>2015-02-08T11:48:13Z</time>
      </trkpt>
      <trkpt lat="45.508" lon="6.61335">
        <ele>1793.96</ele>
        <time>2015-02-08T11:48:14Z</time>
      </trkpt>
      <trkpt lat="45.50813" lon="6.61358">
        <ele>1791.55</ele>
        <time>2015-02-08T11:48:20Z</time>
      </trkpt>
      <trkpt lat="45.50825" lon="6.61372">
        <ele>1789.63</ele>
        <time>2015-02-08T11:48:24Z</time>
      </trkpt>
      <trkpt lat="45.50829" lon="6.61376">
        <ele>1788.67</ele>
        <time>2015-02-08T11:48:25Z</time>
      </trkpt>
      <trkpt lat="45.50833" lon="6.6138">
        <ele>1788.67</ele>
        <time>2015-02-08T11:48:26Z</time>
      </trkpt>
      <trkpt lat="45.50837" lon="6.61384">
        <ele>1788.19</ele>
        <time>2015-02-08T11:48:27Z</time>
      </trkpt>
      <trkpt lat="45.50848" lon="6.61396">
        <ele>1785.79</ele>
        <time>2015-02-08T11:48:30Z</time>
      </trkpt>
      <trkpt lat="45.50852" lon="6.614">
        <ele>1785.31</ele>
        <time>2015-02-08T11:48:31Z</time>
      </trkpt>
      <trkpt lat="45.50858" lon="6.61408">
        <ele>1784.34</ele>
        <time>2015-02-08T11:48:33Z</time>
      </trkpt>
      <trkpt lat="45.50876" lon="6.61432">
        <ele>1780.5</ele>
        <time>2015-02-08T11:48:38Z</time>
      </trkpt>
      <trkpt lat="45.5088" lon="6.61436">
        <ele>1780.5</ele>
        <time>2015-02-08T11:48:39Z</time>
      </trkpt>
      <trkpt lat="45.50891" lon="6.6145">
        <ele>1778.58</ele>
        <time>2015-02-08T11:48:42Z</time>
      </trkpt>
      <trkpt lat="45.50909" lon="6.61478">
        <ele>1775.21</ele>
        <time>2015-02-08T11:48:47Z</time>
      </trkpt>
      <trkpt lat="45.50923" lon="6.61503">
        <ele>1772.33</ele>
        <time>2015-02-08T11:48:51Z</time>
      </trkpt>
      <trkpt lat="45.50927" lon="6.61509">
        <ele>1771.37</ele>
        <time>2015-02-08T11:48:52Z</time>
      </trkpt>
      <trkpt lat="45.50932" lon="6.61514">
        <ele>1770.89</ele>
        <time>2015-02-08T11:48:53Z</time>
      </trkpt>
      <trkpt lat="45.50937" lon="6.61518">
        <ele>1769.92</ele>
        <time>2015-02-08T11:48:54Z</time>
      </trkpt>
      <trkpt lat="45.50941" lon="6.61521">
        <ele>1769.44</ele>
        <time>2015-02-08T11:48:55Z</time>
      </trkpt>
      <trkpt lat="45.50955" lon="6.61533">
        <ele>1768</ele>
        <time>2015-02-08T11:48:58Z</time>
      </trkpt>
      <trkpt lat="45.50963" lon="6.6154">
        <ele>1766.56</ele>
        <time>2015-02-08T11:49:00Z</time>
      </trkpt>
      <trkpt lat="45.5098" lon="6.61557">
        <ele>1763.2</ele>
        <time>2015-02-08T11:49:05Z</time>
      </trkpt>
      <trkpt lat="45.51003" lon="6.61581">
        <ele>1760.31</ele>
        <time>2015-02-08T11:49:13Z</time>
      </trkpt>
      <trkpt lat="45.5103" lon="6.61609">
        <ele>1756.47</ele>
        <time>2015-02-08T11:49:22Z</time>
      </trkpt>
      <trkpt lat="45.51032" lon="6.61612">
        <ele>1756.47</ele>
        <time>2015-02-08T11:49:23Z</time>
      </trkpt>
      <trkpt lat="45.51053" lon="6.61636">
        <ele>1753.1</ele>
        <time>2015-02-08T11:49:35Z</time>
      </trkpt>
      <trkpt lat="45.51055" lon="6.61641">
        <ele>1752.62</ele>
        <time>2015-02-08T11:49:46Z</time>
      </trkpt>
      <trkpt lat="45.5106" lon="6.61644">
        <ele>1752.14</ele>
        <time>2015-02-08T11:49:58Z</time>
      </trkpt>
      <trkpt lat="45.51068" lon="6.61652">
        <ele>1751.18</ele>
        <time>2015-02-08T11:50:09Z</time>
      </trkpt>
      <trkpt lat="45.51085" lon="6.61671">
        <ele>1750.22</ele>
        <time>2015-02-08T11:50:19Z</time>
      </trkpt>
      <trkpt lat="45.51108" lon="6.61703">
        <ele>1746.85</ele>
        <time>2015-02-08T11:50:30Z</time>
      </trkpt>
      <trkpt lat="45.51115" lon="6.61703">
        <ele>1745.41</ele>
        <time>2015-02-08T11:50:33Z</time>
      </trkpt>
      <trkpt lat="45.51115" lon="6.61701">
        <ele>1745.41</ele>
        <time>2015-02-08T11:50:34Z</time>
      </trkpt>
      <trkpt lat="45.51114" lon="6.61698">
        <ele>1744.93</ele>
        <time>2015-02-08T11:50:35Z</time>
      </trkpt>
      <trkpt lat="45.51093" lon="6.61661">
        <ele>1742.05</ele>
        <time>2015-02-08T11:50:45Z</time>
      </trkpt>
      <trkpt lat="45.51079" lon="6.61625">
        <ele>1738.68</ele>
        <time>2015-02-08T11:50:53Z</time>
      </trkpt>
      <trkpt lat="45.5106" lon="6.61584">
        <ele>1736.28</ele>
        <time>2015-02-08T11:51:04Z</time>
      </trkpt>
      <trkpt lat="45.5105" lon="6.61564">
        <ele>1734.36</ele>
        <time>2015-02-08T11:51:11Z</time>
      </trkpt>
      <trkpt lat="45.5105" lon="6.61561">
        <ele>1733.88</ele>
        <time>2015-02-08T11:51:12Z</time>
      </trkpt>
      <trkpt lat="45.5105" lon="6.61558">
        <ele>1733.39</ele>
        <time>2015-02-08T11:51:13Z</time>
      </trkpt>
      <trkpt lat="45.51051" lon="6.61555">
        <ele>1732.43</ele>
        <time>2015-02-08T11:51:14Z</time>
      </trkpt>
      <trkpt lat="45.51053" lon="6.61553">
        <ele>1732.43</ele>
        <time>2015-02-08T11:51:15Z</time>
      </trkpt>
      <trkpt lat="45.51055" lon="6.61551">
        <ele>1731.95</ele>
        <time>2015-02-08T11:51:16Z</time>
      </trkpt>
      <trkpt lat="45.51059" lon="6.61551">
        <ele>1731.95</ele>
        <time>2015-02-08T11:51:18Z</time>
      </trkpt>
      <trkpt lat="45.51069" lon="6.61559">
        <ele>1729.55</ele>
        <time>2015-02-08T11:51:24Z</time>
      </trkpt>
      <trkpt lat="45.51077" lon="6.61561">
        <ele>1727.63</ele>
        <time>2015-02-08T11:51:28Z</time>
      </trkpt>
      <trkpt lat="45.51081" lon="6.61556">
        <ele>1725.22</ele>
        <time>2015-02-08T11:51:30Z</time>
      </trkpt>
      <trkpt lat="45.51089" lon="6.61544">
        <ele>1720.9</ele>
        <time>2015-02-08T11:51:33Z</time>
      </trkpt>
      <trkpt lat="45.5109" lon="6.6154">
        <ele>1719.46</ele>
        <time>2015-02-08T11:51:34Z</time>
      </trkpt>
      <trkpt lat="45.51092" lon="6.61537">
        <ele>1718.97</ele>
        <time>2015-02-08T11:51:35Z</time>
      </trkpt>
      <trkpt lat="45.51093" lon="6.61534">
        <ele>1718.97</ele>
        <time>2015-02-08T11:51:36Z</time>
      </trkpt>
      <trkpt lat="45.51096" lon="6.61522">
        <ele>1715.61</ele>
        <time>2015-02-08T11:51:39Z</time>
      </trkpt>
      <trkpt lat="45.51104" lon="6.61518">
        <ele>1712.25</ele>
        <time>2015-02-08T11:51:42Z</time>
      </trkpt>
      <trkpt lat="45.51109" lon="6.61514">
        <ele>1709.36</ele>
        <time>2015-02-08T11:51:44Z</time>
      </trkpt>
      <trkpt lat="45.51126" lon="6.6149">
        <ele>1703.11</ele>
        <time>2015-02-08T11:51:49Z</time>
      </trkpt>
      <trkpt lat="45.5113" lon="6.61477">
        <ele>1699.27</ele>
        <time>2015-02-08T11:51:54Z</time>
      </trkpt>
      <trkpt lat="45.51135" lon="6.61468">
        <ele>1694.94</ele>
        <time>2015-02-08T11:51:57Z</time>
      </trkpt>
      <trkpt lat="45.51135" lon="6.61465">
        <ele>1694.46</ele>
        <time>2015-02-08T11:51:59Z</time>
      </trkpt>
      <trkpt lat="45.51135" lon="6.61467">
        <ele>1694.46</ele>
        <time>2015-02-08T11:52:02Z</time>
      </trkpt>
      <trkpt lat="45.51145" lon="6.61468">
        <ele>1692.54</ele>
        <time>2015-02-08T11:52:06Z</time>
      </trkpt>
      <trkpt lat="45.51148" lon="6.6147">
        <ele>1691.58</ele>
        <time>2015-02-08T11:52:08Z</time>
      </trkpt>
      <trkpt lat="45.51149" lon="6.61471">
        <ele>1691.58</ele>
        <time>2015-02-08T11:52:10Z</time>
      </trkpt>
      <trkpt lat="45.51156" lon="6.61469">
        <ele>1688.21</ele>
        <time>2015-02-08T11:52:13Z</time>
      </trkpt>
      <trkpt lat="45.51159" lon="6.61462">
        <ele>1687.25</ele>
        <time>2015-02-08T11:52:15Z</time>
      </trkpt>
      <trkpt lat="45.51168" lon="6.61445">
        <ele>1684.37</ele>
        <time>2015-02-08T11:52:20Z</time>
      </trkpt>
      <trkpt lat="45.51182" lon="6.61442">
        <ele>1680.52</ele>
        <time>2015-02-08T11:52:24Z</time>
      </trkpt>
      <trkpt lat="45.5119" lon="6.61445">
        <ele>1677.16</ele>
        <time>2015-02-08T11:52:26Z</time>
      </trkpt>
      <trkpt lat="45.51198" lon="6.6145">
        <ele>1673.79</ele>
        <time>2015-02-08T11:52:28Z</time>
      </trkpt>
      <trkpt lat="45.51209" lon="6.61454">
        <ele>1669.95</ele>
        <time>2015-02-08T11:52:31Z</time>
      </trkpt>
      <trkpt lat="45.51217" lon="6.61461">
        <ele>1666.58</ele>
        <time>2015-02-08T11:52:34Z</time>
      </trkpt>
      <trkpt lat="45.5123" lon="6.61459">
        <ele>1660.81</ele>
        <time>2015-02-08T11:52:37Z</time>
      </trkpt>
      <trkpt lat="45.51236" lon="6.61465">
        <ele>1657.93</ele>
        <time>2015-02-08T11:52:39Z</time>
      </trkpt>
      <trkpt lat="45.51238" lon="6.61466">
        <ele>1656.97</ele>
        <time>2015-02-08T11:52:40Z</time>
      </trkpt>
      <trkpt lat="45.51244" lon="6.61463">
        <ele>1656.01</ele>
        <time>2015-02-08T11:52:42Z</time>
      </trkpt>
      <trkpt lat="45.51254" lon="6.61467">
        <ele>1649.76</ele>
        <time>2015-02-08T11:52:46Z</time>
      </trkpt>
      <trkpt lat="45.51264" lon="6.61469">
        <ele>1646.88</ele>
        <time>2015-02-08T11:52:49Z</time>
      </trkpt>
      <trkpt lat="45.5128" lon="6.61478">
        <ele>1641.59</ele>
        <time>2015-02-08T11:52:53Z</time>
      </trkpt>
      <trkpt lat="45.5129" lon="6.61494">
        <ele>1637.26</ele>
        <time>2015-02-08T11:52:56Z</time>
      </trkpt>
      <trkpt lat="45.51293" lon="6.61497">
        <ele>1637.26</ele>
        <time>2015-02-08T11:52:57Z</time>
      </trkpt>
      <trkpt lat="45.51295" lon="6.61499">
        <ele>1637.26</ele>
        <time>2015-02-08T11:52:58Z</time>
      </trkpt>
      <trkpt lat="45.51299" lon="6.61501">
        <ele>1636.78</ele>
        <time>2015-02-08T11:53:00Z</time>
      </trkpt>
      <trkpt lat="45.51313" lon="6.61488">
        <ele>1632.94</ele>
        <time>2015-02-08T11:53:05Z</time>
      </trkpt>
      <trkpt lat="45.51319" lon="6.61474">
        <ele>1629.57</ele>
        <time>2015-02-08T11:53:08Z</time>
      </trkpt>
      <trkpt lat="45.51328" lon="6.61465">
        <ele>1626.69</ele>
        <time>2015-02-08T11:53:11Z</time>
      </trkpt>
      <trkpt lat="45.51334" lon="6.61466">
        <ele>1625.73</ele>
        <time>2015-02-08T11:53:13Z</time>
      </trkpt>
      <trkpt lat="45.51333" lon="6.61468">
        <ele>1625.25</ele>
        <time>2015-02-08T11:53:21Z</time>
      </trkpt>
      <trkpt lat="45.51337" lon="6.61462">
        <ele>1623.8</ele>
        <time>2015-02-08T11:53:26Z</time>
      </trkpt>
      <trkpt lat="45.51337" lon="6.61462">
        <ele>1623.32</ele>
        <time>2015-02-08T11:53:31Z</time>
      </trkpt>
      <trkpt lat="45.51336" lon="6.6146">
        <ele>1621.88</ele>
        <time>2015-02-08T11:53:34Z</time>
      </trkpt>
      <trkpt lat="45.51336" lon="6.61459">
        <ele>1621.88</ele>
        <time>2015-02-08T11:53:35Z</time>
      </trkpt>
      <trkpt lat="45.51347" lon="6.61454">
        <ele>1620.44</ele>
        <time>2015-02-08T11:53:39Z</time>
      </trkpt>
      <trkpt lat="45.51363" lon="6.61456">
        <ele>1616.59</ele>
        <time>2015-02-08T11:53:42Z</time>
      </trkpt>
      <trkpt lat="45.51368" lon="6.6146">
        <ele>1616.59</ele>
        <time>2015-02-08T11:53:43Z</time>
      </trkpt>
      <trkpt lat="45.51377" lon="6.61468">
        <ele>1615.15</ele>
        <time>2015-02-08T11:53:45Z</time>
      </trkpt>
      <trkpt lat="45.51381" lon="6.61473">
        <ele>1614.67</ele>
        <time>2015-02-08T11:53:46Z</time>
      </trkpt>
      <trkpt lat="45.51399" lon="6.61502">
        <ele>1611.31</ele>
        <time>2015-02-08T11:53:51Z</time>
      </trkpt>
      <trkpt lat="45.51403" lon="6.61507">
        <ele>1611.31</ele>
        <time>2015-02-08T11:53:52Z</time>
      </trkpt>
      <trkpt lat="45.51422" lon="6.61536">
        <ele>1606.98</ele>
        <time>2015-02-08T11:53:57Z</time>
      </trkpt>
      <trkpt lat="45.5144" lon="6.61566">
        <ele>1603.62</ele>
        <time>2015-02-08T11:54:02Z</time>
      </trkpt>
      <trkpt lat="45.51444" lon="6.61571">
        <ele>1603.62</ele>
        <time>2015-02-08T11:54:03Z</time>
      </trkpt>
      <trkpt lat="45.51461" lon="6.61601">
        <ele>1600.25</ele>
        <time>2015-02-08T11:54:08Z</time>
      </trkpt>
      <trkpt lat="45.51477" lon="6.61628">
        <ele>1596.41</ele>
        <time>2015-02-08T11:54:13Z</time>
      </trkpt>
      <trkpt lat="45.51481" lon="6.61634">
        <ele>1595.93</ele>
        <time>2015-02-08T11:54:14Z</time>
      </trkpt>
      <trkpt lat="45.51484" lon="6.61639">
        <ele>1595.45</ele>
        <time>2015-02-08T11:54:15Z</time>
      </trkpt>
      <trkpt lat="45.51507" lon="6.61676">
        <ele>1592.08</ele>
        <time>2015-02-08T11:54:23Z</time>
      </trkpt>
      <trkpt lat="45.51514" lon="6.61678">
        <ele>1590.64</ele>
        <time>2015-02-08T11:54:26Z</time>
      </trkpt>
      <trkpt lat="45.51516" lon="6.61677">
        <ele>1590.64</ele>
        <time>2015-02-08T11:54:27Z</time>
      </trkpt>
      <trkpt lat="45.51519" lon="6.61674">
        <ele>1590.16</ele>
        <time>2015-02-08T11:54:28Z</time>
      </trkpt>
      <trkpt lat="45.5152" lon="6.6167">
        <ele>1589.68</ele>
        <time>2015-02-08T11:54:29Z</time>
      </trkpt>
      <trkpt lat="45.51521" lon="6.61666">
        <ele>1589.68</ele>
        <time>2015-02-08T11:54:30Z</time>
      </trkpt>
      <trkpt lat="45.51521" lon="6.61661">
        <ele>1589.2</ele>
        <time>2015-02-08T11:54:31Z</time>
      </trkpt>
      <trkpt lat="45.51521" lon="6.61657">
        <ele>1589.2</ele>
        <time>2015-02-08T11:54:32Z</time>
      </trkpt>
      <trkpt lat="45.5152" lon="6.61653">
        <ele>1588.72</ele>
        <time>2015-02-08T11:54:33Z</time>
      </trkpt>
      <trkpt lat="45.51519" lon="6.61648">
        <ele>1588.72</ele>
        <time>2015-02-08T11:54:34Z</time>
      </trkpt>
      <trkpt lat="45.51519" lon="6.61644">
        <ele>1588.72</ele>
        <time>2015-02-08T11:54:35Z</time>
      </trkpt>
      <trkpt lat="45.51518" lon="6.61639">
        <ele>1588.24</ele>
        <time>2015-02-08T11:54:36Z</time>
      </trkpt>
      <trkpt lat="45.51514" lon="6.61621">
        <ele>1586.79</ele>
        <time>2015-02-08T11:54:40Z</time>
      </trkpt>
      <trkpt lat="45.51506" lon="6.61593">
        <ele>1584.87</ele>
        <time>2015-02-08T11:54:45Z</time>
      </trkpt>
      <trkpt lat="45.51503" lon="6.61581">
        <ele>1583.43</ele>
        <time>2015-02-08T11:54:47Z</time>
      </trkpt>
      <trkpt lat="45.51502" lon="6.61575">
        <ele>1582.95</ele>
        <time>2015-02-08T11:54:48Z</time>
      </trkpt>
      <trkpt lat="45.51496" lon="6.61529">
        <ele>1579.58</ele>
        <time>2015-02-08T11:54:56Z</time>
      </trkpt>
      <trkpt lat="45.51487" lon="6.61493">
        <ele>1576.22</ele>
        <time>2015-02-08T11:55:03Z</time>
      </trkpt>
      <trkpt lat="45.51482" lon="6.61471">
        <ele>1574.3</ele>
        <time>2015-02-08T11:55:07Z</time>
      </trkpt>
      <trkpt lat="45.51482" lon="6.61464">
        <ele>1573.82</ele>
        <time>2015-02-08T11:55:08Z</time>
      </trkpt>
      <trkpt lat="45.51482" lon="6.61458">
        <ele>1573.82</ele>
        <time>2015-02-08T11:55:09Z</time>
      </trkpt>
      <trkpt lat="45.51483" lon="6.61453">
        <ele>1573.33</ele>
        <time>2015-02-08T11:55:10Z</time>
      </trkpt>
      <trkpt lat="45.51485" lon="6.61447">
        <ele>1572.85</ele>
        <time>2015-02-08T11:55:11Z</time>
      </trkpt>
      <trkpt lat="45.51487" lon="6.61442">
        <ele>1572.37</ele>
        <time>2015-02-08T11:55:12Z</time>
      </trkpt>
      <trkpt lat="45.51489" lon="6.61436">
        <ele>1572.37</ele>
        <time>2015-02-08T11:55:13Z</time>
      </trkpt>
      <trkpt lat="45.51491" lon="6.6143">
        <ele>1570.93</ele>
        <time>2015-02-08T11:55:14Z</time>
      </trkpt>
      <trkpt lat="45.51496" lon="6.61418">
        <ele>1569.97</ele>
        <time>2015-02-08T11:55:16Z</time>
      </trkpt>
      <trkpt lat="45.51498" lon="6.61411">
        <ele>1569.97</ele>
        <time>2015-02-08T11:55:17Z</time>
      </trkpt>
      <trkpt lat="45.515" lon="6.61405">
        <ele>1569.01</ele>
        <time>2015-02-08T11:55:18Z</time>
      </trkpt>
      <trkpt lat="45.51502" lon="6.61398">
        <ele>1569.01</ele>
        <time>2015-02-08T11:55:19Z</time>
      </trkpt>
      <trkpt lat="45.51503" lon="6.61391">
        <ele>1568.05</ele>
        <time>2015-02-08T11:55:20Z</time>
      </trkpt>
      <trkpt lat="45.51505" lon="6.61377">
        <ele>1567.09</ele>
        <time>2015-02-08T11:55:22Z</time>
      </trkpt>
      <trkpt lat="45.51514" lon="6.61331">
        <ele>1563.72</ele>
        <time>2015-02-08T11:55:29Z</time>
      </trkpt>
      <trkpt lat="45.5152" lon="6.613">
        <ele>1562.76</ele>
        <time>2015-02-08T11:55:38Z</time>
      </trkpt>
      <trkpt lat="45.51524" lon="6.61294">
        <ele>1562.76</ele>
        <time>2015-02-08T11:55:47Z</time>
      </trkpt>
      <trkpt lat="45.51525" lon="6.61293">
        <ele>1562.76</ele>
        <time>2015-02-08T11:55:48Z</time>
      </trkpt>
      <trkpt lat="45.51537" lon="6.61281">
        <ele>1562.76</ele>
        <time>2015-02-08T11:56:00Z</time>
      </trkpt>
      <trkpt lat="45.51552" lon="6.61267">
        <ele>1564.68</ele>
        <time>2015-02-08T11:56:10Z</time>
      </trkpt>
      <trkpt lat="45.51553" lon="6.61264">
        <ele>1564.68</ele>
        <time>2015-02-08T11:56:11Z</time>
      </trkpt>
      <trkpt lat="45.51552" lon="6.61228">
        <ele>1563.24</ele>
        <time>2015-02-08T11:56:23Z</time>
      </trkpt>
      <trkpt lat="45.51551" lon="6.61225">
        <ele>1563.24</ele>
        <time>2015-02-08T11:56:24Z</time>
      </trkpt>
      <trkpt lat="45.51529" lon="6.61181">
        <ele>1561.8</ele>
        <time>2015-02-08T11:56:35Z</time>
      </trkpt>
      <trkpt lat="45.51506" lon="6.61145">
        <ele>1558.92</ele>
        <time>2015-02-08T11:56:44Z</time>
      </trkpt>
      <trkpt lat="45.5147" lon="6.61097">
        <ele>1556.03</ele>
        <time>2015-02-08T11:56:56Z</time>
      </trkpt>
      <trkpt lat="45.51443" lon="6.61044">
        <ele>1553.63</ele>
        <time>2015-02-08T11:57:07Z</time>
      </trkpt>
      <trkpt lat="45.51434" lon="6.61021">
        <ele>1551.71</ele>
        <time>2015-02-08T11:57:11Z</time>
      </trkpt>
      <trkpt lat="45.51435" lon="6.60975">
        <ele>1549.78</ele>
        <time>2015-02-08T11:57:21Z</time>
      </trkpt>
      <trkpt lat="45.51437" lon="6.60948">
        <ele>1549.78</ele>
        <time>2015-02-08T11:57:34Z</time>
      </trkpt>
      <trkpt lat="45.51441" lon="6.60943">
        <ele>1549.78</ele>
        <time>2015-02-08T11:57:41Z</time>
      </trkpt>
      <trkpt lat="45.51443" lon="6.6094">
        <ele>1549.78</ele>
        <time>2015-02-08T11:57:48Z</time>
      </trkpt>
      <trkpt lat="45.51445" lon="6.60941">
        <ele>1549.78</ele>
        <time>2015-02-08T11:57:51Z</time>
      </trkpt>
      <trkpt lat="45.51446" lon="6.60941">
        <ele>1549.78</ele>
        <time>2015-02-08T11:57:52Z</time>
      </trkpt>
      <trkpt lat="45.51448" lon="6.60942">
        <ele>1549.78</ele>
        <time>2015-02-08T11:57:55Z</time>
      </trkpt>
      <trkpt lat="45.51451" lon="6.60941">
        <ele>1549.78</ele>
        <time>2015-02-08T11:57:59Z</time>
      </trkpt>
      <trkpt lat="45.51452" lon="6.60939">
        <ele>1549.78</ele>
        <time>2015-02-08T11:58:01Z</time>
      </trkpt>
      <trkpt lat="45.51475" lon="6.60921">
        <ele>1549.78</ele>
        <time>2015-02-08T11:58:13Z</time>
      </trkpt>
      <trkpt lat="45.51482" lon="6.60916">
        <ele>1549.3</ele>
        <time>2015-02-08T11:58:24Z</time>
      </trkpt>
      <trkpt lat="45.51488" lon="6.60914">
        <ele>1549.3</ele>
        <time>2015-02-08T11:58:34Z</time>
      </trkpt>
      <trkpt lat="45.51492" lon="6.60916">
        <ele>1550.74</ele>
        <time>2015-02-08T11:58:42Z</time>
      </trkpt>
      <trkpt lat="45.51493" lon="6.60917">
        <ele>1550.74</ele>
        <time>2015-02-08T11:58:43Z</time>
      </trkpt>
      <trkpt lat="45.51498" lon="6.60918">
        <ele>1551.22</ele>
        <time>2015-02-08T11:58:50Z</time>
      </trkpt>
      <trkpt lat="45.51505" lon="6.6092">
        <ele>1550.74</ele>
        <time>2015-02-08T11:59:00Z</time>
      </trkpt>
      <trkpt lat="45.51508" lon="6.60919">
        <ele>1551.22</ele>
        <time>2015-02-08T11:59:07Z</time>
      </trkpt>
      <trkpt lat="45.51511" lon="6.60917">
        <ele>1550.26</ele>
        <time>2015-02-08T11:59:11Z</time>
      </trkpt>
      <trkpt lat="45.51511" lon="6.60917">
        <ele>1549.78</ele>
        <time>2015-02-08T11:59:22Z</time>
      </trkpt>
      <trkpt lat="45.5151" lon="6.60915">
        <ele>1549.78</ele>
        <time>2015-02-08T11:59:25Z</time>
      </trkpt>
      <trkpt lat="45.51512" lon="6.60907">
        <ele>1546.9</ele>
        <time>2015-02-08T11:59:30Z</time>
      </trkpt>
      <trkpt lat="45.51514" lon="6.60907">
        <ele>1546.42</ele>
        <time>2015-02-08T11:59:32Z</time>
      </trkpt>
      <trkpt lat="45.51515" lon="6.60903">
        <ele>1544.01</ele>
        <time>2015-02-08T11:59:35Z</time>
      </trkpt>
      <trkpt lat="45.51514" lon="6.60896">
        <ele>1541.61</ele>
        <time>2015-02-08T11:59:39Z</time>
      </trkpt>
      <trkpt lat="45.51514" lon="6.60893">
        <ele>1540.17</ele>
        <time>2015-02-08T11:59:43Z</time>
      </trkpt>
      <trkpt lat="45.51514" lon="6.60892">
        <ele>1540.17</ele>
        <time>2015-02-08T11:59:44Z</time>
      </trkpt>
      <trkpt lat="45.51514" lon="6.60891">
        <ele>1540.17</ele>
        <time>2015-02-08T11:59:46Z</time>
      </trkpt>
      <trkpt lat="45.51522" lon="6.60885">
        <ele>1537.77</ele>
        <time>2015-02-08T11:59:51Z</time>
      </trkpt>
      <trkpt lat="45.51521" lon="6.60884">
        <ele>1537.77</ele>
        <time>2015-02-08T11:59:53Z</time>
      </trkpt>
      <trkpt lat="45.51514" lon="6.60879">
        <ele>1537.77</ele>
        <time>2015-02-08T11:59:58Z</time>
      </trkpt>
      <trkpt lat="45.51511" lon="6.60878">
        <ele>1537.77</ele>
        <time>2015-02-08T11:59:59Z</time>
      </trkpt>
      <trkpt lat="45.51474" lon="6.60854">
        <ele>1533.92</ele>
        <time>2015-02-08T12:00:11Z</time>
      </trkpt>
      <trkpt lat="45.51443" lon="6.60849">
        <ele>1532</ele>
        <time>2015-02-08T12:00:23Z</time>
      </trkpt>
      <trkpt lat="45.51419" lon="6.6086">
        <ele>1529.11</ele>
        <time>2015-02-08T12:00:31Z</time>
      </trkpt>
      <trkpt lat="45.51407" lon="6.60862">
        <ele>1527.67</ele>
        <time>2015-02-08T12:00:35Z</time>
      </trkpt>
      <trkpt lat="45.51405" lon="6.60859">
        <ele>1527.19</ele>
        <time>2015-02-08T12:00:36Z</time>
      </trkpt>
      <trkpt lat="45.51404" lon="6.60854">
        <ele>1527.19</ele>
        <time>2015-02-08T12:00:37Z</time>
      </trkpt>
      <trkpt lat="45.51406" lon="6.60849">
        <ele>1526.23</ele>
        <time>2015-02-08T12:00:38Z</time>
      </trkpt>
      <trkpt lat="45.51408" lon="6.60846">
        <ele>1525.75</ele>
        <time>2015-02-08T12:00:39Z</time>
      </trkpt>
      <trkpt lat="45.5141" lon="6.60843">
        <ele>1525.27</ele>
        <time>2015-02-08T12:00:40Z</time>
      </trkpt>
      <trkpt lat="45.51413" lon="6.60841">
        <ele>1525.27</ele>
        <time>2015-02-08T12:00:41Z</time>
      </trkpt>
      <trkpt lat="45.51428" lon="6.60817">
        <ele>1521.9</ele>
        <time>2015-02-08T12:00:47Z</time>
      </trkpt>
      <trkpt lat="45.51431" lon="6.60812">
        <ele>1520.94</ele>
        <time>2015-02-08T12:00:48Z</time>
      </trkpt>
      <trkpt lat="45.51433" lon="6.60805">
        <ele>1520.46</ele>
        <time>2015-02-08T12:00:49Z</time>
      </trkpt>
      <trkpt lat="45.51433" lon="6.60798">
        <ele>1519.5</ele>
        <time>2015-02-08T12:00:50Z</time>
      </trkpt>
      <trkpt lat="45.51432" lon="6.60792">
        <ele>1519.02</ele>
        <time>2015-02-08T12:00:51Z</time>
      </trkpt>
      <trkpt lat="45.5143" lon="6.60787">
        <ele>1518.06</ele>
        <time>2015-02-08T12:00:52Z</time>
      </trkpt>
      <trkpt lat="45.51427" lon="6.60782">
        <ele>1517.58</ele>
        <time>2015-02-08T12:00:53Z</time>
      </trkpt>
      <trkpt lat="45.51424" lon="6.60778">
        <ele>1517.1</ele>
        <time>2015-02-08T12:00:54Z</time>
      </trkpt>
      <trkpt lat="45.51417" lon="6.60771">
        <ele>1516.14</ele>
        <time>2015-02-08T12:00:56Z</time>
      </trkpt>
      <trkpt lat="45.51413" lon="6.60767">
        <ele>1515.66</ele>
        <time>2015-02-08T12:00:57Z</time>
      </trkpt>
      <trkpt lat="45.51406" lon="6.60759">
        <ele>1514.21</ele>
        <time>2015-02-08T12:00:59Z</time>
      </trkpt>
      <trkpt lat="45.51391" lon="6.60736">
        <ele>1511.33</ele>
        <time>2015-02-08T12:01:04Z</time>
      </trkpt>
      <trkpt lat="45.51388" lon="6.60732">
        <ele>1510.37</ele>
        <time>2015-02-08T12:01:05Z</time>
      </trkpt>
      <trkpt lat="45.51375" lon="6.60714">
        <ele>1507.97</ele>
        <time>2015-02-08T12:01:09Z</time>
      </trkpt>
      <trkpt lat="45.51361" lon="6.60693">
        <ele>1505.56</ele>
        <time>2015-02-08T12:01:14Z</time>
      </trkpt>
      <trkpt lat="45.51357" lon="6.6069">
        <ele>1504.12</ele>
        <time>2015-02-08T12:01:15Z</time>
      </trkpt>
      <trkpt lat="45.51355" lon="6.60685">
        <ele>1504.12</ele>
        <time>2015-02-08T12:01:16Z</time>
      </trkpt>
      <trkpt lat="45.51353" lon="6.60681">
        <ele>1503.64</ele>
        <time>2015-02-08T12:01:17Z</time>
      </trkpt>
      <trkpt lat="45.51351" lon="6.60676">
        <ele>1503.16</ele>
        <time>2015-02-08T12:01:18Z</time>
      </trkpt>
      <trkpt lat="45.51349" lon="6.60665">
        <ele>1502.2</ele>
        <time>2015-02-08T12:01:20Z</time>
      </trkpt>
      <trkpt lat="45.51348" lon="6.60659">
        <ele>1501.72</ele>
        <time>2015-02-08T12:01:21Z</time>
      </trkpt>
      <trkpt lat="45.51348" lon="6.60646">
        <ele>1500.27</ele>
        <time>2015-02-08T12:01:23Z</time>
      </trkpt>
      <trkpt lat="45.51354" lon="6.60617">
        <ele>1497.87</ele>
        <time>2015-02-08T12:01:27Z</time>
      </trkpt>
      <trkpt lat="45.51356" lon="6.60611">
        <ele>1496.91</ele>
        <time>2015-02-08T12:01:28Z</time>
      </trkpt>
      <trkpt lat="45.51359" lon="6.60605">
        <ele>1496.43</ele>
        <time>2015-02-08T12:01:29Z</time>
      </trkpt>
      <trkpt lat="45.51363" lon="6.60602">
        <ele>1495.95</ele>
        <time>2015-02-08T12:01:30Z</time>
      </trkpt>
      <trkpt lat="45.51368" lon="6.60599">
        <ele>1494.99</ele>
        <time>2015-02-08T12:01:31Z</time>
      </trkpt>
      <trkpt lat="45.51373" lon="6.60597">
        <ele>1494.03</ele>
        <time>2015-02-08T12:01:32Z</time>
      </trkpt>
      <trkpt lat="45.51377" lon="6.60594">
        <ele>1493.55</ele>
        <time>2015-02-08T12:01:33Z</time>
      </trkpt>
      <trkpt lat="45.51382" lon="6.60592">
        <ele>1492.58</ele>
        <time>2015-02-08T12:01:34Z</time>
      </trkpt>
      <trkpt lat="45.51387" lon="6.6059">
        <ele>1492.58</ele>
        <time>2015-02-08T12:01:35Z</time>
      </trkpt>
      <trkpt lat="45.51396" lon="6.60587">
        <ele>1490.66</ele>
        <time>2015-02-08T12:01:37Z</time>
      </trkpt>
      <trkpt lat="45.51401" lon="6.60587">
        <ele>1490.18</ele>
        <time>2015-02-08T12:01:38Z</time>
      </trkpt>
      <trkpt lat="45.51405" lon="6.60586">
        <ele>1489.7</ele>
        <time>2015-02-08T12:01:39Z</time>
      </trkpt>
      <trkpt lat="45.51407" lon="6.60582">
        <ele>1488.74</ele>
        <time>2015-02-08T12:01:40Z</time>
      </trkpt>
      <trkpt lat="45.51408" lon="6.60578">
        <ele>1488.74</ele>
        <time>2015-02-08T12:01:41Z</time>
      </trkpt>
      <trkpt lat="45.51408" lon="6.60573">
        <ele>1487.78</ele>
        <time>2015-02-08T12:01:42Z</time>
      </trkpt>
      <trkpt lat="45.51406" lon="6.6057">
        <ele>1487.3</ele>
        <time>2015-02-08T12:01:43Z</time>
      </trkpt>
      <trkpt lat="45.51403" lon="6.60569">
        <ele>1487.3</ele>
        <time>2015-02-08T12:01:44Z</time>
      </trkpt>
      <trkpt lat="45.514" lon="6.60568">
        <ele>1487.3</ele>
        <time>2015-02-08T12:01:45Z</time>
      </trkpt>
      <trkpt lat="45.51397" lon="6.60568">
        <ele>1487.3</ele>
        <time>2015-02-08T12:01:46Z</time>
      </trkpt>
      <trkpt lat="45.51371" lon="6.60565">
        <ele>1483.93</ele>
        <time>2015-02-08T12:01:53Z</time>
      </trkpt>
      <trkpt lat="45.51345" lon="6.60556">
        <ele>1481.05</ele>
        <time>2015-02-08T12:02:00Z</time>
      </trkpt>
      <trkpt lat="45.5131" lon="6.6054">
        <ele>1477.68</ele>
        <time>2015-02-08T12:02:10Z</time>
      </trkpt>
      <trkpt lat="45.51269" lon="6.60519">
        <ele>1474.32</ele>
        <time>2015-02-08T12:02:21Z</time>
      </trkpt>
      <trkpt lat="45.51236" lon="6.60508">
        <ele>1470.47</ele>
        <time>2015-02-08T12:02:28Z</time>
      </trkpt>
      <trkpt lat="45.51211" lon="6.60499">
        <ele>1467.11</ele>
        <time>2015-02-08T12:02:33Z</time>
      </trkpt>
      <trkpt lat="45.512" lon="6.60495">
        <ele>1466.63</ele>
        <time>2015-02-08T12:02:35Z</time>
      </trkpt>
      <trkpt lat="45.51177" lon="6.60486">
        <ele>1463.26</ele>
        <time>2015-02-08T12:02:40Z</time>
      </trkpt>
      <trkpt lat="45.5116" lon="6.60476">
        <ele>1461.82</ele>
        <time>2015-02-08T12:02:44Z</time>
      </trkpt>
      <trkpt lat="45.51144" lon="6.60462">
        <ele>1459.9</ele>
        <time>2015-02-08T12:02:48Z</time>
      </trkpt>
      <trkpt lat="45.51141" lon="6.60458">
        <ele>1458.94</ele>
        <time>2015-02-08T12:02:49Z</time>
      </trkpt>
      <trkpt lat="45.51135" lon="6.60449">
        <ele>1457.98</ele>
        <time>2015-02-08T12:02:51Z</time>
      </trkpt>
      <trkpt lat="45.5113" lon="6.60439">
        <ele>1457.98</ele>
        <time>2015-02-08T12:02:53Z</time>
      </trkpt>
      <trkpt lat="45.5112" lon="6.60428">
        <ele>1456.53</ele>
        <time>2015-02-08T12:02:56Z</time>
      </trkpt>
      <trkpt lat="45.51116" lon="6.60425">
        <ele>1456.05</ele>
        <time>2015-02-08T12:02:57Z</time>
      </trkpt>
      <trkpt lat="45.51112" lon="6.60423">
        <ele>1455.57</ele>
        <time>2015-02-08T12:02:58Z</time>
      </trkpt>
      <trkpt lat="45.51099" lon="6.60418">
        <ele>1454.13</ele>
        <time>2015-02-08T12:03:01Z</time>
      </trkpt>
      <trkpt lat="45.51094" lon="6.60417">
        <ele>1454.13</ele>
        <time>2015-02-08T12:03:02Z</time>
      </trkpt>
      <trkpt lat="45.51089" lon="6.60415">
        <ele>1453.17</ele>
        <time>2015-02-08T12:03:03Z</time>
      </trkpt>
      <trkpt lat="45.51063" lon="6.60405">
        <ele>1449.81</ele>
        <time>2015-02-08T12:03:08Z</time>
      </trkpt>
      <trkpt lat="45.51048" lon="6.60396">
        <ele>1447.88</ele>
        <time>2015-02-08T12:03:11Z</time>
      </trkpt>
      <trkpt lat="45.51026" lon="6.6038">
        <ele>1445</ele>
        <time>2015-02-08T12:03:16Z</time>
      </trkpt>
      <trkpt lat="45.51002" lon="6.60363">
        <ele>1441.15</ele>
        <time>2015-02-08T12:03:22Z</time>
      </trkpt>
      <trkpt lat="45.50993" lon="6.60356">
        <ele>1440.67</ele>
        <time>2015-02-08T12:03:24Z</time>
      </trkpt>
      <trkpt lat="45.50981" lon="6.60346">
        <ele>1438.27</ele>
        <time>2015-02-08T12:03:27Z</time>
      </trkpt>
      <trkpt lat="45.50973" lon="6.60343">
        <ele>1437.31</ele>
        <time>2015-02-08T12:03:29Z</time>
      </trkpt>
      <trkpt lat="45.50952" lon="6.60337">
        <ele>1434.91</ele>
        <time>2015-02-08T12:03:34Z</time>
      </trkpt>
      <trkpt lat="45.50926" lon="6.60319">
        <ele>1432.02</ele>
        <time>2015-02-08T12:03:41Z</time>
      </trkpt>
      <trkpt lat="45.50922" lon="6.60316">
        <ele>1432.02</ele>
        <time>2015-02-08T12:03:42Z</time>
      </trkpt>
      <trkpt lat="45.50918" lon="6.60313">
        <ele>1431.54</ele>
        <time>2015-02-08T12:03:43Z</time>
      </trkpt>
      <trkpt lat="45.50914" lon="6.6031">
        <ele>1431.54</ele>
        <time>2015-02-08T12:03:44Z</time>
      </trkpt>
      <trkpt lat="45.50893" lon="6.60294">
        <ele>1429.14</ele>
        <time>2015-02-08T12:03:49Z</time>
      </trkpt>
      <trkpt lat="45.50875" lon="6.6028">
        <ele>1426.73</ele>
        <time>2015-02-08T12:03:54Z</time>
      </trkpt>
      <trkpt lat="45.50857" lon="6.60261">
        <ele>1425.29</ele>
        <time>2015-02-08T12:04:00Z</time>
      </trkpt>
      <trkpt lat="45.50854" lon="6.60258">
        <ele>1425.29</ele>
        <time>2015-02-08T12:04:01Z</time>
      </trkpt>
      <trkpt lat="45.50851" lon="6.60253">
        <ele>1425.29</ele>
        <time>2015-02-08T12:04:02Z</time>
      </trkpt>
      <trkpt lat="45.50848" lon="6.60248">
        <ele>1424.81</ele>
        <time>2015-02-08T12:04:03Z</time>
      </trkpt>
      <trkpt lat="45.50845" lon="6.60243">
        <ele>1424.81</ele>
        <time>2015-02-08T12:04:04Z</time>
      </trkpt>
      <trkpt lat="45.50841" lon="6.60237">
        <ele>1424.81</ele>
        <time>2015-02-08T12:04:05Z</time>
      </trkpt>
      <trkpt lat="45.50838" lon="6.60231">
        <ele>1424.81</ele>
        <time>2015-02-08T12:04:06Z</time>
      </trkpt>
      <trkpt lat="45.50834" lon="6.60226">
        <ele>1424.33</ele>
        <time>2015-02-08T12:04:07Z</time>
      </trkpt>
      <trkpt lat="45.5083" lon="6.6022">
        <ele>1423.85</ele>
        <time>2015-02-08T12:04:08Z</time>
      </trkpt>
      <trkpt lat="45.50827" lon="6.60214">
        <ele>1423.85</ele>
        <time>2015-02-08T12:04:09Z</time>
      </trkpt>
      <trkpt lat="45.50823" lon="6.60207">
        <ele>1422.89</ele>
        <time>2015-02-08T12:04:10Z</time>
      </trkpt>
      <trkpt lat="45.50819" lon="6.60201">
        <ele>1421.93</ele>
        <time>2015-02-08T12:04:11Z</time>
      </trkpt>
      <trkpt lat="45.50815" lon="6.60195">
        <ele>1421.45</ele>
        <time>2015-02-08T12:04:12Z</time>
      </trkpt>
      <trkpt lat="45.50795" lon="6.6017">
        <ele>1418.56</ele>
        <time>2015-02-08T12:04:16Z</time>
      </trkpt>
      <trkpt lat="45.5079" lon="6.60162">
        <ele>1417.6</ele>
        <time>2015-02-08T12:04:17Z</time>
      </trkpt>
      <trkpt lat="45.50769" lon="6.60119">
        <ele>1413.76</ele>
        <time>2015-02-08T12:04:22Z</time>
      </trkpt>
      <trkpt lat="45.50759" lon="6.60091">
        <ele>1412.31</ele>
        <time>2015-02-08T12:04:25Z</time>
      </trkpt>
      <trkpt lat="45.50746" lon="6.60053">
        <ele>1409.43</ele>
        <time>2015-02-08T12:04:29Z</time>
      </trkpt>
      <trkpt lat="45.50732" lon="6.60017">
        <ele>1406.07</ele>
        <time>2015-02-08T12:04:33Z</time>
      </trkpt>
      <trkpt lat="45.50718" lon="6.5998">
        <ele>1402.7</ele>
        <time>2015-02-08T12:04:37Z</time>
      </trkpt>
      <trkpt lat="45.50714" lon="6.59971">
        <ele>1402.7</ele>
        <time>2015-02-08T12:04:38Z</time>
      </trkpt>
      <trkpt lat="45.50705" lon="6.59955">
        <ele>1400.78</ele>
        <time>2015-02-08T12:04:40Z</time>
      </trkpt>
      <trkpt lat="45.50701" lon="6.59949">
        <ele>1399.82</ele>
        <time>2015-02-08T12:04:41Z</time>
      </trkpt>
      <trkpt lat="45.50686" lon="6.5993">
        <ele>1397.89</ele>
        <time>2015-02-08T12:04:44Z</time>
      </trkpt>
      <trkpt lat="45.50682" lon="6.59922">
        <ele>1397.89</ele>
        <time>2015-02-08T12:04:45Z</time>
      </trkpt>
      <trkpt lat="45.5068" lon="6.59913">
        <ele>1396.93</ele>
        <time>2015-02-08T12:04:46Z</time>
      </trkpt>
      <trkpt lat="45.50679" lon="6.59904">
        <ele>1396.45</ele>
        <time>2015-02-08T12:04:47Z</time>
      </trkpt>
      <trkpt lat="45.50679" lon="6.59895">
        <ele>1396.45</ele>
        <time>2015-02-08T12:04:48Z</time>
      </trkpt>
      <trkpt lat="45.5068" lon="6.59886">
        <ele>1395.97</ele>
        <time>2015-02-08T12:04:49Z</time>
      </trkpt>
      <trkpt lat="45.50682" lon="6.59877">
        <ele>1395.01</ele>
        <time>2015-02-08T12:04:50Z</time>
      </trkpt>
      <trkpt lat="45.50686" lon="6.59838">
        <ele>1392.13</ele>
        <time>2015-02-08T12:04:54Z</time>
      </trkpt>
      <trkpt lat="45.50686" lon="6.59828">
        <ele>1391.65</ele>
        <time>2015-02-08T12:04:55Z</time>
      </trkpt>
      <trkpt lat="45.50685" lon="6.59817">
        <ele>1390.68</ele>
        <time>2015-02-08T12:04:56Z</time>
      </trkpt>
      <trkpt lat="45.50683" lon="6.59807">
        <ele>1390.2</ele>
        <time>2015-02-08T12:04:57Z</time>
      </trkpt>
      <trkpt lat="45.50677" lon="6.59755">
        <ele>1386.36</ele>
        <time>2015-02-08T12:05:02Z</time>
      </trkpt>
      <trkpt lat="45.50672" lon="6.59708">
        <ele>1383.47</ele>
        <time>2015-02-08T12:05:07Z</time>
      </trkpt>
      <trkpt lat="45.50669" lon="6.59691">
        <ele>1382.99</ele>
        <time>2015-02-08T12:05:09Z</time>
      </trkpt>
      <trkpt lat="45.50665" lon="6.59674">
        <ele>1381.07</ele>
        <time>2015-02-08T12:05:11Z</time>
      </trkpt>
      <trkpt lat="45.50664" lon="6.59665">
        <ele>1380.59</ele>
        <time>2015-02-08T12:05:12Z</time>
      </trkpt>
      <trkpt lat="45.50665" lon="6.59658">
        <ele>1379.15</ele>
        <time>2015-02-08T12:05:13Z</time>
      </trkpt>
      <trkpt lat="45.50668" lon="6.59655">
        <ele>1377.71</ele>
        <time>2015-02-08T12:05:14Z</time>
      </trkpt>
      <trkpt lat="45.50672" lon="6.59658">
        <ele>1377.71</ele>
        <time>2015-02-08T12:05:15Z</time>
      </trkpt>
      <trkpt lat="45.50676" lon="6.59664">
        <ele>1377.23</ele>
        <time>2015-02-08T12:05:16Z</time>
      </trkpt>
      <trkpt lat="45.50679" lon="6.59671">
        <ele>1376.75</ele>
        <time>2015-02-08T12:05:17Z</time>
      </trkpt>
      <trkpt lat="45.50701" lon="6.59711">
        <ele>1372.9</ele>
        <time>2015-02-08T12:05:22Z</time>
      </trkpt>
      <trkpt lat="45.50719" lon="6.59746">
        <ele>1369.54</ele>
        <time>2015-02-08T12:05:26Z</time>
      </trkpt>
      <trkpt lat="45.50722" lon="6.59755">
        <ele>1369.05</ele>
        <time>2015-02-08T12:05:27Z</time>
      </trkpt>
      <trkpt lat="45.50729" lon="6.59781">
        <ele>1365.21</ele>
        <time>2015-02-08T12:05:30Z</time>
      </trkpt>
      <trkpt lat="45.50733" lon="6.59786">
        <ele>1364.73</ele>
        <time>2015-02-08T12:05:31Z</time>
      </trkpt>
      <trkpt lat="45.50736" lon="6.59791">
        <ele>1363.77</ele>
        <time>2015-02-08T12:05:32Z</time>
      </trkpt>
      <trkpt lat="45.50738" lon="6.59797">
        <ele>1363.77</ele>
        <time>2015-02-08T12:05:33Z</time>
      </trkpt>
      <trkpt lat="45.50738" lon="6.59802">
        <ele>1363.77</ele>
        <time>2015-02-08T12:05:34Z</time>
      </trkpt>
      <trkpt lat="45.50739" lon="6.59806">
        <ele>1363.77</ele>
        <time>2015-02-08T12:05:35Z</time>
      </trkpt>
      <trkpt lat="45.50746" lon="6.59822">
        <ele>1363.29</ele>
        <time>2015-02-08T12:05:40Z</time>
      </trkpt>
      <trkpt lat="45.50749" lon="6.59827">
        <ele>1362.33</ele>
        <time>2015-02-08T12:05:41Z</time>
      </trkpt>
      <trkpt lat="45.50753" lon="6.59832">
        <ele>1361.84</ele>
        <time>2015-02-08T12:05:42Z</time>
      </trkpt>
      <trkpt lat="45.50757" lon="6.59833">
        <ele>1359.92</ele>
        <time>2015-02-08T12:05:43Z</time>
      </trkpt>
      <trkpt lat="45.50762" lon="6.59832">
        <ele>1358.48</ele>
        <time>2015-02-08T12:05:44Z</time>
      </trkpt>
      <trkpt lat="45.50768" lon="6.59834">
        <ele>1356.08</ele>
        <time>2015-02-08T12:05:45Z</time>
      </trkpt>
      <trkpt lat="45.50774" lon="6.59837">
        <ele>1354.63</ele>
        <time>2015-02-08T12:05:46Z</time>
      </trkpt>
      <trkpt lat="45.50781" lon="6.59838">
        <ele>1353.19</ele>
        <time>2015-02-08T12:05:47Z</time>
      </trkpt>
      <trkpt lat="45.50795" lon="6.59838">
        <ele>1349.83</ele>
        <time>2015-02-08T12:05:49Z</time>
      </trkpt>
      <trkpt lat="45.50801" lon="6.59836">
        <ele>1348.87</ele>
        <time>2015-02-08T12:05:50Z</time>
      </trkpt>
      <trkpt lat="45.50816" lon="6.59833">
        <ele>1344.54</ele>
        <time>2015-02-08T12:05:52Z</time>
      </trkpt>
      <trkpt lat="45.50823" lon="6.59831">
        <ele>1343.1</ele>
        <time>2015-02-08T12:05:53Z</time>
      </trkpt>
      <trkpt lat="45.5083" lon="6.59832">
        <ele>1338.29</ele>
        <time>2015-02-08T12:05:54Z</time>
      </trkpt>
      <trkpt lat="45.50835" lon="6.59833">
        <ele>1336.85</ele>
        <time>2015-02-08T12:05:55Z</time>
      </trkpt>
      <trkpt lat="45.50841" lon="6.59833">
        <ele>1335.89</ele>
        <time>2015-02-08T12:05:56Z</time>
      </trkpt>
      <trkpt lat="45.50846" lon="6.59833">
        <ele>1334.45</ele>
        <time>2015-02-08T12:05:57Z</time>
      </trkpt>
      <trkpt lat="45.50851" lon="6.59836">
        <ele>1333.49</ele>
        <time>2015-02-08T12:05:58Z</time>
      </trkpt>
      <trkpt lat="45.50857" lon="6.59839">
        <ele>1333.01</ele>
        <time>2015-02-08T12:05:59Z</time>
      </trkpt>
      <trkpt lat="45.50862" lon="6.59842">
        <ele>1331.08</ele>
        <time>2015-02-08T12:06:00Z</time>
      </trkpt>
      <trkpt lat="45.5087" lon="6.59852">
        <ele>1329.64</ele>
        <time>2015-02-08T12:06:02Z</time>
      </trkpt>
      <trkpt lat="45.50875" lon="6.59855">
        <ele>1329.16</ele>
        <time>2015-02-08T12:06:03Z</time>
      </trkpt>
      <trkpt lat="45.50879" lon="6.59857">
        <ele>1327.72</ele>
        <time>2015-02-08T12:06:04Z</time>
      </trkpt>
      <trkpt lat="45.50885" lon="6.59862">
        <ele>1326.28</ele>
        <time>2015-02-08T12:06:06Z</time>
      </trkpt>
      <trkpt lat="45.50889" lon="6.59863">
        <ele>1326.28</ele>
        <time>2015-02-08T12:06:07Z</time>
      </trkpt>
      <trkpt lat="45.50891" lon="6.59867">
        <ele>1325.31</ele>
        <time>2015-02-08T12:06:08Z</time>
      </trkpt>
      <trkpt lat="45.50896" lon="6.59881">
        <ele>1324.35</ele>
        <time>2015-02-08T12:06:11Z</time>
      </trkpt>
      <trkpt lat="45.50913" lon="6.59926">
        <ele>1322.43</ele>
        <time>2015-02-08T12:06:19Z</time>
      </trkpt>
      <trkpt lat="45.50922" lon="6.59964">
        <ele>1320.51</ele>
        <time>2015-02-08T12:06:25Z</time>
      </trkpt>
      <trkpt lat="45.50923" lon="6.5997">
        <ele>1320.03</ele>
        <time>2015-02-08T12:06:26Z</time>
      </trkpt>
      <trkpt lat="45.50926" lon="6.59976">
        <ele>1320.03</ele>
        <time>2015-02-08T12:06:27Z</time>
      </trkpt>
      <trkpt lat="45.50928" lon="6.59982">
        <ele>1320.03</ele>
        <time>2015-02-08T12:06:28Z</time>
      </trkpt>
      <trkpt lat="45.50931" lon="6.59987">
        <ele>1318.59</ele>
        <time>2015-02-08T12:06:29Z</time>
      </trkpt>
      <trkpt lat="45.50934" lon="6.59993">
        <ele>1318.59</ele>
        <time>2015-02-08T12:06:30Z</time>
      </trkpt>
      <trkpt lat="45.50938" lon="6.59998">
        <ele>1318.59</ele>
        <time>2015-02-08T12:06:31Z</time>
      </trkpt>
      <trkpt lat="45.50948" lon="6.60011">
        <ele>1318.1</ele>
        <time>2015-02-08T12:06:34Z</time>
      </trkpt>
      <trkpt lat="45.50971" lon="6.60031">
        <ele>1315.7</ele>
        <time>2015-02-08T12:06:39Z</time>
      </trkpt>
      <trkpt lat="45.51014" lon="6.60057">
        <ele>1311.86</ele>
        <time>2015-02-08T12:06:47Z</time>
      </trkpt>
      <trkpt lat="45.51049" lon="6.6008">
        <ele>1308.01</ele>
        <time>2015-02-08T12:06:53Z</time>
      </trkpt>
      <trkpt lat="45.51055" lon="6.60085">
        <ele>1307.05</ele>
        <time>2015-02-08T12:06:54Z</time>
      </trkpt>
      <trkpt lat="45.51062" lon="6.60089">
        <ele>1306.57</ele>
        <time>2015-02-08T12:06:55Z</time>
      </trkpt>
      <trkpt lat="45.51069" lon="6.60092">
        <ele>1306.09</ele>
        <time>2015-02-08T12:06:56Z</time>
      </trkpt>
      <trkpt lat="45.51076" lon="6.60094">
        <ele>1305.61</ele>
        <time>2015-02-08T12:06:57Z</time>
      </trkpt>
      <trkpt lat="45.51082" lon="6.60096">
        <ele>1304.65</ele>
        <time>2015-02-08T12:06:58Z</time>
      </trkpt>
      <trkpt lat="45.51095" lon="6.60098">
        <ele>1303.2</ele>
        <time>2015-02-08T12:07:00Z</time>
      </trkpt>
      <trkpt lat="45.51102" lon="6.60097">
        <ele>1302.72</ele>
        <time>2015-02-08T12:07:01Z</time>
      </trkpt>
      <trkpt lat="45.51109" lon="6.60096">
        <ele>1302.72</ele>
        <time>2015-02-08T12:07:02Z</time>
      </trkpt>
      <trkpt lat="45.51122" lon="6.60095">
        <ele>1300.8</ele>
        <time>2015-02-08T12:07:04Z</time>
      </trkpt>
      <trkpt lat="45.51129" lon="6.60095">
        <ele>1299.84</ele>
        <time>2015-02-08T12:07:05Z</time>
      </trkpt>
      <trkpt lat="45.51136" lon="6.60094">
        <ele>1299.36</ele>
        <time>2015-02-08T12:07:06Z</time>
      </trkpt>
      <trkpt lat="45.51142" lon="6.6009">
        <ele>1298.88</ele>
        <time>2015-02-08T12:07:07Z</time>
      </trkpt>
      <trkpt lat="45.51149" lon="6.60086">
        <ele>1297.92</ele>
        <time>2015-02-08T12:07:08Z</time>
      </trkpt>
      <trkpt lat="45.51155" lon="6.60081">
        <ele>1296.96</ele>
        <time>2015-02-08T12:07:09Z</time>
      </trkpt>
      <trkpt lat="45.51161" lon="6.60076">
        <ele>1295.99</ele>
        <time>2015-02-08T12:07:10Z</time>
      </trkpt>
      <trkpt lat="45.51166" lon="6.60071">
        <ele>1295.51</ele>
        <time>2015-02-08T12:07:11Z</time>
      </trkpt>
      <trkpt lat="45.51171" lon="6.60065">
        <ele>1295.51</ele>
        <time>2015-02-08T12:07:12Z</time>
      </trkpt>
      <trkpt lat="45.51175" lon="6.60058">
        <ele>1294.55</ele>
        <time>2015-02-08T12:07:13Z</time>
      </trkpt>
      <trkpt lat="45.5118" lon="6.60052">
        <ele>1293.59</ele>
        <time>2015-02-08T12:07:14Z</time>
      </trkpt>
      <trkpt lat="45.51194" lon="6.60037">
        <ele>1292.63</ele>
        <time>2015-02-08T12:07:17Z</time>
      </trkpt>
      <trkpt lat="45.512" lon="6.60034">
        <ele>1291.67</ele>
        <time>2015-02-08T12:07:18Z</time>
      </trkpt>
      <trkpt lat="45.51206" lon="6.60032">
        <ele>1291.19</ele>
        <time>2015-02-08T12:07:19Z</time>
      </trkpt>
      <trkpt lat="45.51211" lon="6.6003">
        <ele>1290.71</ele>
        <time>2015-02-08T12:07:20Z</time>
      </trkpt>
      <trkpt lat="45.51216" lon="6.60028">
        <ele>1290.23</ele>
        <time>2015-02-08T12:07:21Z</time>
      </trkpt>
      <trkpt lat="45.51221" lon="6.60026">
        <ele>1289.27</ele>
        <time>2015-02-08T12:07:22Z</time>
      </trkpt>
      <trkpt lat="45.51227" lon="6.60024">
        <ele>1289.27</ele>
        <time>2015-02-08T12:07:23Z</time>
      </trkpt>
      <trkpt lat="45.51261" lon="6.6">
        <ele>1286.38</ele>
        <time>2015-02-08T12:07:30Z</time>
      </trkpt>
      <trkpt lat="45.51266" lon="6.59995">
        <ele>1285.9</ele>
        <time>2015-02-08T12:07:31Z</time>
      </trkpt>
      <trkpt lat="45.51277" lon="6.59979">
        <ele>1284.46</ele>
        <time>2015-02-08T12:07:34Z</time>
      </trkpt>
      <trkpt lat="45.5128" lon="6.59973">
        <ele>1284.46</ele>
        <time>2015-02-08T12:07:35Z</time>
      </trkpt>
      <trkpt lat="45.51285" lon="6.59959">
        <ele>1283.5</ele>
        <time>2015-02-08T12:07:37Z</time>
      </trkpt>
      <trkpt lat="45.51287" lon="6.59952">
        <ele>1283.02</ele>
        <time>2015-02-08T12:07:38Z</time>
      </trkpt>
      <trkpt lat="45.51289" lon="6.59944">
        <ele>1282.54</ele>
        <time>2015-02-08T12:07:39Z</time>
      </trkpt>
      <trkpt lat="45.5129" lon="6.59936">
        <ele>1282.06</ele>
        <time>2015-02-08T12:07:40Z</time>
      </trkpt>
      <trkpt lat="45.5129" lon="6.59928">
        <ele>1281.57</ele>
        <time>2015-02-08T12:07:41Z</time>
      </trkpt>
      <trkpt lat="45.51291" lon="6.59907">
        <ele>1280.13</ele>
        <time>2015-02-08T12:07:44Z</time>
      </trkpt>
      <trkpt lat="45.51291" lon="6.59894">
        <ele>1279.65</ele>
        <time>2015-02-08T12:07:46Z</time>
      </trkpt>
      <trkpt lat="45.51291" lon="6.59888">
        <ele>1279.65</ele>
        <time>2015-02-08T12:07:47Z</time>
      </trkpt>
      <trkpt lat="45.51292" lon="6.59884">
        <ele>1278.69</ele>
        <time>2015-02-08T12:07:48Z</time>
      </trkpt>
      <trkpt lat="45.51298" lon="6.59867">
        <ele>1277.73</ele>
        <time>2015-02-08T12:07:53Z</time>
      </trkpt>
      <trkpt lat="45.51301" lon="6.59865">
        <ele>1277.73</ele>
        <time>2015-02-08T12:07:54Z</time>
      </trkpt>
      <trkpt lat="45.51313" lon="6.5986">
        <ele>1275.81</ele>
        <time>2015-02-08T12:07:59Z</time>
      </trkpt>
      <trkpt lat="45.51316" lon="6.59857">
        <ele>1275.81</ele>
        <time>2015-02-08T12:08:02Z</time>
      </trkpt>
      <trkpt lat="45.51319" lon="6.59856">
        <ele>1275.81</ele>
        <time>2015-02-08T12:08:06Z</time>
      </trkpt>
      <trkpt lat="45.51321" lon="6.59855">
        <ele>1275.81</ele>
        <time>2015-02-08T12:08:07Z</time>
      </trkpt>
      <trkpt lat="45.51324" lon="6.59854">
        <ele>1275.33</ele>
        <time>2015-02-08T12:08:08Z</time>
      </trkpt>
      <trkpt lat="45.51326" lon="6.59852">
        <ele>1274.85</ele>
        <time>2015-02-08T12:08:12Z</time>
      </trkpt>
      <trkpt lat="45.51327" lon="6.59851">
        <ele>1274.85</ele>
        <time>2015-02-08T12:08:13Z</time>
      </trkpt>
      <trkpt lat="45.51328" lon="6.5985">
        <ele>1274.85</ele>
        <time>2015-02-08T12:08:14Z</time>
      </trkpt>
      <trkpt lat="45.51328" lon="6.59848">
        <ele>1274.85</ele>
        <time>2015-02-08T12:08:15Z</time>
      </trkpt>
      <trkpt lat="45.51331" lon="6.59841">
        <ele>1274.36</ele>
        <time>2015-02-08T12:08:22Z</time>
      </trkpt>
      <trkpt lat="45.51331" lon="6.59838">
        <ele>1274.36</ele>
        <time>2015-02-08T12:08:35Z</time>
      </trkpt>
      <trkpt lat="45.51333" lon="6.5984">
        <ele>1274.36</ele>
        <time>2015-02-08T12:08:53Z</time>
      </trkpt>
      <trkpt lat="45.51337" lon="6.59839">
        <ele>1274.36</ele>
        <time>2015-02-08T12:09:01Z</time>
      </trkpt>
      <trkpt lat="45.51339" lon="6.59841">
        <ele>1274.36</ele>
        <time>2015-02-08T12:09:03Z</time>
      </trkpt>
      <trkpt lat="45.5134" lon="6.59842">
        <ele>1274.36</ele>
        <time>2015-02-08T12:09:04Z</time>
      </trkpt>
      <trkpt lat="45.5134" lon="6.5984">
        <ele>1274.36</ele>
        <time>2015-02-08T12:09:13Z</time>
      </trkpt>
      <trkpt lat="45.5134" lon="6.5984">
        <ele>1274.85</ele>
        <time>2015-02-08T12:09:18Z</time>
      </trkpt>
      <trkpt lat="45.5134" lon="6.59841">
        <ele>1274.36</ele>
        <time>2015-02-08T12:09:26Z</time>
      </trkpt>
      <trkpt lat="45.51341" lon="6.5984">
        <ele>1274.85</ele>
        <time>2015-02-08T12:09:47Z</time>
      </trkpt>
    </trkseg>
  </trk>
</gpx>